GFSSW_con_mucape_000.txt.gz
CAPE
0 0 4 9 8 4 3 4 23 78 102 102 53 73 81 63 29 0 0 0 0 2 103 48 33 4 0 0 0 0 0 0 0 0 0 0 0 0 0 0 0 0 0 0 0
0 0 8 7 9 22 32 21 27 56 79 111 87 44 96 49 0 0 0 0 0 0 6 12 30 49 0 0 0 0 0 0 0 0 0 0 0 0 0 0 0 1 7 1 0
0 4 8 9 11 19 40 47 47 48 70 106 106 125 127 24 0 0 0 0 0 0 36 33 28 72 7 0 0 0 0 0 0 0 0 0 0 0 0 0 0 4 3 2 0
0 0 14 14 5 5 26 55 61 71 65 86 122 224 149 27 0 15 0 0 0 0 26 48 66 66 16 0 0 0 0 0 0 0 0 0 0 0 0 0 0 0 0 0 0
0 0 18 20 16 14 1 35 46 83 103 141 152 187 73 26 0 0 0 0 0 0 19 67 46 38 9 0 0 0 0 0 0 0 0 0 0 0 0 0 0 0 0 0 0
0 0 0 23 32 28 30 15 35 98 132 232 376 309 39 0 0 0 0 0 1 0 8 65 31 0 22 14 5 0 0 0 0 0 0 0 0 0 0 0 0 0 0 0 0
0 0 22 25 16 37 47 39 36 106 146 275 424 104 31 0 0 0 0 0 0 1 0 47 79 33 21 29 7 20 0 0 0 0 0 0 0 0 0 0 0 0 0 0 0
0 57 34 36 20 31 34 57 67 176 169 283 385 61 0 0 0 0 0 0 0 0 0 158 165 32 22 15 28 31 17 1 0 0 0 0 0 0 0 0 0 0 0 0 0
4 4 6 49 54 70 52 72 97 132 171 269 112 29 27 0 0 0 0 0 1 0 19 178 61 33 40 30 6 22 0 0 0 0 0 0 0 0 0 0 0 0 0 0 0
4 6 7 0 44 56 74 46 90 61 59 55 64 5 0 0 0 0 0 11 20 0 2 176 49 47 31 46 0 0 0 0 0 0 0 0 0 0 0 0 0 0 0 0 0
9 9 4 1 0 71 71 31 0 0 26 0 0 0 2 0 0 0 0 29 28 0 0 121 77 29 0 0 0 21 0 0 0 0 0 0 0 0 0 0 0 0 0 0 0
13 7 1 1 20 87 17 0 0 4 0 0 37 13 28 40 74 4 1 7 0 0 0 108 0 4 2 6 7 32 18 2 0 0 0 0 0 0 0 0 0 0 0 0 0
3 3 1 0 64 62 20 0 68 31 0 0 0 25 10 26 38 8 0 24 0 1 0 0 18 8 0 1 7 3 14 0 0 0 0 0 0 0 0 0 0 0 0 0 0
3 4 0 0 0 2 0 0 47 4 0 0 4 1 15 32 26 31 5 32 0 0 0 30 8 8 0 1 3 9 1 19 20 8 0 0 0 0 0 0 0 0 0 0 0
12 3 6 0 0 0 2 0 0 0 0 0 3 3 11 6 27 62 3 7 0 0 0 11 11 4 31 6 0 0 4 35 20 3 0 0 0 0 0 0 0 0 0 0 0
2 0 4 0 0 7 1 6 0 0 0 0 36 9 7 0 61 62 75 73 30 0 0 12 14 22 23 17 1 0 26 5 26 2 0 0 0 0 0 0 0 0 0 0 0
3 0 19 0 0 0 0 0 0 0 0 1 19 26 23 0 51 39 0 0 1 0 0 0 10 13 2 3 28 12 3 4 0 0 0 0 0 0 0 0 0 0 0 0 0
4 15 0 2 1 0 0 0 0 0 0 30 46 0 0 25 43 0 11 0 9 0 0 0 0 43 11 0 0 25 0 0 0 0 0 0 0 0 0 0 0 0 0 0 0
8 0 0 0 1 0 0 0 2 0 3 39 25 0 0 2 13 82 0 0 0 0 0 0 0 0 5 0 0 7 0 0 0 0 0 0 0 0 0 0 0 0 0 0 0
0 0 0 1 3 0 0 0 19 3 0 0 0 0 0 0 0 0 0 2 19 0 0 0 0 0 0 10 5 0 0 0 0 0 0 0 0 0 0 0 0 0 0 0 0
0 0 0 5 2 0 0 0 5 1 0 0 10 0 0 0 1 0 0 0 1 0 0 0 0 0 24 0 0 1 0 0 0 0 0 0 0 0 0 0 0 0 0 0 0
0 0 3 9 0 0 0 0 0 0 44 18 0 0 0 0 0 5 0 0 0 0 0 0 0 0 0 0 0 0 0 0 0 0 0 0 0 0 0 0 0 0 0 0 0
0 3 4 11 5 0 0 0 0 0 0 0 0 0 0 0 0 2 3 0 0 0 0 0 0 0 0 1 0 0 0 0 0 0 0 0 0 0 0 0 0 0 0 0 0
0 6 7 7 1 0 3 0 0 0 0 0 0 0 0 0 0 2 0 2 1 0 2 0 0 0 0 0 0 0 0 0 0 0 0 0 0 0 0 0 0 0 0 0 0
0 0 2 0 0 0 0 0 0 0 0 0 0 0 0 20 0 0 0 0 1 2 0 1 0 12 0 0 0 0 0 0 0 0 0 0 0 0 0 0 0 0 0 0 0
0 0 0 0 0 0 2 0 0 0 0 0 0 0 24 6 0 0 0 0 0 0 32 16 5 21 0 0 0 0 0 0 0 0 0 0 0 0 0 0 0 0 0 0 0
0 0 0 0 0 0 0 0 0 0 0 0 0 0 1 1 0 2 0 0 0 0 0 4 0 0 0 0 0 0 0 0 0 0 0 0 0 0 0 0 0 0 0 0 0

GFSSW_con_mucape_003.txt.gz
CAPE
0 0 0 0 0 7 2 0 0 7 53 81 97 84 107 91 40 0 0 0 0 11 9 0 16 8 0 0 0 0 0 0 0 0 0 0 0 0 0 0 0 7 8 10 14
0 0 0 0 0 4 10 14 1 2 15 68 79 94 76 84 12 0 0 0 0 0 0 5 11 56 0 0 0 0 0 0 0 0 0 0 0 0 0 0 0 0 3 16 27
0 0 0 0 0 3 9 20 35 29 30 61 75 110 124 30 2 0 0 0 0 0 0 50 17 69 39 0 0 0 0 0 0 0 0 0 0 0 0 0 0 0 4 15 12
0 0 0 0 0 17 12 14 31 56 48 57 79 96 103 5 0 1 0 0 5 1 0 20 54 60 24 0 0 0 0 0 0 0 0 0 0 0 0 0 0 0 1 6 3
0 0 0 0 0 20 25 6 25 48 63 69 73 103 29 36 3 11 5 0 0 9 0 2 82 50 26 0 0 0 0 0 0 0 0 0 0 0 0 0 0 0 0 0 0
0 0 0 0 0 41 34 23 17 41 92 93 115 100 3 12 0 0 0 0 0 13 0 0 35 15 62 5 11 0 2 0 0 0 0 0 0 0 0 0 0 0 0 0 0
0 0 0 11 46 28 32 44 29 23 97 108 125 41 30 0 0 0 0 0 0 3 0 0 83 41 25 56 10 18 15 0 0 0 0 0 0 0 0 0 0 0 0 0 0
2 0 5 1 1 32 46 52 77 104 94 105 69 33 0 1 0 0 0 0 7 0 0 3 86 62 28 50 46 38 34 5 0 0 0 0 0 0 0 0 0 0 0 0 0
0 0 3 8 2 55 72 76 91 105 110 69 29 33 0 4 0 0 0 0 17 25 15 8 99 97 37 47 53 48 8 0 0 0 0 0 0 0 0 0 0 0 0 0 0
0 0 1 11 4 8 67 85 79 78 38 44 18 7 3 2 0 0 0 2 77 71 26 93 198 67 53 17 33 33 3 3 0 0 0 0 0 0 0 0 0 0 0 0 0
0 0 0 8 1 0 12 37 0 0 0 0 0 0 13 5 13 5 0 0 38 74 0 0 88 65 0 25 3 7 0 0 0 0 0 0 0 0 0 0 0 0 0 0 0
0 0 3 5 0 0 58 0 0 0 0 0 0 0 0 48 171 32 0 0 16 0 0 1 77 47 1 25 11 0 2 0 0 0 0 0 0 0 0 0 0 0 0 0 0
0 0 6 3 0 0 0 0 2 3 0 0 0 3 9 0 46 69 0 1 67 0 0 0 15 17 0 20 27 1 0 3 0 3 1 0 0 0 0 0 0 0 0 0 0
9 16 0 4 0 0 0 0 0 1 0 0 0 0 12 68 20 32 0 5 60 0 0 0 27 19 8 11 0 0 1 0 10 7 0 0 0 0 0 0 0 0 0 0 0
8 19 0 0 1 0 0 0 0 0 0 0 0 4 0 1 16 14 0 40 27 0 0 16 38 0 2 16 0 1 4 11 16 17 5 0 0 0 0 0 0 0 0 0 0
12 5 47 2 0 0 0 0 0 0 0 0 0 0 20 12 63 73 1 39 55 0 0 53 28 92 10 4 2 4 7 0 6 14 0 0 0 0 0 0 0 0 0 0 0
13 29 25 0 0 0 0 0 0 0 0 0 0 15 5 0 4 38 7 0 1 0 7 23 41 36 76 30 4 11 6 0 0 0 0 0 0 0 0 0 0 0 0 0 0
14 29 0 0 6 0 0 0 0 0 0 1 6 31 13 0 36 36 0 0 3 0 9 0 21 5 1 2 17 4 1 0 0 0 0 0 0 0 0 0 0 0 0 0 0
0 0 0 0 0 0 0 0 0 1 0 0 24 0 0 0 29 9 0 0 0 0 1 0 0 23 1 0 0 53 0 0 0 0 0 0 0 0 0 0 0 0 0 0 0
3 0 3 0 4 0 0 0 0 1 0 0 0 0 0 0 0 0 0 0 2 0 0 0 0 0 14 20 7 0 0 8 0 0 0 0 0 0 0 0 0 0 0 0 0
0 0 0 3 2 0 0 0 0 5 0 0 0 0 0 0 0 0 0 0 0 1 0 0 0 0 2 1 10 0 3 0 0 0 0 0 0 0 0 0 0 0 0 0 0
0 7 9 5 0 0 0 0 0 1 0 11 0 0 0 0 0 0 0 0 0 0 0 0 0 0 0 0 1 0 0 12 0 0 0 0 0 0 0 0 0 0 0 0 0
0 2 1 5 0 1 0 0 0 0 34 28 0 0 0 1 0 16 10 0 0 2 0 0 0 0 0 0 0 0 3 2 0 0 0 0 0 0 0 0 0 0 0 0 0
0 0 2 5 0 0 0 0 0 0 0 19 0 0 0 0 0 8 0 0 2 0 0 0 3 1 2 2 2 1 0 0 0 0 0 0 0 0 0 0 0 0 0 0 0
0 0 1 0 0 0 0 0 0 0 0 12 0 0 0 0 0 0 0 0 5 0 0 0 0 0 0 0 0 0 0 1 0 0 0 0 0 0 0 0 0 0 0 0 0
0 0 0 0 0 0 0 0 0 0 0 0 1 0 0 0 0 0 1 0 0 2 0 0 0 4 0 0 0 0 0 0 0 0 0 0 0 0 0 0 0 0 0 0 0
0 0 0 2 0 0 0 1 0 0 0 0 0 0 1 22 9 0 0 1 9 1 0 0 0 0 1 16 3 0 0 0 0 0 0 0 0 0 0 0 0 0 0 0 0

GFSSW_con_mucape_006.txt.gz
CAPE
0 0 0 0 0 0 0 0 4 6 16 39 82 74 88 85 51 16 7 0 0 0 0 0 21 158 76 2 0 0 0 0 0 0 0 0 0 0 0 0 0 0 4 4 3
0 0 0 0 0 0 0 1 5 2 2 4 32 46 65 75 50 31 0 0 0 0 2 0 18 207 112 0 0 0 1 0 0 0 0 0 0 0 0 0 0 0 4 10 6
0 0 0 0 0 0 0 0 2 23 6 0 16 57 90 69 42 7 0 14 38 24 0 0 203 219 117 15 9 0 0 0 0 0 0 0 0 0 0 0 0 0 0 2 2
0 0 0 0 0 0 0 0 8 21 43 32 39 60 81 50 0 50 3 0 23 43 20 0 19 97 149 62 7 0 0 0 0 0 0 0 0 0 0 0 0 0 0 0 0
0 0 0 0 0 0 0 0 0 13 32 51 51 58 60 33 10 28 6 0 0 8 14 0 47 42 164 105 33 0 1 0 0 0 0 0 0 0 0 0 0 0 0 0 0
0 0 0 0 0 0 0 0 0 1 37 76 73 80 37 0 1 0 2 0 0 2 7 6 45 45 24 154 83 3 0 0 0 0 0 0 0 0 0 0 0 0 0 0 0
0 0 0 0 0 5 0 0 13 37 29 67 81 66 40 0 0 0 0 0 0 0 5 6 6 181 38 175 140 58 25 20 0 0 0 0 0 0 0 0 0 0 0 0 0
8 0 0 0 0 0 4 6 51 117 53 42 36 44 0 0 0 0 0 0 0 0 0 5 30 54 202 137 171 153 77 59 0 4 0 0 0 0 0 0 0 0 0 0 0
6 7 0 0 0 2 10 24 74 79 86 54 28 16 0 0 0 0 0 0 0 0 0 1 51 106 270 56 142 145 53 18 12 3 0 0 0 0 0 0 0 0 0 0 0
13 34 0 0 0 3 6 18 72 18 16 1 9 0 0 0 0 0 0 0 34 144 123 106 9 179 283 137 65 31 42 18 22 2 0 0 0 0 0 0 0 0 0 0 0
15 36 0 0 0 7 3 0 0 0 0 0 0 0 0 0 0 3 0 0 46 223 90 78 7 44 62 50 61 0 21 19 9 0 0 0 0 0 0 0 0 0 0 0 0
10 32 46 67 0 5 0 0 0 0 0 0 0 0 14 8 34 28 18 0 11 18 153 43 8 38 57 114 67 34 9 13 18 0 0 0 0 0 0 0 0 0 0 0 0
6 22 42 3 2 1 1 0 0 0 0 0 0 0 0 8 71 100 53 0 2 3 22 14 0 23 94 98 58 37 0 8 6 0 3 0 0 0 0 0 0 0 0 0 0
8 22 51 11 0 0 0 0 0 0 0 0 0 0 0 67 20 23 71 4 52 0 5 3 6 98 93 75 93 48 33 8 6 37 46 0 0 0 0 0 0 0 0 0 0
3 11 54 19 0 0 0 0 0 0 0 0 0 0 0 17 31 3 125 19 38 0 2 9 5 39 148 40 41 21 15 21 15 33 2 0 0 0 0 0 0 0 0 0 0
0 30 48 46 50 5 1 0 0 0 0 0 0 0 0 31 53 134 123 28 57 3 0 5 4 3 56 29 36 15 0 7 13 0 1 2 0 0 0 0 0 0 0 0 0
3 9 29 11 0 13 0 0 0 0 0 0 0 0 0 1 9 37 68 0 3 0 0 3 7 73 112 29 9 34 37 29 2 0 1 0 0 0 0 0 0 0 0 0 0
4 2 1 10 27 30 0 0 0 0 0 0 0 0 0 26 12 40 39 0 1 0 0 7 23 22 41 9 2 0 31 12 0 0 0 0 0 0 0 0 0 0 0 0 0
1 7 1 6 69 0 0 0 0 0 0 0 2 24 28 28 2 42 0 13 0 0 7 22 1 0 28 0 0 6 0 0 0 0 0 0 0 0 0 0 0 0 0 0 0
0 0 0 0 0 0 0 0 0 0 0 0 0 3 0 0 71 24 0 0 0 0 0 0 25 1 17 12 4 55 1 0 0 0 0 0 0 0 0 0 0 0 0 0 0
0 0 0 0 2 0 0 0 0 1 0 0 0 0 0 0 0 0 0 0 0 0 0 0 1 12 14 2 0 0 2 1 0 0 0 0 0 0 0 0 0 0 0 0 0
0 0 4 14 5 0 0 0 0 2 0 0 0 0 0 0 0 0 0 0 0 0 0 0 0 13 0 2 3 0 0 2 14 0 0 0 0 0 0 0 0 0 0 0 0
0 0 9 1 0 0 0 0 0 0 0 0 0 0 0 0 0 0 0 0 0 0 0 0 0 0 4 0 0 0 1 0 0 0 0 0 0 0 0 0 0 0 0 0 0
0 0 4 6 0 0 0 0 0 0 0 19 4 3 0 0 0 0 0 1 0 0 0 0 0 0 0 0 0 0 7 0 0 0 0 0 0 0 0 0 0 0 0 0 0
0 0 7 1 0 0 0 0 0 0 49 28 0 0 0 0 1 0 4 0 1 1 0 0 0 0 0 0 0 0 0 0 0 0 0 0 0 0 0 0 0 0 0 0 0
0 0 0 0 0 0 0 0 0 0 0 0 0 0 0 0 0 5 0 0 0 0 0 0 2 1 0 0 0 0 0 0 0 0 0 0 0 0 0 0 0 0 0 0 0
0 0 0 0 0 0 0 0 0 0 0 0 0 0 0 1 2 5 6 0 0 0 0 0 0 1 2 0 0 0 0 0 0 0 0 0 0 0 0 0 0 0 0 0 0

GFSSW_con_mucape_009.txt.gz
CAPE
0 0 0 0 0 0 0 0 0 1 13 2 6 41 62 80 53 20 4 0 0 0 0 0 0 0 86 49 4 0 2 1 0 0 0 1 0 0 0 0 0 0 0 0 0
0 0 0 0 0 0 0 0 0 0 0 1 7 12 68 53 30 51 7 1 0 4 0 0 0 0 193 92 54 0 2 0 0 0 3 2 0 0 0 0 0 0 0 0 0
0 0 0 0 0 0 0 0 0 0 1 0 0 31 10 12 34 12 38 23 38 29 0 0 0 37 60 148 59 36 1 1 1 2 0 0 0 0 0 0 0 0 0 0 0
0 0 0 0 0 0 0 0 0 0 0 9 10 35 75 28 0 65 26 0 2 6 15 4 0 12 52 50 67 50 10 0 7 8 0 0 0 0 0 0 0 0 0 0 0
5 3 0 0 0 0 0 0 0 0 0 23 44 48 54 0 2 25 2 0 0 23 17 9 0 0 27 35 85 56 19 6 5 10 0 0 0 0 0 0 0 0 0 0 0
2 11 0 0 0 0 0 0 0 0 0 5 65 73 53 0 2 28 24 0 0 9 26 45 4 0 4 19 58 54 88 28 23 14 0 0 0 0 0 0 0 0 0 0 0
1 4 17 0 0 0 0 0 0 0 0 0 36 49 8 0 1 4 0 0 0 0 25 33 49 33 23 33 4 72 100 45 26 35 3 2 0 0 0 0 0 0 0 0 0
0 4 26 9 0 0 0 0 0 0 0 0 0 47 0 0 2 1 0 0 0 0 0 13 59 16 22 75 18 25 124 58 25 39 4 4 0 0 0 0 0 0 0 0 0
8 3 10 43 0 0 3 0 4 45 21 2 16 42 0 0 0 0 0 0 3 0 0 6 55 46 49 66 123 131 87 30 62 43 2 16 0 0 0 0 0 0 0 0 0
37 27 16 30 0 0 3 6 0 48 15 11 16 0 0 0 0 0 0 1 8 25 28 25 61 42 52 73 64 61 58 43 56 30 10 21 0 0 0 0 0 0 0 0 0
45 29 20 17 37 71 0 8 0 0 0 0 0 0 0 0 0 0 0 7 12 28 40 41 63 42 7 5 0 67 163 125 96 24 34 14 0 0 0 0 0 0 0 0 0
42 25 29 21 38 83 1 0 2 0 0 0 0 0 0 0 0 0 6 12 11 6 23 152 200 23 3 8 49 117 127 176 75 33 6 2 1 0 0 0 0 0 0 0 0
31 3 21 17 19 33 0 0 4 0 0 0 0 0 0 0 0 0 17 19 24 26 39 206 147 113 29 23 245 196 162 140 72 16 0 3 2 0 0 0 0 0 0 0 0
0 0 3 28 2 0 0 7 2 0 0 0 0 0 0 0 0 3 60 61 28 27 89 158 67 187 60 22 96 221 97 91 54 47 15 12 0 0 0 0 0 0 0 0 0
0 0 0 0 24 50 7 11 2 0 0 0 0 0 0 0 0 0 6 96 46 37 7 0 46 46 67 22 25 106 111 93 82 123 71 17 10 0 1 0 0 0 0 0 0
19 8 3 53 26 27 2 5 0 0 0 0 0 0 0 0 0 23 3 59 54 24 38 0 3 22 12 34 44 120 141 140 92 38 15 11 6 1 0 0 0 0 0 0 0
38 17 6 5 3 15 1 0 0 0 0 0 0 0 0 0 0 46 68 51 78 0 0 0 21 11 20 57 29 45 48 118 0 13 4 11 18 5 0 0 0 0 0 0 0
44 25 10 15 59 33 4 0 0 0 0 0 0 0 0 0 0 44 48 80 37 1 8 7 3 7 17 13 1 10 21 7 0 0 3 0 0 0 0 0 0 0 0 0 0
8 6 1 9 18 8 0 0 0 0 0 0 0 0 18 0 0 6 44 64 7 1 0 0 0 0 0 29 0 8 55 11 6 0 34 0 0 0 0 0 0 0 0 0 0
5 3 6 4 47 0 0 0 0 0 0 0 0 13 44 38 34 22 1 8 0 1 19 0 0 0 30 18 27 11 24 6 4 0 0 2 0 0 0 0 0 0 0 0 0
4 0 1 5 0 0 0 0 0 0 0 0 0 0 18 9 7 0 0 0 0 9 9 0 1 12 0 1 1 1 24 3 5 0 38 41 0 0 0 0 0 0 0 0 0
0 0 0 9 0 2 0 0 0 0 0 17 0 0 0 0 0 0 0 0 0 20 0 0 0 36 1 1 0 0 0 11 33 0 0 1 0 0 0 0 0 0 0 0 0
1 0 23 27 0 0 0 0 0 2 0 0 0 0 0 0 0 0 0 0 0 0 0 2 3 0 3 0 10 0 1 18 15 3 1 0 1 0 0 0 0 0 0 0 0
4 0 0 0 6 0 0 0 0 0 0 0 0 0 0 0 0 0 0 0 0 0 13 0 0 0 7 0 0 1 4 0 0 0 0 5 2 0 0 0 0 0 0 0 0
3 0 0 0 0 0 0 0 0 0 0 0 0 0 0 0 0 1 0 0 0 0 0 0 0 0 0 0 0 2 5 0 0 0 1 0 0 0 0 0 0 0 0 0 0
1 0 0 0 14 4 0 0 0 0 0 1 0 0 0 0 0 0 0 0 0 0 0 0 0 0 0 0 0 0 0 0 0 0 0 0 0 0 0 0 0 0 0 0 0
0 0 0 0 28 6 0 0 0 0 0 6 4 0 0 0 0 12 0 1 4 0 0 1 0 0 0 0 0 0 0 0 0 0 0 0 0 0 0 0 0 0 0 0 0

GFSSW_con_mucape_012.txt.gz
CAPE
0 0 0 0 0 0 0 0 0 0 2 26 31 1 23 42 39 12 0 0 0 0 0 0 0 0 0 23 21 16 0 0 0 0 0 0 0 0 0 0 0 0 0 0 0
0 0 0 0 0 0 0 0 0 2 0 0 11 10 6 3 3 27 0 13 19 3 0 0 0 0 0 45 20 6 0 0 0 0 0 2 1 0 0 0 0 0 0 0 0
1 1 0 0 0 0 0 0 0 0 1 0 0 3 4 6 0 0 11 3 39 27 5 0 0 0 11 6 30 8 0 0 0 0 0 0 0 0 0 0 0 0 0 0 0
1 2 0 0 0 0 0 0 0 0 0 15 0 0 16 1 0 28 14 0 6 44 27 1 0 0 18 3 16 24 13 0 0 0 10 0 0 0 0 0 0 0 0 0 0
1 2 4 0 0 0 0 0 0 0 0 24 32 21 0 0 0 8 0 0 0 0 16 6 15 0 2 10 38 23 24 14 1 0 1 4 0 0 0 0 0 0 0 0 0
12 2 5 5 0 0 0 0 0 0 0 22 53 45 0 0 0 0 17 5 0 5 18 31 37 11 0 4 32 45 50 26 19 3 1 1 0 0 0 0 0 0 0 0 0
29 18 21 14 0 0 0 0 0 0 0 47 48 45 0 0 0 0 21 10 0 0 1 36 27 53 21 5 20 24 47 60 16 10 9 9 0 0 0 0 0 0 0 0 0
26 42 32 42 18 19 0 0 0 0 52 55 37 16 0 0 0 0 0 0 0 0 0 0 28 45 42 19 38 62 53 13 0 8 7 10 0 0 0 0 0 0 0 0 0
34 45 33 54 60 62 15 0 0 2 60 42 0 0 0 0 0 0 0 0 0 0 0 0 5 27 43 27 45 28 0 1 0 14 8 10 0 0 0 0 0 0 0 0 0
64 55 47 54 72 67 64 0 0 1 0 9 0 0 0 0 0 0 0 1 2 2 1 8 20 28 39 7 0 0 23 0 0 0 16 5 1 0 0 0 0 0 0 0 0
57 53 43 70 66 67 29 0 0 0 1 0 0 0 0 0 0 0 0 2 2 0 0 5 0 0 0 0 0 0 20 79 0 66 19 6 0 0 0 0 0 0 0 0 0
60 38 39 60 71 60 47 0 0 1 0 0 0 0 0 0 0 0 0 0 0 0 0 0 0 0 0 4 8 1 25 15 41 97 44 11 3 1 0 0 0 0 0 0 0
56 34 40 39 50 49 10 2 0 2 1 0 0 0 0 0 0 0 0 0 0 0 0 0 0 0 4 16 37 8 9 1 60 122 64 35 5 0 0 0 0 0 0 0 0
51 40 0 0 0 0 18 13 2 7 0 0 0 0 0 0 0 0 0 0 0 0 0 0 0 0 22 8 16 15 0 7 74 79 32 1 0 0 0 0 0 0 0 0 0
55 47 0 2 0 0 1 6 15 5 0 0 0 0 0 0 0 0 0 0 0 0 0 0 0 4 35 15 14 2 39 1 99 107 35 5 1 0 0 0 0 0 0 0 0
48 19 18 5 8 0 0 0 3 0 0 0 0 0 0 0 0 0 0 0 7 8 22 1 17 43 14 35 57 11 32 16 72 51 91 5 2 1 0 0 0 0 0 0 0
59 15 12 17 0 1 0 0 0 0 0 0 0 0 0 0 0 0 0 0 0 0 0 27 9 0 8 211 35 116 110 178 75 81 2 3 49 8 0 0 0 0 0 0 0
60 17 29 16 10 3 5 0 0 0 0 0 0 0 0 0 0 0 0 0 14 26 7 0 1 2 0 13 14 54 6 71 14 5 0 0 1 1 0 0 0 0 0 0 0
52 33 17 15 10 3 0 0 0 0 0 0 0 0 0 1 59 0 0 3 1 9 0 0 1 19 3 2 62 0 12 0 1 2 0 0 0 0 0 0 0 0 0 0 0
55 18 4 11 5 0 0 0 0 0 0 0 0 0 0 0 0 0 0 4 7 20 0 0 0 0 41 27 66 3 20 11 14 0 1 0 0 0 0 0 0 0 0 0 0
29 19 13 9 0 0 0 0 0 0 0 0 0 0 0 0 0 1 0 0 3 4 0 0 0 6 16 71 0 0 21 2 0 6 20 0 0 0 0 0 0 0 0 0 0
24 17 7 0 0 0 0 0 0 0 0 0 0 0 0 0 0 0 0 8 4 0 0 0 0 0 0 0 1 0 0 0 28 15 8 1 0 0 0 0 0 0 0 0 0
21 11 9 3 0 0 0 0 0 0 0 0 0 0 0 0 0 0 0 12 0 0 0 0 5 0 3 4 0 0 0 4 5 1 16 6 0 0 0 0 0 0 0 0 0
14 13 8 0 0 0 0 0 0 0 0 0 0 0 0 0 0 0 0 15 0 0 0 2 6 9 0 0 0 0 0 0 0 0 7 1 0 0 0 0 0 0 0 0 0
16 6 6 0 0 0 0 0 0 0 0 0 0 0 0 0 0 0 0 0 0 1 12 0 0 0 0 0 0 0 0 0 0 4 0 0 0 0 0 0 0 0 0 0 0
10 3 5 1 0 0 0 0 0 0 0 0 0 6 0 0 0 0 0 0 0 0 0 0 0 0 0 0 0 0 0 0 0 0 0 1 0 0 0 0 0 0 0 0 0
5 3 7 0 0 0 0 3 0 0 0 0 0 0 8 1 4 4 14 0 26 0 0 0 0 0 0 0 0 0 0 0 0 0 0 0 0 0 0 0 0 0 0 0 0

GFSSW_con_mucape_015.txt.gz
CAPE
0 0 0 0 0 0 0 0 0 1 0 8 23 43 44 38 32 5 0 0 0 0 0 0 0 0 0 0 0 0 0 0 0 0 0 0 0 0 0 0 0 0 0 0 0
0 1 2 0 0 0 0 0 0 0 1 0 3 21 19 22 12 0 0 0 19 4 0 0 0 0 0 0 10 14 0 0 0 0 0 0 0 0 0 0 0 0 0 0 0
0 1 6 0 0 0 0 0 0 0 0 10 0 0 25 11 1 0 0 3 39 34 5 0 0 0 0 0 19 17 0 0 0 0 0 0 0 0 0 0 0 0 0 0 0
0 1 6 6 0 0 0 0 0 0 0 0 0 0 33 19 0 0 0 0 17 45 43 10 0 0 0 2 0 19 3 0 0 0 0 0 0 0 0 0 0 0 0 0 0
0 1 6 9 9 0 0 0 0 0 0 0 0 34 3 0 0 0 0 0 0 11 11 20 14 2 0 0 0 3 0 6 2 0 0 0 0 0 0 0 0 0 0 0 0
22 16 10 4 10 1 0 0 0 0 0 0 0 24 0 0 0 0 0 0 0 0 2 16 6 11 0 0 2 5 15 0 2 1 0 0 0 0 0 0 0 0 0 0 0
50 42 36 10 8 0 1 0 0 0 0 0 0 0 0 0 0 0 2 0 0 0 0 28 25 57 23 0 0 3 0 6 0 4 2 0 0 0 0 0 0 0 0 0 0
69 64 43 31 7 6 12 19 0 0 0 0 0 0 0 0 0 0 0 0 0 0 0 4 14 7 1 13 0 0 20 0 0 3 0 27 0 0 0 0 0 0 0 0 0
78 73 58 44 43 52 54 29 0 0 0 0 0 0 0 0 0 0 0 0 0 0 0 0 8 2 4 0 0 0 0 0 0 0 20 43 0 0 0 0 0 0 0 0 0
98 77 56 50 45 50 55 27 1 0 0 0 1 0 0 0 0 0 0 0 0 0 0 0 0 0 0 0 0 0 0 0 0 0 9 29 16 0 0 0 0 0 0 0 0
76 70 56 44 46 37 9 0 0 0 0 0 0 0 0 0 0 0 0 0 0 0 0 0 0 0 0 0 0 0 0 0 0 1 15 0 3 0 0 0 0 0 0 0 0
85 73 79 56 50 56 4 0 0 0 0 0 0 0 0 1 0 0 0 0 0 0 0 0 0 0 0 0 0 0 0 0 0 3 36 20 2 0 0 0 0 0 0 0 0
94 71 69 63 76 0 0 0 0 2 0 0 0 0 0 0 0 0 0 0 0 0 0 0 0 0 0 0 0 0 0 0 0 0 25 31 9 1 0 0 0 0 0 0 0
87 87 59 57 0 0 0 0 0 12 0 0 0 0 0 0 0 0 3 0 0 0 0 0 0 0 0 0 0 0 0 0 0 9 13 65 24 4 0 0 0 0 0 0 0
97 95 55 0 0 0 0 0 19 10 0 0 0 0 0 0 0 0 0 0 0 0 0 0 0 0 0 0 0 0 0 0 7 7 23 22 44 0 0 3 0 0 0 0 0
98 88 41 13 12 2 1 0 7 0 0 0 0 0 0 0 0 0 0 0 0 0 0 0 0 0 0 0 0 0 0 0 17 67 35 0 10 2 0 0 0 0 0 0 0
99 73 47 19 3 12 13 0 0 0 0 0 0 0 0 0 0 0 0 0 0 2 0 0 0 0 0 0 3 13 0 0 0 0 0 0 0 0 3 0 0 0 0 0 0
78 58 27 17 8 27 11 0 0 0 0 0 0 0 0 0 0 0 0 0 14 0 0 0 0 0 0 1 0 0 0 0 0 0 3 70 0 4 7 0 1 0 0 0 0
114 63 46 12 6 19 2 0 0 0 0 0 0 0 0 0 0 2 0 0 0 0 0 0 0 0 0 0 60 3 0 0 41 35 46 30 28 48 12 24 4 0 0 0 0
91 43 23 28 32 4 0 0 0 0 0 0 0 0 0 0 0 46 1 0 0 0 0 0 0 0 1 7 3 108 73 9 14 0 0 8 0 0 0 1 0 0 0 0 0
72 54 8 49 16 9 0 0 0 0 0 0 0 0 0 0 0 0 0 0 0 0 0 0 0 0 0 15 0 25 149 43 10 29 35 15 0 1 4 3 0 0 0 0 0
57 20 0 2 4 0 0 0 0 0 0 0 0 0 0 0 0 0 0 0 0 8 0 0 0 1 27 2 33 11 42 15 0 6 22 0 0 0 0 0 0 0 0 0 0
49 9 1 20 4 0 0 0 0 0 0 0 0 0 2 0 0 0 0 0 0 0 0 0 3 0 8 0 10 25 33 4 0 1 11 0 0 0 0 0 0 0 0 0 0
13 6 12 0 7 2 0 0 0 0 0 0 0 0 0 0 0 0 0 0 0 0 0 0 0 11 0 22 0 0 0 0 0 0 0 3 0 0 0 0 0 0 0 0 0
9 15 1 0 1 0 0 0 0 0 0 0 0 0 0 0 0 0 0 0 0 0 2 0 7 4 2 0 0 0 0 0 8 5 12 1 0 2 3 0 0 0 0 0 0
0 0 0 0 0 0 0 0 0 0 0 0 0 0 0 0 0 0 0 0 0 0 0 0 0 0 0 0 0 0 0 6 0 8 1 0 0 2 0 0 0 0 0 0 0
10 0 14 6 0 0 0 0 0 0 0 0 0 0 0 0 8 34 1 0 0 0 0 0 0 0 0 0 2 12 2 0 0 0 1 0 0 0 0 0 0 0 0 0 0

GFSSW_con_mucape_018.txt.gz
CAPE
0 0 2 2 2 0 0 0 0 0 2 0 2 8 30 56 40 10 0 0 0 0 0 0 0 0 0 0 0 0 0 0 0 0 0 0 0 0 0 0 0 0 0 0 0
0 0 4 4 4 0 0 0 0 0 0 0 0 14 30 12 16 4 0 26 38 8 0 0 0 0 0 0 0 0 0 0 0 0 0 0 0 0 0 0 0 0 0 0 0
2 0 4 12 6 0 0 0 0 0 0 0 0 4 24 12 2 0 0 22 64 54 0 0 0 0 0 0 0 0 2 0 0 0 0 0 0 0 0 0 0 0 0 0 0
22 2 2 6 10 0 0 0 0 0 0 0 0 0 0 0 0 0 0 0 18 48 34 2 0 0 0 0 0 0 0 0 6 0 0 0 0 0 0 0 0 0 0 0 0
32 16 6 4 14 2 0 0 0 0 0 0 0 0 0 0 0 0 0 0 0 30 36 16 0 0 0 0 0 0 0 0 0 4 0 0 0 0 0 0 0 0 0 0 0
64 28 26 10 10 8 0 0 0 0 0 0 0 0 0 0 0 0 0 0 0 18 52 34 0 0 0 0 0 0 0 0 0 0 2 0 0 0 0 0 0 0 0 0 0
98 80 60 32 4 12 0 0 0 0 0 0 0 0 0 0 0 0 0 0 0 14 2 14 8 26 0 0 0 0 0 0 0 0 0 4 0 0 0 0 0 0 0 0 0
118 94 84 58 18 20 14 24 26 4 0 0 0 0 0 0 0 0 0 0 0 10 4 20 4 6 0 4 0 0 0 0 0 0 0 2 0 0 0 0 0 0 0 0 0
126 102 80 68 64 60 62 48 20 14 0 0 0 0 0 0 0 0 0 0 0 0 4 12 12 0 0 0 0 0 0 0 0 0 0 0 0 0 0 0 0 0 0 0 0
110 120 104 76 66 68 72 48 26 2 0 0 0 0 0 0 0 0 0 0 0 0 0 0 0 0 0 0 0 0 0 0 0 0 0 0 0 0 0 0 0 0 0 0 0
104 90 94 80 70 72 34 0 0 0 0 0 0 0 0 0 0 0 0 0 0 0 0 0 0 0 0 0 0 0 0 0 0 0 0 0 0 0 0 0 0 0 0 0 0
98 96 80 94 78 72 0 0 0 0 0 0 0 0 0 0 0 0 0 0 0 0 0 0 0 0 0 0 0 0 0 0 0 0 10 0 0 0 0 0 0 0 0 0 0
102 94 94 104 78 32 0 0 0 0 0 0 0 0 0 0 0 0 0 0 0 0 0 0 0 0 0 0 0 0 0 0 0 0 0 0 0 0 0 0 0 0 0 0 0
90 104 110 82 14 0 0 0 0 0 0 0 0 0 0 0 0 0 0 0 0 0 0 0 0 0 0 0 0 0 0 0 0 0 0 24 0 0 0 0 0 0 0 0 0
80 140 104 40 12 0 0 0 4 0 0 0 0 0 0 0 0 0 0 0 0 0 0 0 0 0 0 0 0 0 0 0 0 0 0 0 0 0 0 0 0 0 0 0 0
98 138 74 38 20 0 0 0 0 0 0 0 0 0 0 0 0 0 0 0 0 0 0 0 0 0 0 0 0 0 0 0 0 0 0 0 0 0 0 0 0 0 0 0 0
56 130 44 6 4 24 6 0 0 0 0 0 0 0 0 0 0 0 0 0 0 0 0 0 0 0 0 0 0 0 0 0 0 0 0 0 0 0 0 0 0 0 0 12 0
14 66 70 4 8 10 16 0 0 0 0 0 0 0 0 0 0 0 0 0 0 6 14 0 0 0 0 0 0 0 0 0 0 0 0 2 0 0 0 0 0 0 0 6 0
4 44 56 36 10 2 4 0 0 0 0 0 0 0 0 0 0 0 0 0 0 0 0 0 0 0 0 0 26 0 0 0 0 2 20 2 46 8 4 0 8 0 0 0 0
8 40 20 22 18 6 0 0 0 0 0 0 0 0 0 0 0 0 0 0 0 0 0 0 0 0 0 0 4 12 4 0 0 0 0 14 12 0 0 0 0 2 34 22 0
8 52 36 16 20 8 0 0 0 0 0 0 0 0 0 0 0 0 0 0 0 0 0 0 0 0 0 0 0 2 4 20 0 0 156 0 0 18 18 16 32 40 68 18 0
6 0 14 18 14 0 0 0 0 0 0 0 0 0 0 0 0 0 0 0 0 0 0 0 0 0 0 0 0 0 0 0 6 0 0 20 16 0 4 16 16 14 24 6 0
8 0 4 16 0 0 0 0 0 0 0 0 0 0 0 0 0 0 0 0 0 0 0 0 0 0 24 0 0 8 0 18 22 6 0 0 0 12 2 10 2 10 2 0 0
0 0 10 12 0 0 0 0 0 0 0 0 0 0 0 0 0 0 0 0 0 0 0 0 0 8 4 4 0 30 2 10 2 0 4 0 0 0 6 14 0 0 0 0 0
0 0 0 0 2 0 0 0 0 0 0 0 0 0 0 0 0 0 0 0 0 0 0 0 0 0 0 2 10 22 0 30 4 0 8 16 14 0 0 0 0 0 0 0 0
2 0 0 0 0 0 0 0 0 0 0 0 0 0 0 0 0 0 0 0 0 0 0 0 0 16 10 0 4 4 0 0 0 0 0 16 12 0 0 0 0 0 0 0 0
0 0 0 0 0 0 0 0 0 0 0 0 0 0 0 0 0 0 0 0 0 0 0 0 0 0 0 0 0 0 0 0 0 0 0 40 2 4 0 0 0 0 0 0 0

GFSSW_con_mucape_021.txt.gz
CAPE
5 0 1 2 6 8 8 0 0 0 4 0 4 9 40 57 31 34 0 0 0 0 0 0 0 0 0 0 0 0 0 0 0 0 0 0 0 0 0 0 0 0 0 0 0
11 6 1 7 5 6 6 0 0 0 0 4 0 10 20 20 19 20 0 9 21 18 0 0 0 0 0 0 0 0 0 0 0 0 0 0 0 0 0 0 0 0 0 0 0
25 24 6 4 15 9 5 0 0 0 0 0 0 0 20 8 1 0 0 26 57 47 4 0 0 0 0 0 0 0 0 0 0 0 0 0 0 0 0 0 0 0 0 0 0
59 37 16 1 10 15 4 0 0 0 0 0 0 0 0 0 0 0 0 0 29 34 5 0 0 0 0 0 0 0 0 0 0 0 0 0 0 0 0 0 0 0 0 0 0
135 64 31 12 7 27 9 0 0 0 0 0 0 0 0 0 0 0 0 0 1 31 22 25 0 0 0 0 0 0 0 0 0 0 0 0 0 0 0 0 0 0 0 0 0
112 90 70 38 21 35 20 7 0 0 0 0 0 0 0 0 0 0 0 0 1 48 38 34 0 0 0 0 0 0 0 0 0 0 0 0 0 0 0 0 0 0 0 0 0
149 116 90 72 30 19 30 21 14 1 1 0 0 0 0 0 0 0 0 0 0 5 2 48 55 0 0 0 0 0 0 0 0 0 0 0 0 0 0 0 0 0 0 0 0
93 112 79 81 61 28 30 33 50 25 11 0 0 0 0 0 0 0 0 0 0 0 0 0 36 0 0 0 0 0 0 0 0 0 0 0 0 0 0 0 0 0 0 0 0
119 115 151 96 74 61 67 65 51 33 29 30 0 0 0 0 0 0 0 0 0 0 0 3 0 0 0 0 0 0 0 0 0 0 0 0 0 0 0 0 0 0 0 0 0
116 102 92 93 81 76 90 70 52 19 7 24 3 0 0 0 0 0 0 0 0 0 0 0 0 0 0 0 0 0 0 0 0 0 0 0 0 0 0 0 0 0 0 0 0
19 99 97 107 91 92 48 33 0 0 0 0 0 0 0 0 0 0 0 0 0 0 0 0 0 0 0 0 0 0 0 0 0 0 0 0 0 0 0 0 0 0 0 0 0
17 93 95 117 118 108 3 0 0 0 0 0 0 0 0 0 0 0 0 0 0 0 0 0 0 0 0 0 0 0 0 0 0 0 0 0 0 0 0 0 0 0 0 0 0
60 31 79 123 119 37 7 0 0 0 0 0 0 0 0 0 0 0 0 0 0 0 0 0 0 0 0 0 0 0 0 0 0 0 0 0 0 0 0 0 0 0 0 0 0
26 1 87 129 68 46 9 0 0 2 0 0 0 0 0 0 0 0 0 0 0 0 0 0 0 0 0 0 0 0 0 0 0 0 0 0 0 0 0 0 0 0 0 0 0
8 1 66 58 17 22 1 0 14 0 0 0 0 0 0 0 0 0 0 0 0 0 0 0 0 0 0 0 0 0 0 0 0 0 0 0 0 0 0 0 0 0 0 0 0
0 2 30 39 36 26 8 0 16 0 0 0 0 0 0 0 0 0 0 0 0 0 0 0 0 0 0 0 0 0 0 0 0 0 0 0 0 0 0 0 0 0 0 0 0
15 0 11 2 11 5 1 0 0 0 0 0 0 0 0 0 0 0 0 0 0 0 0 0 0 0 0 0 0 0 0 0 0 0 0 0 0 0 0 0 0 0 0 0 0
36 0 0 0 12 4 9 0 0 0 0 0 0 0 0 0 0 0 0 0 0 0 0 0 0 0 0 0 0 0 0 0 0 0 0 0 0 0 0 0 0 0 0 0 0
47 1 0 3 10 10 5 0 0 0 0 0 0 0 0 0 0 0 0 0 0 0 0 0 0 0 0 0 0 0 0 0 0 0 0 0 0 0 0 0 0 0 0 0 0
1 2 0 29 9 2 1 0 0 0 0 0 0 0 0 0 0 0 0 0 0 0 0 0 0 0 0 0 0 1 0 0 0 0 0 0 0 0 0 0 0 0 0 0 0
6 0 0 47 2 14 0 0 0 0 0 0 0 0 0 0 0 0 0 0 0 0 0 0 0 0 0 0 0 0 0 0 0 0 0 0 0 2 0 0 0 0 0 0 3
0 5 0 7 0 0 0 0 0 0 0 0 0 0 0 0 0 0 0 0 0 0 0 0 0 0 0 0 0 0 0 0 0 0 0 0 0 81 14 0 62 35 25 24 29
0 4 0 0 0 0 0 0 0 0 0 0 0 0 0 0 0 0 0 0 0 0 0 0 0 0 0 0 0 0 0 0 0 21 0 0 0 6 55 14 2 0 96 127 53
0 0 0 0 1 0 0 0 0 0 0 0 0 0 0 0 0 0 0 0 0 0 0 0 0 0 1 0 0 0 0 0 0 0 0 0 0 2 14 15 0 0 32 20 17
0 0 0 0 0 0 0 0 0 0 0 0 0 0 0 0 0 0 0 0 0 0 0 0 0 0 8 0 0 0 0 0 0 0 0 0 0 0 0 24 30 2 0 0 0
0 0 0 0 0 0 0 0 0 0 0 0 0 0 0 0 0 0 0 0 0 0 0 0 0 0 6 2 0 0 0 0 0 0 0 0 0 0 14 13 0 0 0 0 0
1 0 0 0 0 0 0 0 0 0 0 0 0 0 0 0 1 0 0 0 0 0 0 0 0 1 0 0 0 0 0 0 0 0 0 3 0 0 0 0 0 0 0 0 0

GFSSW_con_mucape_024.txt.gz
CAPE
27 9 1 0 2 8 2 2 4 1 0 20 4 5 26 73 65 35 0 0 0 0 0 0 0 0 0 0 0 0 0 0 0 0 0 0 0 0 0 0 0 0 0 0 0
63 15 13 6 0 6 8 4 3 2 0 0 0 8 16 32 49 21 1 14 3 6 0 0 0 0 0 0 0 0 0 0 0 0 0 0 0 0 0 0 0 0 0 0 0
92 42 27 18 2 3 9 6 2 0 0 0 3 0 7 4 4 0 2 34 58 55 11 0 0 0 0 0 0 0 0 0 0 0 0 0 0 0 0 0 0 0 0 0 0
75 84 51 26 13 5 7 5 3 0 0 0 0 0 0 0 0 0 0 0 29 57 37 0 0 0 0 0 0 0 0 0 0 0 0 0 0 0 0 0 0 0 0 0 0
92 115 100 55 23 4 14 5 6 0 0 0 0 0 0 0 0 0 0 0 0 40 21 7 0 0 0 0 0 0 0 0 0 0 0 0 0 0 0 0 0 0 0 0 0
87 132 126 99 63 30 30 9 9 4 0 0 0 0 0 0 0 0 0 0 11 11 29 34 0 0 0 0 0 0 0 0 0 0 0 0 0 0 0 0 0 0 0 0 0
14 118 130 107 78 37 28 30 19 0 1 4 0 0 0 0 0 0 0 0 8 41 37 43 34 0 0 0 0 0 0 0 0 0 0 0 0 0 0 0 0 0 0 0 0
8 28 113 129 119 78 33 51 39 34 2 6 26 0 0 0 0 0 0 0 0 0 0 0 49 0 0 0 0 0 0 0 0 0 0 0 0 0 0 0 0 0 0 0 0
4 5 84 134 121 114 95 81 73 68 41 32 10 0 0 0 0 0 0 0 0 0 0 0 0 0 0 0 0 0 0 0 0 0 0 0 0 0 0 0 0 0 0 0 0
0 6 2 92 133 106 117 76 64 32 8 11 15 0 0 0 0 0 0 0 0 0 0 0 0 0 0 0 0 0 0 0 0 0 0 0 0 0 0 0 0 0 0 0 0
36 6 0 75 121 123 72 9 12 0 0 0 0 0 0 0 0 0 0 0 0 0 0 0 0 0 0 0 0 0 0 0 0 0 0 0 0 0 0 0 0 0 0 0 0
58 33 12 15 114 136 39 5 2 0 0 0 0 0 0 0 0 0 0 0 0 0 0 0 0 0 0 0 0 0 0 0 0 0 0 0 0 0 0 0 0 0 0 0 0
74 61 44 3 78 55 6 1 4 0 0 0 0 0 0 0 0 0 0 0 0 0 0 0 0 0 0 0 0 0 0 0 0 0 0 0 0 0 0 0 0 0 0 0 0
77 29 6 18 16 25 33 14 17 1 0 0 0 0 0 0 0 0 0 0 0 0 0 0 0 0 0 0 0 0 0 0 0 0 0 0 0 0 0 0 0 0 0 0 0
101 36 5 17 0 14 0 3 14 0 0 0 0 4 0 0 0 0 0 0 0 0 0 0 0 0 0 0 0 0 0 0 0 0 0 0 0 0 0 0 0 0 0 0 0
54 6 3 53 1 4 1 0 10 0 0 0 0 0 0 0 0 0 0 0 0 0 0 0 0 0 0 0 0 0 0 0 0 0 0 0 0 0 0 0 0 0 0 0 0
54 62 42 0 0 4 17 7 0 0 0 0 0 0 0 0 0 0 0 0 0 0 0 0 0 0 0 0 0 0 0 0 0 0 0 0 0 0 0 0 0 0 0 0 0
118 70 31 0 0 9 11 0 0 0 0 0 0 0 0 0 0 0 0 0 0 0 0 0 0 0 0 0 0 0 0 0 0 0 0 0 0 0 0 0 0 0 0 0 0
114 55 35 0 18 0 0 0 0 0 0 0 0 0 0 0 0 0 0 0 0 0 0 0 0 0 0 0 0 0 0 0 0 0 0 0 0 0 0 0 0 0 0 0 0
44 35 9 0 45 0 0 0 0 0 0 0 0 0 0 0 0 0 0 0 0 0 0 0 0 0 0 0 0 0 0 0 0 0 0 0 0 0 0 0 0 0 0 0 0
9 6 36 61 0 0 0 0 0 0 0 0 0 0 0 0 0 0 0 0 0 0 0 0 0 0 0 0 0 0 0 20 5 0 0 0 0 0 4 9 0 0 0 0 0
3 20 99 10 0 0 0 0 0 0 0 0 0 0 0 0 0 0 0 0 0 0 0 0 0 0 0 0 0 0 0 0 0 0 0 0 0 56 23 83 23 19 0 0 0
44 4 72 3 0 0 0 0 0 0 0 0 0 0 0 0 0 0 0 0 0 0 0 0 0 0 0 0 0 0 0 0 0 0 0 0 0 0 2 56 130 107 1 0 0
0 0 0 0 0 0 0 0 0 0 0 0 0 0 0 0 0 0 0 0 0 0 0 0 0 0 0 0 0 0 0 1 2 0 3 0 0 0 0 17 64 116 86 61 14
0 0 0 0 0 0 0 0 0 0 0 0 0 0 0 0 0 0 0 0 0 0 0 0 0 0 0 0 2 10 1 0 0 0 0 0 0 0 0 30 51 41 88 41 48
0 0 0 0 0 0 0 0 0 0 0 0 0 0 0 0 0 0 0 0 0 0 0 0 0 0 0 0 0 0 0 0 0 0 0 0 0 0 0 0 0 27 79 40 5
1 10 0 0 0 0 0 0 0 0 0 0 0 0 0 0 0 0 0 0 0 0 0 0 0 0 0 0 1 0 2 0 0 0 0 0 0 0 0 0 0 0 0 0 0

GFSSW_con_mucape_027.txt.gz
CAPE
92 91 27 7 0 0 2 5 10 8 4 1 1 4 32 58 64 16 0 0 0 1 0 0 0 0 0 0 0 0 0 0 0 0 0 0 0 0 0 0 0 0 0 0 0
100 104 78 27 6 0 1 5 4 6 4 1 0 4 12 34 48 33 0 15 40 38 0 0 0 0 0 0 0 0 0 0 0 0 0 0 0 0 0 0 0 0 0 0 0
132 98 112 79 31 6 0 7 1 0 2 0 0 0 0 12 2 0 0 59 109 62 41 0 0 0 0 0 0 0 0 0 0 0 0 0 0 0 0 0 0 0 0 0 0
62 130 126 122 84 19 6 3 1 0 0 0 0 0 0 0 0 0 0 0 10 60 29 10 0 0 0 0 0 0 0 0 0 0 0 0 0 0 0 0 0 0 0 0 0
7 21 109 123 123 42 7 3 0 0 0 0 0 6 0 0 0 0 0 0 5 36 15 5 0 0 0 0 0 0 0 0 0 0 0 0 0 0 0 0 0 0 0 0 0
0 12 28 96 132 111 49 19 0 0 1 0 0 0 0 0 0 0 0 0 0 26 25 17 14 1 0 0 0 0 0 0 0 0 0 0 0 0 0 0 0 0 0 0 0
27 23 5 13 96 137 56 42 9 0 0 0 10 0 0 0 0 0 0 0 39 19 21 36 12 0 0 0 0 0 0 0 0 0 0 0 0 0 0 0 0 0 0 0 0
38 15 10 1 51 129 100 66 46 38 26 12 27 0 0 0 0 0 0 0 11 39 11 25 30 0 0 0 0 0 0 0 0 0 0 0 0 0 0 0 0 0 0 0 0
72 36 16 6 13 93 119 112 88 59 54 52 0 0 0 0 0 0 0 0 0 7 0 5 11 0 0 0 0 0 0 0 0 0 0 0 0 0 0 0 0 0 0 0 0
69 61 22 26 0 76 131 128 70 52 28 41 18 0 0 0 0 0 0 0 0 0 0 0 0 0 0 0 0 0 0 0 0 0 0 0 0 0 0 0 0 0 0 0 0
89 60 48 51 0 55 85 26 0 15 25 0 0 0 0 0 0 0 0 0 0 0 0 0 0 0 0 0 0 0 0 0 0 0 0 0 0 0 0 0 0 0 0 0 0
106 77 69 39 27 25 19 0 0 0 0 0 0 0 0 0 0 0 0 0 0 0 0 0 0 0 0 0 0 0 0 0 0 0 0 0 0 0 0 0 0 0 0 0 0
103 114 71 37 7 0 12 0 10 5 0 0 0 0 0 0 0 0 0 0 0 0 0 0 0 0 0 0 0 0 0 0 0 0 0 0 0 0 0 0 0 0 0 0 0
108 118 89 50 11 0 12 19 1 2 0 0 0 0 0 0 0 0 0 0 0 0 0 0 0 0 0 0 0 0 0 0 0 0 0 0 0 0 0 0 0 0 0 0 0
106 97 73 55 4 0 0 0 0 8 0 0 0 2 0 0 0 0 0 0 0 0 0 0 0 0 0 0 0 0 0 0 0 0 0 0 0 0 0 0 0 0 0 0 0
49 32 29 26 5 4 0 0 0 0 0 0 0 0 0 0 0 0 0 0 0 0 0 0 0 0 0 0 0 0 0 0 0 0 0 0 0 0 0 0 0 0 0 0 0
100 169 16 24 0 3 1 0 0 0 0 0 0 0 0 0 0 0 0 0 0 0 0 0 0 0 0 0 0 0 0 0 0 0 0 0 0 0 0 0 0 0 0 0 0
118 132 48 2 3 16 0 0 0 0 0 0 0 0 0 0 0 0 0 0 0 0 0 0 0 0 0 0 0 0 0 0 0 0 0 0 0 0 0 0 0 0 0 0 0
139 102 79 21 7 19 0 0 0 0 0 0 0 0 0 0 0 0 0 0 0 0 0 0 0 0 0 0 0 0 0 0 0 0 0 0 0 0 0 0 0 0 0 0 0
50 52 48 18 4 0 0 0 0 0 0 0 0 0 0 0 0 0 0 0 0 0 0 0 0 0 0 0 0 0 0 0 0 0 0 0 0 0 0 0 0 0 0 0 0
7 15 32 48 1 0 0 0 0 0 0 0 0 0 0 0 0 0 0 0 0 0 0 0 0 0 0 0 0 0 0 0 0 0 0 0 0 0 0 8 1 0 0 0 0
8 15 40 87 0 0 0 0 0 0 0 0 0 0 0 0 0 0 0 0 0 0 0 0 0 0 0 0 0 0 0 0 0 0 0 0 0 0 50 41 10 5 0 0 0
4 25 1 1 0 0 0 0 0 0 0 0 0 0 0 0 0 0 0 0 0 0 0 0 0 0 0 0 0 0 0 0 0 0 0 0 0 0 0 0 0 0 1 9 0
1 4 3 0 0 0 0 0 0 0 0 0 0 0 0 0 0 0 0 0 0 0 0 0 0 0 0 0 0 3 0 0 0 0 0 0 0 0 0 0 0 3 2 64 3
4 0 0 0 0 0 0 0 0 0 0 0 1 0 0 0 0 0 0 0 0 0 0 0 0 0 0 0 0 5 1 0 0 0 0 0 0 0 0 0 3 0 36 92 45
0 0 0 0 0 0 0 0 0 0 0 0 0 0 0 0 0 0 0 0 0 0 0 0 0 0 0 0 0 0 0 0 0 0 0 0 0 0 0 0 0 1 25 107 103
7 10 0 0 0 0 0 0 0 0 1 0 0 0 0 0 0 0 0 0 0 0 0 0 0 0 0 0 0 0 0 0 0 0 0 0 0 0 0 0 5 5 6 69 60

GFSSW_con_mucape_030.txt.gz
CAPE
107 115 108 82 16 2 0 0 4 4 8 6 1 13 28 27 62 38 30 3 3 0 0 0 0 0 0 0 0 0 0 0 0 0 0 0 0 0 0 0 0 0 0 0 0
11 79 108 95 69 12 0 0 0 1 2 1 6 9 2 5 54 45 3 35 48 26 0 0 0 0 0 0 0 0 0 0 0 0 0 0 0 0 0 0 0 0 0 0 0
12 16 81 102 101 51 5 0 0 0 0 0 7 3 0 0 7 3 6 108 104 76 1 0 0 0 0 0 0 0 0 0 0 0 0 0 0 0 0 0 0 0 0 0 0
0 1 2 38 105 108 29 1 0 0 0 0 4 0 0 0 0 0 0 0 54 65 32 0 0 0 0 0 0 0 0 0 0 0 0 0 0 0 0 0 0 0 0 0 0
16 10 0 13 38 98 111 20 0 0 0 0 0 0 0 0 0 0 0 0 0 60 35 0 1 4 0 0 0 0 0 0 0 0 0 0 0 0 0 0 0 0 0 0 0
31 34 5 3 7 55 118 65 12 2 0 0 0 0 0 0 0 0 0 0 15 39 62 15 6 3 0 0 0 0 0 0 0 0 0 0 0 0 0 0 0 0 0 0 0
31 54 43 1 1 8 98 65 35 4 0 0 0 0 0 0 0 0 0 0 10 59 48 29 8 16 0 0 0 0 0 0 0 0 0 0 0 0 0 0 0 0 0 0 0
37 53 54 24 11 4 42 124 114 69 9 0 17 0 0 0 0 0 0 2 22 36 50 53 24 30 7 0 0 0 0 0 0 0 0 0 0 0 0 0 0 0 0 0 0
37 56 59 40 4 5 2 98 107 72 43 24 1 0 0 0 0 0 0 0 21 28 27 60 48 2 2 0 0 0 0 0 0 0 0 0 0 0 0 0 0 0 0 0 0
72 77 67 61 38 12 16 85 83 20 56 51 7 0 0 0 0 0 0 0 4 0 0 0 0 0 0 0 0 0 0 0 0 0 0 0 0 0 0 0 0 0 0 0 0
90 128 108 66 52 11 46 59 0 0 0 0 0 0 0 0 0 0 0 0 0 0 0 0 0 0 0 0 0 0 0 0 0 0 0 0 0 0 0 0 0 0 0 0 0
149 166 144 96 66 1 15 1 0 0 0 0 0 0 0 0 0 0 0 0 0 0 0 0 0 0 0 0 0 0 0 0 0 0 0 0 0 0 0 0 0 0 0 0 0
157 161 144 83 77 17 16 0 0 2 0 0 0 0 0 0 0 0 0 0 0 0 0 0 0 0 0 0 0 0 0 0 0 0 0 0 0 0 0 0 0 0 0 0 0
77 126 133 98 74 9 13 0 0 0 0 0 0 0 0 11 0 0 0 0 0 0 0 0 0 0 0 0 0 0 0 0 0 0 0 0 0 0 0 0 0 0 0 0 0
89 105 93 56 59 6 0 44 0 1 0 0 0 6 0 0 0 0 0 0 0 0 0 0 0 0 0 0 0 0 0 0 0 0 0 0 0 0 0 0 0 0 0 0 0
78 121 130 55 64 0 8 0 0 0 0 0 0 0 0 0 0 0 0 0 0 0 0 0 0 0 0 0 0 0 0 0 0 0 0 0 0 0 0 0 0 0 0 0 0
83 132 70 93 35 97 78 0 0 0 0 0 0 0 0 0 0 0 0 0 0 0 0 0 0 0 0 0 0 0 0 0 0 0 0 0 0 0 0 0 0 0 0 0 0
229 182 139 46 113 71 64 0 0 0 0 0 0 0 0 0 0 0 0 0 0 0 0 0 0 0 0 0 0 0 0 0 0 0 0 0 0 0 0 0 0 0 0 0 0
34 137 134 93 46 1 0 0 0 0 0 0 0 0 0 0 0 0 0 0 0 0 0 0 0 0 0 0 0 0 0 0 0 0 0 0 0 0 0 0 0 0 0 0 0
18 99 112 124 48 4 0 0 0 0 0 0 0 0 0 0 0 0 0 0 0 0 0 0 0 0 0 0 0 0 0 0 0 0 0 0 0 0 0 0 8 0 7 12 0
11 0 101 123 17 6 0 1 0 0 0 0 0 0 0 0 0 0 0 0 0 0 0 0 0 0 0 0 0 0 0 0 0 0 0 0 0 0 0 0 0 0 10 12 0
13 3 67 24 0 0 0 0 0 0 0 0 0 0 0 0 0 0 0 0 0 0 0 0 0 0 0 0 0 0 0 0 0 0 0 0 0 0 0 25 41 0 1 19 5
14 73 68 37 0 0 0 0 0 0 0 0 0 0 0 0 0 0 0 0 0 0 0 0 0 0 0 0 0 0 0 0 0 0 0 1 0 0 4 46 0 0 2 4 13
6 7 1 1 4 0 0 0 0 0 0 0 0 0 0 0 0 0 0 0 0 0 0 0 0 0 0 0 0 0 0 0 0 0 0 0 0 0 0 0 0 0 0 0 9
23 0 0 0 0 0 0 0 0 0 0 0 0 0 0 0 0 0 0 0 0 0 0 0 0 0 0 0 0 0 0 0 0 0 0 0 0 0 10 4 1 0 0 0 0
9 0 0 0 0 0 0 0 0 0 0 0 0 0 0 0 0 0 0 0 0 0 0 0 0 0 0 0 0 0 0 0 0 0 0 0 0 0 0 0 0 8 0 7 2
0 0 4 0 0 0 0 0 0 0 0 0 0 0 0 0 0 0 0 0 0 0 0 0 0 0 0 0 0 0 0 0 0 0 0 0 0 0 0 0 0 0 0 3 35

GFSSW_con_mucape_033.txt.gz
CAPE
0 7 56 76 80 63 5 0 0 1 0 1 2 0 19 33 55 51 21 12 15 3 0 1 0 0 0 0 0 0 4 0 0 0 0 0 0 0 0 0 0 0 0 0 0
4 6 2 34 80 82 42 9 1 1 0 0 2 1 2 8 58 42 8 11 12 11 0 2 0 0 0 0 0 7 0 0 0 0 0 0 0 0 0 0 0 0 0 0 0
19 9 4 0 17 61 101 31 1 3 0 0 0 1 0 0 43 13 30 51 68 52 13 14 10 0 0 0 0 0 0 0 0 0 0 0 0 0 0 0 0 0 0 0 0
17 21 20 1 2 0 82 111 9 5 3 0 0 0 0 4 14 22 0 33 83 78 34 12 9 2 0 0 0 0 0 0 0 0 0 0 0 0 0 0 0 0 0 0 0
11 14 13 21 0 0 14 89 27 10 4 0 0 0 0 7 2 0 0 0 0 75 58 14 17 9 1 0 0 0 0 0 0 0 0 0 0 0 0 0 0 0 0 0 0
18 12 21 39 24 0 6 37 105 10 8 0 0 0 0 0 0 0 0 0 4 40 39 23 25 18 22 10 0 1 0 0 0 0 0 0 0 0 0 0 0 0 0 0 0
23 27 14 37 36 18 8 3 113 60 28 4 0 0 0 0 0 0 0 0 12 13 52 22 13 5 19 8 7 1 0 0 0 0 0 0 0 0 0 0 0 0 0 0 0
37 31 40 33 47 40 5 2 48 95 7 2 0 1 0 0 0 0 0 0 0 62 52 50 17 22 23 14 2 0 0 0 0 0 0 0 0 0 0 0 0 0 0 0 0
59 46 42 61 59 53 11 6 0 105 29 34 20 7 5 0 0 0 0 3 6 7 46 43 33 31 38 24 0 0 0 0 0 0 0 0 0 0 0 0 0 0 0 0 0
86 86 70 76 79 59 43 1 8 92 53 13 13 4 0 0 0 0 0 19 0 10 32 23 5 1 0 7 0 0 0 0 0 0 0 0 0 0 0 0 0 0 0 0 0
114 105 138 123 123 66 56 12 37 7 0 0 0 0 0 0 0 0 0 0 0 0 0 0 0 0 0 12 6 0 0 0 0 0 0 0 0 0 0 0 0 0 0 0 0
105 92 150 175 151 91 78 9 0 0 2 0 0 3 0 0 0 0 0 6 10 0 0 0 0 0 0 0 0 0 0 0 0 0 0 0 0 0 0 0 0 0 0 0 0
71 31 87 156 143 73 73 7 0 0 0 0 0 2 0 0 5 0 1 7 3 0 0 0 0 0 0 0 0 0 0 0 0 0 0 0 0 0 0 0 0 0 0 0 0
32 58 112 89 79 55 72 6 1 0 2 0 0 1 2 1 3 8 0 3 0 0 0 0 0 0 0 0 0 0 0 0 0 0 0 0 0 0 0 0 0 0 0 0 0
67 90 62 63 57 66 63 48 0 0 7 0 0 4 10 0 2 8 3 0 0 0 0 0 0 0 0 0 0 0 0 0 0 0 0 0 0 0 0 0 0 0 0 0 0
69 91 116 79 87 50 74 69 0 4 3 0 0 0 0 0 2 12 0 16 4 0 0 0 0 0 0 0 0 0 0 0 0 0 0 0 0 0 0 0 0 0 0 0 0
87 25 213 58 42 72 77 62 0 7 0 0 0 0 0 0 0 0 0 0 0 0 0 0 0 0 0 0 0 0 0 0 0 0 0 0 0 0 0 0 0 0 0 0 0
48 36 171 81 73 140 44 10 0 0 0 0 0 0 0 0 0 0 0 0 0 0 0 0 0 0 0 0 0 0 0 0 0 0 0 0 0 0 0 0 0 0 0 0 0
50 65 135 157 111 31 34 0 61 0 0 0 0 0 0 0 0 0 0 0 0 0 0 0 0 0 0 0 0 0 0 0 0 0 0 0 0 0 0 0 0 0 0 0 0
0 19 90 93 74 26 24 0 0 0 0 0 0 0 0 0 0 0 0 0 0 0 0 0 0 0 0 0 0 0 0 0 0 0 0 0 0 0 0 4 3 0 4 13 0
0 52 117 35 31 2 0 0 0 0 0 0 0 0 0 0 0 0 0 0 0 0 0 0 0 0 0 0 0 0 0 0 0 0 0 0 0 0 0 0 0 47 33 31 13
0 0 84 45 2 2 0 0 0 0 0 0 0 0 0 0 0 0 0 0 0 0 0 0 0 0 0 0 0 0 0 0 0 0 0 0 0 0 0 2 45 51 48 17 0
31 22 87 54 0 26 0 0 0 0 0 0 0 0 0 0 0 0 0 0 0 0 0 0 0 0 0 0 0 0 0 0 0 0 0 0 0 0 0 0 5 68 20 2 0
52 17 5 0 23 15 0 0 0 1 0 0 0 0 0 0 0 0 0 0 0 0 0 0 0 0 0 0 0 0 0 0 0 0 0 0 0 0 12 19 3 3 14 12 10
114 4 4 0 35 8 0 0 0 0 1 1 0 1 0 0 0 0 0 0 0 0 0 0 0 0 0 0 0 0 0 0 0 0 0 0 0 0 5 9 7 13 11 1 0
1 0 0 0 0 16 0 0 0 0 7 8 6 0 0 3 0 0 0 0 0 0 0 0 0 0 0 0 0 0 0 0 0 0 0 0 0 0 1 0 0 0 5 6 5
0 0 0 0 0 0 0 0 1 0 3 0 2 2 0 0 0 0 0 0 0 0 0 0 0 0 0 0 0 0 0 0 0 0 0 0 0 0 0 0 2 0 0 4 15

GFSSW_con_mucape_036.txt.gz
CAPE
9 0 0 0 0 36 90 73 2 1 4 6 2 2 0 0 11 41 11 0 10 28 0 0 0 0 0 0 0 0 0 0 0 0 0 0 0 0 0 0 0 0 0 0 368
12 7 2 0 0 3 24 94 43 2 3 7 2 0 0 4 6 10 0 30 39 26 0 0 0 0 0 0 0 0 0 0 0 0 0 0 0 0 0 0 0 0 0 0 8
18 15 8 10 0 0 10 26 97 35 1 3 1 0 0 2 16 0 1 35 63 47 0 0 0 0 0 0 0 0 0 0 0 0 0 0 0 0 0 0 0 0 0 0 0
32 25 17 18 14 0 0 0 38 108 7 2 0 0 0 1 0 2 127 95 94 69 32 24 1 2 1 0 0 0 0 0 0 0 0 0 0 0 0 0 0 0 0 0 0
42 42 29 19 24 16 22 0 0 104 18 9 0 0 0 5 0 4 0 18 27 79 55 35 0 0 0 0 0 0 0 0 0 0 0 0 0 0 0 0 0 0 0 0 0
67 47 42 32 32 43 38 24 1 33 89 2 0 0 0 0 0 0 0 0 0 11 61 57 13 11 12 1 1 1 0 0 0 0 0 0 0 0 0 0 0 0 0 0 0
79 62 44 39 37 43 52 46 1 8 124 7 0 0 3 0 0 0 0 0 17 9 74 51 20 20 15 9 4 1 0 0 0 0 0 0 0 0 0 0 0 0 0 0 0
136 121 61 50 46 51 61 60 17 49 90 72 43 1 7 0 0 0 0 0 0 28 43 78 42 16 22 10 3 0 0 0 0 0 0 0 0 0 0 0 0 0 0 0 0
129 145 127 94 69 60 69 66 29 44 34 75 0 0 0 0 0 0 0 0 0 56 49 100 51 8 15 6 7 1 0 0 0 0 0 0 0 0 0 0 0 0 0 0 0
150 158 161 128 113 104 92 78 27 24 15 0 1 0 0 0 0 0 0 2 2 2 67 63 25 7 17 14 0 0 0 0 0 0 0 0 0 0 0 0 0 0 0 0 0
161 165 144 88 152 130 107 79 104 74 22 0 0 0 0 0 0 0 0 5 8 16 22 42 22 10 0 0 0 1 0 0 0 0 0 0 0 0 0 0 0 0 0 0 0
147 105 44 76 112 154 134 31 51 2 1 0 0 0 0 0 0 0 0 8 12 18 6 0 0 0 0 8 3 0 0 0 0 0 0 0 0 0 0 0 0 0 0 0 0
63 36 76 85 62 25 110 21 29 3 0 0 0 0 0 0 0 0 0 1 4 4 0 0 0 0 0 0 0 0 0 0 0 0 0 0 0 0 0 0 0 0 0 0 0
39 65 77 71 32 41 74 81 15 1 0 0 0 0 1 7 1 0 0 4 9 0 7 0 0 0 0 0 0 0 0 0 0 0 0 0 0 0 0 0 0 0 0 0 0
59 86 113 143 0 0 76 98 39 0 0 0 0 0 0 0 0 2 0 11 0 0 0 0 0 0 0 0 0 0 0 0 0 0 0 0 0 0 0 0 0 0 0 0 0
51 68 90 36 71 3 18 79 17 0 0 0 0 0 0 0 11 0 6 6 3 0 0 0 0 0 0 0 0 0 0 0 0 0 0 0 0 0 0 0 0 0 0 0 0
28 60 39 154 27 18 86 20 0 0 0 0 0 0 0 0 3 0 0 0 0 0 0 0 0 0 0 0 0 0 0 0 0 0 0 0 0 0 0 0 0 0 0 0 0
58 56 112 41 132 90 26 0 0 0 0 0 0 0 0 0 0 0 0 0 0 0 0 0 0 0 0 0 0 0 0 0 0 0 0 0 0 0 0 0 0 0 0 0 0
45 21 135 106 116 70 26 0 0 1 0 0 0 0 0 0 0 0 0 0 0 0 0 0 0 0 0 0 0 0 0 0 0 0 0 0 0 0 0 0 0 0 0 0 0
47 14 93 73 96 38 12 0 0 0 0 0 0 0 0 0 0 0 0 0 0 0 0 0 0 0 0 0 0 0 0 0 0 0 0 0 0 0 0 0 0 0 0 0 1
0 47 75 85 68 18 0 0 0 0 0 0 0 0 0 0 0 0 0 0 0 0 0 0 0 0 0 0 0 0 0 0 0 0 0 0 0 0 0 0 0 0 0 0 8
0 16 43 75 2 22 0 0 0 0 4 10 0 0 0 0 0 0 0 0 0 0 0 0 0 0 0 0 0 0 0 0 0 0 0 0 0 0 0 0 0 0 7 1 0
22 52 63 0 0 0 0 0 0 0 0 0 0 0 0 0 0 0 0 0 0 0 0 0 0 0 0 0 0 0 0 0 0 0 0 0 0 0 0 0 0 0 0 0 9
73 0 12 0 0 0 0 0 0 0 2 2 0 2 0 0 0 0 0 0 0 0 0 0 0 0 0 0 0 0 0 0 0 0 0 0 0 0 0 0 0 0 0 0 11
78 0 1 0 0 0 0 0 0 0 0 4 4 10 4 0 0 0 0 0 0 0 0 0 0 0 0 0 0 0 0 0 0 0 0 0 0 0 0 0 0 0 5 1 5
0 0 0 0 0 0 0 0 0 0 0 1 0 0 0 0 0 0 0 0 0 0 0 0 0 0 0 0 0 0 0 0 0 0 0 0 0 0 0 0 0 0 0 1 0
0 0 1 0 0 0 0 0 0 8 1 2 0 1 0 0 0 0 0 0 0 0 0 0 0 0 0 0 0 0 0 0 0 0 0 0 0 0 0 0 0 0 0 0 3

GFSSW_con_mucape_039.txt.gz
CAPE
17 16 15 3 0 1 0 14 50 51 2 0 2 3 3 0 6 19 9 0 0 26 0 0 0 0 0 0 0 0 0 0 0 0 0 0 0 0 0 0 0 0 2 247 384
20 27 18 17 17 0 1 0 11 62 52 3 2 1 1 7 2 3 0 0 20 49 3 0 0 0 0 0 0 0 0 0 0 0 0 0 0 0 0 0 0 0 0 388 433
32 35 35 28 18 25 0 0 0 2 86 19 5 0 0 9 10 0 0 0 32 39 0 0 0 0 0 0 0 0 0 0 0 0 0 0 0 0 0 0 0 0 0 1 310
61 50 50 36 34 28 24 0 0 0 52 82 10 0 0 1 0 4 98 40 75 46 5 3 9 3 0 0 0 0 0 0 0 0 0 0 0 0 0 0 0 0 0 0 0
61 69 52 66 38 44 33 15 0 1 25 104 9 3 4 4 0 2 116 202 74 69 38 11 6 1 3 0 0 0 0 0 0 0 0 0 0 0 0 0 0 0 0 0 0
103 84 90 71 68 45 42 45 33 27 0 56 22 24 3 0 0 0 0 50 61 65 42 46 7 0 0 0 0 0 0 0 0 0 0 0 0 0 0 0 0 0 0 0 0
107 101 131 98 70 60 48 44 54 45 6 35 25 0 0 0 0 0 0 0 0 0 43 45 43 3 6 0 2 0 0 0 0 0 0 0 0 0 0 0 0 0 0 0 0
122 147 190 155 121 98 70 51 57 32 15 12 103 3 0 0 0 0 0 0 0 5 42 90 51 20 15 1 0 0 0 0 0 0 0 0 0 0 0 0 0 0 0 0 0
180 189 203 192 134 142 105 79 65 24 8 8 5 2 0 0 0 0 0 0 0 47 58 90 46 28 19 8 0 0 0 0 0 0 0 0 0 0 0 0 0 0 0 0 0
157 172 164 186 137 112 155 98 60 34 3 22 12 7 0 0 0 0 0 0 0 52 93 57 30 12 0 2 0 0 0 0 0 0 0 0 0 0 0 0 0 0 0 0 0
152 160 116 53 106 119 71 15 24 69 30 0 0 0 0 0 0 0 0 1 0 41 21 49 15 0 0 0 0 0 0 0 0 0 0 0 0 0 0 0 0 0 0 0 0
135 81 22 87 118 124 16 1 25 18 7 0 0 0 0 0 0 0 0 2 6 8 1 25 25 4 6 4 4 2 0 0 0 0 0 0 0 0 0 0 0 0 0 0 0
43 36 54 111 70 0 0 0 14 18 14 0 0 0 0 0 0 0 1 3 0 14 7 0 0 3 5 0 1 0 0 0 0 0 0 0 0 0 0 0 0 0 0 0 0
38 53 68 81 14 15 10 30 11 37 4 0 3 0 0 0 0 0 17 0 7 12 2 0 0 0 0 0 0 0 0 0 0 0 0 0 0 0 0 0 0 0 0 0 0
37 54 60 94 48 0 33 26 19 0 0 0 0 0 0 0 0 20 15 11 0 0 0 0 0 0 0 0 0 0 0 0 0 0 0 0 0 0 0 0 0 0 0 0 0
19 40 99 28 48 14 6 35 3 5 0 0 0 0 0 0 0 12 17 1 2 2 0 0 0 0 0 0 0 0 0 0 0 0 0 0 0 0 0 0 0 0 0 0 0
44 70 100 67 36 8 0 2 0 0 7 0 0 0 0 0 0 1 0 0 0 0 0 0 0 0 0 0 0 0 0 0 0 0 0 0 0 0 0 0 0 0 0 0 0
59 198 13 69 24 5 3 0 18 12 0 0 0 0 0 0 0 0 0 0 0 0 0 0 0 0 0 0 0 0 0 0 0 0 0 0 0 0 0 0 0 0 0 0 0
135 11 39 31 5 9 15 13 1 0 0 0 0 0 0 0 0 0 0 0 0 0 0 0 0 0 0 0 0 0 0 0 0 0 0 0 0 0 0 0 0 0 0 0 0
0 0 76 30 28 8 0 0 0 0 0 0 0 0 0 0 0 0 0 0 0 0 0 0 0 0 0 0 0 0 0 0 0 0 0 0 0 0 0 0 0 0 0 0 0
0 15 26 44 9 0 0 0 0 0 0 0 0 0 0 0 0 0 0 0 0 0 0 0 0 0 0 0 0 0 0 0 0 0 0 0 0 0 0 0 0 0 0 0 7
0 0 12 2 0 0 0 0 0 0 5 0 0 0 0 0 0 0 0 0 0 0 0 0 0 0 0 0 0 0 0 0 0 0 0 0 0 0 0 0 0 0 0 0 0
0 0 0 0 0 0 0 0 1 19 29 0 0 0 0 0 0 0 0 0 0 0 0 0 0 0 0 0 0 0 0 0 0 0 0 0 0 0 0 0 0 0 0 0 0
0 0 5 5 0 0 0 0 1 16 12 0 0 0 0 0 0 0 0 0 0 0 0 0 0 0 0 0 0 0 0 0 0 0 0 0 0 0 0 0 0 0 0 0 0
0 0 0 0 0 0 0 0 0 0 10 10 3 0 0 0 0 0 0 0 0 0 0 0 0 0 0 0 0 0 0 0 0 0 0 0 0 0 0 0 0 0 0 0 0
0 0 0 0 0 0 0 0 0 0 0 0 0 4 0 0 0 0 0 0 0 0 0 0 0 0 0 0 0 0 0 0 0 0 0 0 0 0 0 0 0 0 0 0 0
0 0 0 0 0 0 0 0 0 0 0 0 0 0 0 0 0 0 0 0 0 0 0 0 0 0 0 0 0 0 0 0 0 0 0 0 0 0 0 0 0 0 5 1 0

GFSSW_con_mucape_042.txt.gz
CAPE
35 18 24 32 26 20 4 5 0 6 39 88 4 5 4 7 12 8 5 0 0 14 0 0 0 0 0 0 0 0 0 0 0 0 0 0 0 0 0 0 0 0 3 7 194
55 52 39 27 32 28 24 10 16 0 18 54 66 14 8 9 15 7 0 0 0 56 8 0 0 0 0 0 0 0 0 0 0 0 0 0 0 0 0 0 0 0 19 267 363
63 60 64 47 54 32 37 32 12 0 1 31 133 20 8 20 15 0 0 0 0 34 0 12 0 0 0 0 0 0 0 0 0 0 0 0 0 0 0 0 0 0 221 326 366
84 73 60 63 71 63 63 36 18 18 11 1 29 13 5 16 0 0 158 0 18 60 30 0 0 0 0 0 0 0 0 0 0 0 0 0 0 0 0 0 0 0 0 35 329
123 133 127 90 84 59 62 40 29 16 14 8 8 19 1 8 0 0 82 76 22 50 2 3 11 0 0 0 0 0 0 0 0 0 0 0 0 0 0 0 0 0 0 0 0
122 113 132 160 135 113 77 73 33 31 14 7 1 16 2 0 0 0 96 135 82 55 32 32 20 0 0 0 0 0 0 0 0 0 0 0 0 0 0 0 0 0 0 0 0
134 142 153 177 161 162 138 76 66 35 39 0 3 42 15 0 0 0 67 179 103 61 16 29 31 11 0 0 0 0 0 0 0 0 0 0 0 0 0 0 0 0 0 0 0
141 183 197 195 180 177 166 100 41 36 33 1 30 33 7 0 0 0 0 0 0 25 61 83 44 10 0 0 0 1 0 0 0 0 0 0 0 0 0 0 0 0 0 0 0
125 170 177 174 184 160 147 151 105 60 34 17 15 11 24 0 0 0 0 0 8 5 22 97 51 32 10 2 0 0 0 0 0 0 0 0 0 0 0 0 0 0 0 0 0
107 126 142 126 89 134 137 111 73 47 15 14 7 4 0 0 0 0 0 0 34 98 79 76 35 18 27 7 0 0 0 0 0 0 0 0 0 0 0 0 0 0 0 0 0
83 68 58 44 76 115 41 0 0 4 12 30 9 0 0 0 0 0 0 0 20 67 21 45 7 0 0 0 1 0 0 0 0 0 0 0 0 0 0 0 0 0 0 0 0
47 52 42 59 106 113 7 0 1 16 0 13 9 0 0 0 1 0 0 1 11 22 37 30 16 9 1 0 0 0 0 0 0 0 0 0 0 0 0 0 0 0 0 0 0
59 54 55 78 79 7 4 0 9 5 0 10 1 2 2 0 0 0 6 5 0 0 13 10 0 6 5 1 2 0 0 0 0 0 0 0 0 0 0 0 0 0 0 0 0
33 38 51 97 64 16 0 13 5 10 0 0 3 9 0 0 0 9 30 3 20 9 1 2 0 1 11 2 0 0 0 0 0 0 0 0 0 0 0 0 0 0 0 0 0
23 22 76 131 68 55 45 29 24 3 0 1 12 28 0 0 0 46 30 20 4 5 0 0 0 0 0 0 0 0 0 0 0 0 0 0 0 0 0 0 0 0 0 0 0
67 109 138 99 20 17 28 25 6 5 0 41 5 1 0 1 0 30 13 6 8 24 9 0 0 0 0 0 0 0 0 0 0 0 0 0 0 0 0 0 0 0 0 0 0
111 152 175 86 48 27 3 4 18 25 5 0 1 0 0 0 0 27 1 3 0 0 0 0 0 0 0 0 0 0 0 0 0 0 0 0 0 0 0 0 0 0 0 0 0
156 122 15 37 12 7 0 0 14 6 19 5 0 0 0 0 0 0 0 0 0 0 0 0 0 0 0 0 0 0 0 0 0 0 0 0 0 0 0 0 0 0 0 0 0
1 1 2 2 8 8 2 0 0 25 4 0 0 0 0 0 0 0 1 0 0 0 0 0 0 0 0 0 0 0 0 0 0 0 0 0 0 0 0 0 0 0 0 0 0
0 5 7 21 0 0 1 0 7 1 0 0 0 0 0 0 0 0 0 0 0 0 0 0 0 0 0 0 0 0 0 0 0 0 0 0 0 0 0 0 0 0 0 0 0
0 2 4 1 0 0 18 6 1 0 0 0 0 0 0 0 0 0 0 0 0 0 0 0 0 0 0 0 0 0 0 0 0 0 0 0 0 0 0 0 0 0 0 0 0
0 0 0 0 0 0 0 0 0 7 0 0 0 0 0 0 0 0 0 0 0 0 0 0 0 0 0 0 0 0 0 0 0 0 0 0 0 0 0 0 0 0 0 0 0
0 0 1 0 0 0 0 0 13 0 0 0 0 0 0 0 0 0 0 0 0 0 0 0 0 0 0 0 0 0 0 0 0 0 0 0 0 0 0 0 0 0 0 0 0
0 0 0 0 0 0 0 0 1 10 0 0 0 0 0 0 0 0 0 0 0 0 10 0 0 0 0 0 0 0 0 0 0 0 0 0 0 0 0 0 0 4 0 0 0
0 0 0 0 0 0 0 0 0 0 4 0 0 0 0 0 0 0 0 0 0 0 0 0 0 0 0 0 0 0 0 0 0 0 0 0 0 0 0 0 0 0 0 0 0
0 0 0 0 0 0 0 0 0 0 0 0 0 0 0 0 0 0 0 0 0 0 0 0 0 0 0 0 0 0 0 0 0 0 0 0 0 0 0 0 0 0 3 5 4
0 0 0 0 0 0 0 0 0 0 0 0 1 0 0 0 0 0 0 0 0 0 0 0 0 0 0 0 0 0 0 0 0 0 0 0 0 0 0 0 0 0 3 1 2

GFSSW_con_mucape_045.txt.gz
CAPE
61 59 42 50 45 59 57 23 3 7 1 7 23 86 16 8 19 17 4 0 0 0 2 0 4 0 0 0 0 0 0 0 0 0 0 0 0 0 0 0 0 0 0 0 123
65 68 65 57 63 60 52 59 39 12 2 2 29 80 53 20 15 16 0 0 0 0 20 0 0 0 0 0 0 0 0 0 0 0 0 0 0 0 0 0 0 0 0 5 118
67 89 125 101 106 90 69 49 42 36 13 10 24 30 99 24 18 0 0 0 0 6 45 8 0 0 0 0 0 0 0 0 0 0 0 0 0 0 0 0 0 0 72 125 162
97 99 108 142 139 104 110 85 60 29 22 0 8 55 9 1 0 10 127 3 88 21 39 23 4 0 0 0 0 0 0 0 0 0 0 0 0 0 0 0 0 0 101 303 305
82 101 122 173 155 154 141 136 90 44 20 11 0 6 52 8 0 73 60 211 13 94 39 18 5 3 0 0 0 0 0 0 0 0 0 0 0 0 0 0 0 0 0 168 223
86 96 123 164 163 165 195 157 118 63 42 19 11 20 17 14 0 43 16 113 123 118 31 20 2 0 0 0 0 0 0 0 0 0 0 0 0 0 0 0 0 0 0 0 0
90 95 127 176 188 191 220 202 128 96 75 20 20 50 26 6 0 0 133 192 194 113 18 18 4 12 0 0 0 0 0 0 0 0 0 0 0 0 0 0 0 0 0 0 0
82 82 101 139 187 212 226 241 180 112 79 36 24 18 8 1 3 0 66 166 178 138 83 75 47 20 0 0 0 0 0 0 0 0 0 0 0 0 0 0 0 0 0 0 0
77 76 60 72 154 126 178 207 194 166 104 61 13 61 9 0 7 0 0 38 89 101 97 99 65 33 12 12 2 3 0 0 0 0 0 0 0 0 0 0 0 0 0 0 0
73 54 48 39 55 120 197 209 171 110 60 57 24 58 2 0 16 0 0 8 64 39 71 156 81 23 28 19 0 0 0 0 0 0 0 0 0 0 0 0 0 0 0 0 0
64 57 55 31 66 155 68 0 0 13 23 0 9 15 1 3 1 0 0 9 108 102 55 50 33 16 1 5 0 0 0 0 0 0 0 0 0 0 0 0 0 0 0 0 0
59 25 37 41 126 159 21 0 1 7 0 0 17 6 0 1 9 0 0 1 75 83 38 76 22 1 11 2 1 0 0 0 0 0 0 0 0 0 0 0 0 0 0 0 0
27 24 27 52 128 6 0 0 1 10 0 0 28 1 24 1 7 0 0 12 52 76 34 6 0 0 0 1 5 0 0 0 0 0 0 0 0 0 0 0 0 0 0 0 0
74 95 59 62 56 34 3 0 0 6 0 0 11 15 9 0 0 0 2 45 50 46 28 8 2 12 1 0 0 0 0 0 0 0 0 0 0 0 0 0 0 0 0 0 0
156 138 95 95 22 72 20 14 7 19 0 8 0 0 0 0 0 5 43 12 12 1 0 3 3 5 9 2 0 0 0 0 0 0 0 0 0 0 0 0 0 0 0 0 0
190 142 76 65 0 37 49 27 1 0 0 1 7 0 0 0 0 25 49 20 13 2 7 0 0 0 0 0 1 2 0 0 0 0 0 0 0 0 0 0 0 0 0 0 0
99 119 16 36 2 31 21 22 0 15 1 0 3 0 2 0 0 32 0 3 3 0 0 0 0 0 0 0 0 0 0 0 0 0 0 0 0 0 0 0 0 0 0 0 0
18 0 6 4 14 2 0 44 0 1 0 0 9 0 0 0 23 12 2 0 0 0 0 0 0 0 0 0 0 0 0 0 0 0 0 0 0 0 0 0 0 0 0 0 0
2 0 6 8 0 0 1 21 0 0 2 2 3 0 0 0 2 0 0 0 1 0 0 0 0 0 0 0 0 0 0 0 0 0 0 0 0 0 0 0 0 0 0 0 0
0 0 0 0 0 0 8 39 18 0 11 3 0 0 0 0 0 0 0 0 0 0 0 0 0 0 0 0 0 0 0 0 0 0 0 0 0 0 0 0 0 0 0 0 0
0 0 0 1 0 0 2 0 10 0 0 0 0 0 0 0 0 0 0 0 0 0 0 0 0 0 0 0 0 0 0 0 0 0 0 0 0 0 0 0 0 0 0 0 0
0 0 0 0 0 1 0 0 0 0 0 0 0 0 0 0 0 0 0 0 0 0 0 0 0 0 0 0 0 0 0 0 0 0 0 0 0 0 0 0 0 0 0 0 0
0 0 0 0 0 0 0 0 0 0 0 0 0 0 0 0 0 0 0 0 0 0 0 0 0 0 0 0 0 0 0 0 0 0 0 0 0 0 0 0 0 0 0 0 0
0 0 0 0 0 0 0 0 0 0 0 0 0 0 0 0 0 0 0 0 0 0 0 0 0 0 0 0 0 0 0 0 0 0 0 0 0 0 0 0 0 0 0 0 0
0 0 0 0 0 0 0 0 0 0 0 0 0 0 0 0 0 0 0 0 0 5 0 0 0 0 0 0 0 0 0 0 0 0 0 0 0 0 0 0 0 0 0 0 0
0 0 0 0 0 0 0 0 0 0 0 0 0 0 0 0 0 0 0 0 0 0 0 0 0 0 0 0 0 0 0 0 0 0 0 0 0 0 0 0 0 0 0 0 0
0 0 0 0 0 0 0 0 0 0 0 2 0 0 0 0 0 0 0 0 0 0 0 0 0 0 0 0 0 0 0 0 0 0 0 0 0 0 0 0 0 0 0 0 0

GFSSW_con_mucape_048.txt.gz
CAPE
63 66 69 73 86 75 72 49 46 15 22 0 8 49 14 90 30 22 9 0 0 0 31 1 10 10 0 0 0 0 0 0 0 0 0 0 0 0 0 0 0 0 0 0 26
55 73 85 92 101 112 86 74 70 52 13 16 7 26 21 79 0 0 0 0 0 1 8 47 10 1 0 0 0 0 0 0 0 0 0 0 0 0 0 0 0 0 0 0 578
78 72 70 67 86 114 104 133 95 70 39 4 2 14 27 42 2 0 0 0 0 8 17 30 1 0 0 0 0 0 0 0 0 0 0 0 0 0 0 0 0 0 0 0 627
84 83 70 89 95 100 131 158 164 153 82 19 9 48 37 25 35 9 181 18 0 1 73 32 13 14 0 0 0 0 0 0 0 0 0 0 0 0 0 0 0 0 0 36 154
72 81 83 88 102 110 148 174 217 196 137 61 26 17 50 7 1 99 128 288 1 28 56 49 19 13 1 0 0 0 0 0 0 0 0 0 0 0 0 0 0 0 0 120 180
75 82 87 84 89 119 189 208 227 234 199 116 56 12 38 1 0 6 40 257 19 167 59 51 21 7 0 0 0 0 0 0 0 0 0 0 0 0 0 0 0 0 0 0 253
84 90 93 71 76 118 208 221 210 248 211 126 72 27 51 3 0 1 30 179 119 219 131 66 16 4 0 0 0 0 0 0 0 0 0 0 0 0 0 0 0 0 0 0 0
92 98 77 85 79 112 166 201 227 225 208 139 63 13 11 5 16 10 27 174 232 239 152 74 18 36 1 0 0 0 0 0 0 0 0 0 0 0 0 0 0 0 0 0 0
115 103 82 66 68 107 172 262 278 264 247 156 45 40 44 33 11 11 54 100 206 143 143 76 102 35 21 4 0 0 0 0 0 0 0 0 0 0 0 0 0 0 0 0 0
105 107 79 62 86 117 194 179 173 95 110 106 62 15 12 4 0 29 35 54 55 91 142 130 53 39 26 4 0 0 0 0 0 0 0 0 0 0 0 0 0 0 0 0 0
46 52 26 25 91 175 89 0 0 0 26 0 13 5 5 0 17 22 29 59 80 53 96 59 72 0 4 10 0 0 0 0 0 0 0 0 0 0 0 0 0 0 0 0 0
117 92 74 31 107 182 14 0 0 2 0 0 3 15 16 25 40 38 18 20 56 54 35 4 2 11 2 8 2 0 0 0 0 0 0 0 0 0 0 0 0 0 0 0 0
226 218 151 119 51 8 1 0 0 6 5 30 6 18 40 14 2 0 3 31 53 84 58 18 0 1 1 11 24 0 0 0 0 0 0 0 0 0 0 0 0 0 0 0 0
139 176 183 86 11 42 0 0 4 15 0 0 2 34 11 4 9 1 0 56 50 44 64 38 22 11 0 1 3 0 0 0 0 0 0 0 0 0 0 0 0 0 0 0 0
113 133 84 26 13 18 23 10 12 7 0 0 0 23 16 0 0 7 9 59 59 68 3 0 20 1 1 0 0 0 0 0 0 0 0 0 0 0 0 0 0 0 0 0 0
30 59 33 2 0 30 9 3 0 0 0 0 2 1 2 1 0 10 26 27 24 52 1 0 4 18 0 7 1 0 0 0 0 0 0 0 0 0 0 0 0 0 0 0 0
6 7 14 5 6 26 6 0 0 0 0 2 0 0 0 0 0 37 27 26 0 0 0 0 0 0 0 0 1 0 0 0 0 0 0 0 0 0 0 0 0 0 0 0 0
5 0 0 0 1 0 0 0 0 2 0 4 1 0 0 0 0 4 15 0 20 1 0 0 0 0 0 0 0 0 0 0 0 0 0 0 0 0 0 0 0 0 0 0 0
0 0 0 0 0 0 0 1 22 2 2 0 0 0 0 0 0 4 0 0 4 5 0 0 0 0 0 0 0 0 0 0 0 0 0 0 0 0 0 0 0 0 0 0 0
0 0 0 0 0 0 0 0 0 0 0 0 0 0 0 0 0 0 0 0 0 2 0 0 0 0 0 0 0 0 0 0 0 0 0 0 0 0 0 0 0 0 0 0 0
0 0 0 0 0 0 0 0 0 0 0 0 0 0 0 0 0 0 0 0 1 0 0 0 0 0 0 0 0 0 0 0 0 0 0 0 0 0 0 0 0 0 0 0 0
0 0 0 0 0 0 0 0 1 0 0 0 0 0 0 0 0 0 0 0 0 0 0 0 0 0 0 0 0 0 0 0 0 0 0 0 0 0 0 0 0 0 0 0 0
0 0 0 0 0 0 0 0 0 0 0 0 0 0 0 0 0 0 0 0 0 0 0 0 0 0 0 0 0 0 0 0 0 0 0 0 0 0 0 0 0 0 0 0 0
0 0 0 0 0 0 0 0 0 0 0 0 0 0 0 0 0 0 0 0 0 0 0 0 0 0 0 0 0 0 0 0 0 0 0 0 0 0 0 0 0 0 0 0 0
0 0 0 0 0 0 0 0 0 0 0 0 0 0 0 0 0 0 0 0 0 0 0 0 0 0 0 0 0 0 0 0 0 0 0 0 0 0 0 0 0 0 0 0 0
0 0 0 0 0 0 0 0 0 0 0 0 0 0 0 0 0 0 0 0 0 0 0 0 0 0 0 0 0 0 0 0 0 0 0 0 0 0 0 0 0 0 0 0 0
0 0 0 0 0 0 0 0 0 0 0 0 0 0 0 0 0 0 0 0 0 0 0 0 0 0 0 0 0 0 0 0 0 0 0 0 0 0 0 0 0 0 0 0 0

GFSSW_con_mucape_051.txt.gz
CAPE
60 57 73 73 71 77 73 90 78 69 56 0 0 0 52 53 18 13 0 0 0 53 40 0 46 81 0 0 0 0 0 0 0 0 0 0 0 0 0 0 0 0 0 0 16
67 82 83 81 78 76 74 72 90 79 67 25 0 0 52 49 14 6 0 0 0 0 6 10 36 72 0 0 0 0 0 0 0 0 0 0 0 0 0 0 0 0 0 47 546
68 71 73 69 77 88 74 70 61 92 88 65 52 2 0 67 1 1 6 27 0 3 0 52 14 47 1 0 0 0 0 0 0 0 0 0 0 0 0 0 0 0 0 4 1260
64 82 82 93 94 79 74 87 85 88 100 104 75 37 5 48 26 2 33 22 85 0 32 59 10 31 7 0 0 0 0 0 0 0 0 0 0 0 0 0 0 0 0 0 155
79 88 87 95 97 79 86 94 137 176 208 189 156 80 47 76 9 21 99 128 14 0 14 30 12 17 9 0 0 0 0 0 0 0 0 0 0 0 0 0 0 0 0 0 0
98 94 91 112 114 80 99 140 204 244 266 261 184 113 51 1 10 28 62 98 62 5 109 28 2 3 6 0 0 0 0 0 0 0 0 0 0 0 0 0 0 0 0 0 0
102 125 133 132 124 147 137 166 186 240 275 293 202 89 47 0 4 1 5 137 119 13 148 106 12 3 0 0 0 0 0 0 0 0 0 0 0 0 0 0 0 0 0 0 0
118 159 214 165 140 128 155 196 227 262 306 265 198 70 23 30 29 18 7 42 134 261 279 178 51 13 0 0 0 0 0 0 0 0 0 0 0 0 0 0 0 0 0 0 0
85 84 110 155 83 167 146 252 317 331 344 281 107 42 38 135 22 11 28 38 219 204 192 146 111 63 17 0 0 0 0 0 0 0 0 0 0 0 0 0 0 0 0 0 0
106 137 69 30 17 101 201 259 173 67 150 210 122 29 16 28 3 23 45 42 117 152 121 119 90 27 36 0 0 0 0 0 0 0 0 0 0 0 0 0 0 0 0 0 0
166 173 176 66 18 107 84 0 0 0 14 0 0 1 62 47 51 83 22 105 116 69 0 73 14 0 5 0 0 0 0 0 0 0 0 0 0 0 0 0 0 0 0 0 0
104 131 162 144 55 91 10 0 0 0 0 0 0 27 24 36 0 2 35 55 98 63 0 36 0 0 2 21 0 0 0 0 0 0 0 0 0 0 0 0 0 0 0 0 0
79 123 162 128 48 0 0 0 0 0 1 1 15 34 27 13 3 0 18 24 45 14 0 0 0 20 2 18 0 0 0 0 0 0 0 0 0 0 0 0 0 0 0 0 0
44 59 129 46 0 3 0 17 9 12 0 0 28 70 32 54 17 9 30 23 31 13 0 0 0 15 33 14 7 0 0 0 0 0 0 0 0 0 0 0 0 0 0 0 0
17 39 63 32 2 13 8 19 15 7 0 0 0 26 45 21 0 0 0 30 29 0 0 0 1 0 0 0 11 1 0 0 0 0 0 0 0 0 0 0 0 0 0 0 0
13 4 12 0 4 5 3 1 0 0 0 0 0 22 28 0 0 25 44 23 14 48 21 6 38 1 1 0 0 0 0 0 0 0 0 0 0 0 0 0 0 0 0 0 0
13 0 0 0 7 0 0 0 0 0 0 3 0 5 0 0 9 15 6 9 0 0 0 0 13 6 0 0 0 0 0 0 0 0 0 0 0 0 0 0 0 0 0 0 0
0 0 0 0 0 0 0 0 0 0 0 3 1 1 12 0 0 19 15 0 0 0 0 0 0 0 0 0 0 0 0 0 0 0 0 0 0 0 0 0 0 0 0 0 0
0 0 0 0 0 0 0 0 0 0 0 0 0 12 31 0 0 0 0 0 0 0 0 0 0 0 0 0 0 0 0 0 0 0 0 0 0 0 0 0 0 0 0 0 0
0 0 0 0 0 0 0 0 0 1 1 0 0 0 0 0 0 2 0 0 0 0 0 0 0 0 0 0 0 0 0 0 0 0 0 0 0 0 0 0 0 0 0 0 0
0 0 0 0 0 0 0 0 0 0 0 0 0 0 0 0 0 0 0 0 0 0 0 0 0 0 0 0 0 0 0 0 0 0 0 0 0 0 0 0 0 0 0 0 0
0 0 0 0 0 0 0 0 0 0 0 0 0 0 0 0 0 0 0 0 0 0 0 0 0 0 0 0 0 0 0 0 0 0 0 0 0 0 0 0 0 0 0 0 0
0 0 0 0 0 0 0 8 0 0 0 0 0 0 0 0 0 0 0 0 0 0 0 0 0 0 0 0 0 0 0 0 0 0 0 0 0 0 0 0 0 0 0 0 0
0 0 0 0 0 0 0 0 0 0 0 0 0 0 0 0 0 0 0 0 0 0 0 0 0 0 0 0 0 0 0 0 0 0 0 0 0 0 0 0 0 0 0 0 0
0 0 0 0 0 0 0 0 0 0 0 0 0 0 0 0 0 0 0 0 0 0 0 0 0 0 0 0 0 0 0 0 0 0 0 0 0 0 0 0 0 0 0 0 0
0 0 0 0 0 0 0 0 0 0 0 0 0 0 0 0 0 0 0 0 0 0 0 0 0 0 0 0 0 0 0 0 0 0 0 0 0 0 0 0 0 0 0 0 0
0 0 0 0 0 0 0 0 0 0 0 0 0 0 0 0 0 0 0 0 0 0 0 0 0 0 0 0 0 0 0 0 0 0 0 0 0 0 0 0 0 0 0 0 0

GFSSW_con_mucape_054.txt.gz
CAPE
47 63 59 56 74 69 90 82 54 71 78 64 14 0 0 15 19 15 9 1 0 27 75 0 35 132 0 0 0 0 0 0 0 0 0 0 0 0 0 0 0 0 0 0 0
56 57 59 67 70 91 78 85 88 70 73 75 56 15 0 0 38 11 1 5 10 2 130 0 59 120 2 0 0 0 0 0 0 0 0 0 0 0 0 0 0 0 0 217 406
56 59 63 79 94 97 93 93 89 85 83 76 76 59 7 5 2 6 48 241 154 10 12 22 80 125 15 0 0 0 0 0 0 0 0 0 0 0 0 0 0 0 0 93 371
74 73 82 72 102 108 112 104 100 92 69 68 74 81 11 6 0 67 32 604 300 23 37 21 77 98 35 0 0 0 0 0 0 0 0 0 0 0 0 0 0 0 0 0 337
95 92 108 95 136 157 123 127 131 156 117 112 92 83 78 16 2 27 31 7 249 80 40 35 69 74 42 14 1 0 0 0 0 0 0 0 0 0 0 0 0 0 0 0 0
99 99 132 142 180 209 183 178 209 192 190 203 199 114 54 20 1 53 60 41 17 125 25 108 25 63 34 23 3 0 0 0 0 0 0 0 0 0 0 0 0 0 0 0 0
95 86 96 172 180 199 153 199 250 252 229 242 246 176 59 0 19 21 18 12 89 79 11 148 59 65 25 22 7 0 0 0 0 0 0 0 0 0 0 0 0 0 0 0 0
99 115 127 114 147 154 170 179 218 267 294 307 221 162 5 2 20 14 28 13 72 32 94 240 199 85 34 13 0 0 0 0 0 0 0 0 0 0 0 0 0 0 0 0 0
120 136 170 155 74 25 69 192 300 339 279 322 213 81 2 189 59 26 57 43 248 126 260 244 131 39 26 25 12 0 0 0 0 0 0 0 0 0 0 0 0 0 0 0 0
78 85 125 170 54 7 147 247 218 132 260 250 83 63 0 105 97 81 77 40 311 125 246 199 108 100 66 25 0 0 0 0 0 0 0 0 0 0 0 0 0 0 0 0 0
48 83 114 143 123 2 184 63 4 38 103 1 8 50 58 51 222 52 2 117 346 161 64 68 4 54 16 1 0 0 0 0 0 0 0 0 0 0 0 0 0 0 0 0 0
26 64 134 112 66 85 78 4 0 2 0 0 0 1 32 9 31 12 0 262 74 49 38 0 26 0 40 20 0 0 0 0 0 0 0 0 0 0 0 0 0 0 0 0 0
23 45 146 104 35 8 5 10 5 23 0 0 17 1 15 0 7 14 14 8 67 16 0 0 0 39 20 17 0 0 0 0 0 0 0 0 0 0 0 0 0 0 0 0 0
18 44 31 7 13 9 15 21 15 5 0 0 23 11 24 30 0 4 17 0 31 0 0 2 7 20 39 5 10 0 0 0 0 0 0 0 0 0 0 0 0 0 0 0 0
9 10 11 0 19 5 11 28 14 0 0 0 30 0 26 0 0 5 1 0 5 0 0 0 0 55 32 17 21 17 0 0 0 0 0 0 0 0 0 0 0 0 0 0 0
15 0 0 0 0 0 0 0 0 0 0 0 0 9 10 0 0 4 1 4 0 0 0 0 0 0 0 0 19 0 0 0 0 0 0 0 0 0 0 0 0 0 0 0 0
9 0 0 0 0 0 0 0 0 0 0 0 13 0 9 0 0 0 0 8 0 0 0 0 0 0 0 0 0 6 1 0 0 0 0 0 0 0 0 0 0 0 0 0 0
0 0 0 0 0 0 0 0 0 0 0 0 0 1 20 7 4 0 0 0 0 0 0 0 0 0 0 0 0 0 0 0 0 0 0 0 0 0 0 0 0 0 0 0 0
0 0 0 0 0 0 0 0 0 0 0 1 5 0 1 0 0 0 4 0 0 0 0 0 0 0 0 0 0 0 0 0 0 0 0 0 0 0 0 0 0 0 0 0 0
0 0 0 0 0 0 0 0 0 0 0 0 0 0 0 0 3 0 0 0 0 0 0 0 0 0 0 0 0 0 0 0 0 0 0 0 0 0 0 0 0 0 0 0 0
0 0 0 0 0 0 0 0 0 0 0 0 0 0 0 0 0 0 0 0 0 0 0 0 0 0 0 0 0 0 0 0 0 0 0 0 0 0 0 0 0 0 0 0 0
0 0 0 0 0 0 0 0 0 0 0 0 0 0 0 0 0 0 0 0 0 0 0 0 0 0 0 0 0 0 0 0 0 0 0 0 0 0 0 0 0 0 0 0 0
0 0 0 0 0 0 0 0 0 0 0 0 0 0 0 0 0 0 0 0 0 0 0 0 0 0 0 0 0 0 0 0 0 0 0 0 0 0 0 0 0 0 0 0 0
0 0 0 0 0 0 0 0 0 0 0 0 0 0 0 0 0 0 0 0 0 0 0 0 0 0 0 0 0 0 0 0 0 0 0 0 0 0 0 0 0 0 0 0 0
0 0 0 0 0 0 0 0 0 0 0 0 0 0 0 0 0 0 0 0 0 0 0 0 0 0 0 0 0 0 0 0 0 0 0 0 0 0 0 0 0 0 0 0 0
0 0 0 0 0 0 0 0 0 0 0 0 0 0 0 0 0 0 0 0 0 0 0 0 0 0 0 0 0 0 0 0 0 0 0 0 0 0 0 0 0 0 0 0 0
0 0 0 0 0 0 0 0 0 0 0 0 0 0 0 0 0 0 0 0 0 0 0 0 0 0 0 0 0 0 0 0 0 0 0 0 0 0 0 0 0 0 0 0 0

GFSSW_con_mucape_057.txt.gz
CAPE
64 57 67 57 56 67 74 73 88 78 81 79 81 72 2 0 9 25 7 33 12 40 91 0 0 162 25 0 0 0 17 0 5 2 0 5 0 0 0 0 0 0 0 0 70
61 64 64 60 56 70 68 57 74 83 91 97 95 85 52 0 0 3 4 43 84 7 78 0 14 173 29 0 0 0 4 0 0 0 1 3 0 0 0 0 0 0 0 64 139
56 70 71 70 63 58 69 90 122 127 127 103 113 85 84 3 6 0 0 14 331 86 64 10 31 247 46 4 0 0 0 0 0 0 0 0 0 0 0 0 0 0 0 0 192
41 70 71 74 74 73 72 114 133 192 179 157 131 90 87 33 0 22 0 119 457 202 63 27 16 153 92 9 0 0 0 0 0 0 0 0 0 0 0 0 0 0 0 0 118
69 71 73 75 94 120 137 168 209 254 269 218 161 107 66 48 2 9 110 306 459 233 11 45 11 34 55 28 0 0 0 0 0 0 0 0 0 0 0 0 0 0 0 0 0
76 77 78 95 118 132 186 197 247 259 233 202 182 133 48 38 0 0 57 74 373 203 5 41 7 27 53 42 9 0 0 0 0 0 0 0 0 0 0 0 0 0 0 0 0
88 99 116 149 166 125 163 200 223 254 255 240 165 162 66 2 2 201 63 64 15 313 13 20 24 66 38 22 41 7 0 0 0 0 0 0 0 0 0 0 0 0 0 0 0
98 94 114 176 203 96 98 92 227 245 313 301 238 161 38 11 0 4 57 21 67 259 72 47 171 102 55 33 40 25 10 0 0 0 0 0 0 0 0 0 0 0 0 0 0
76 66 130 189 197 89 7 64 210 338 354 310 256 157 16 104 0 0 0 35 47 333 64 108 284 138 126 51 52 41 0 0 0 0 0 0 0 0 0 0 0 0 0 0 0
48 99 180 162 155 0 1 179 210 186 282 234 183 73 4 4 84 12 47 68 98 178 100 133 137 91 76 83 0 0 0 0 0 0 0 0 0 0 0 0 0 0 0 0 0
41 72 163 118 92 0 127 172 146 216 170 82 42 13 29 2 56 53 213 128 247 116 37 190 109 70 14 0 0 0 0 0 0 0 0 0 0 0 0 0 0 0 0 0 0
42 46 72 46 22 48 107 73 38 36 35 0 0 2 0 7 18 85 70 8 288 40 41 224 1 27 34 24 17 0 0 0 0 0 0 0 0 0 0 0 0 0 0 0 0
44 30 5 32 15 50 61 7 2 20 41 21 35 11 1 0 6 92 63 38 61 15 42 15 2 7 24 22 19 0 0 0 0 0 0 0 0 0 0 0 0 0 0 0 0
28 23 1 0 13 30 3 3 13 11 0 0 16 1 22 0 6 4 24 2 25 40 46 4 23 0 0 30 14 0 0 0 0 0 0 0 0 0 0 0 0 0 0 0 0
10 0 0 0 2 0 5 7 24 0 11 0 0 0 1 0 0 0 1 9 1 3 1 0 5 92 0 0 23 28 7 0 0 0 0 0 0 0 0 0 0 0 0 0 0
0 0 0 0 0 0 0 0 0 0 4 7 0 7 1 0 0 0 0 0 0 0 0 0 0 0 7 11 37 31 0 0 0 0 0 0 0 0 0 0 0 0 0 0 0
0 0 0 0 0 0 0 0 0 8 0 0 0 26 23 0 0 0 0 0 0 0 0 0 0 0 0 0 9 26 42 0 0 0 0 0 0 0 0 0 0 0 0 0 0
0 0 0 0 0 0 0 0 8 0 0 8 0 0 2 21 0 0 14 0 15 4 0 0 0 0 1 0 0 15 47 0 0 0 0 0 0 0 0 0 0 0 0 0 0
0 0 0 0 0 0 0 11 0 0 0 0 0 1 0 13 0 0 14 0 0 0 0 0 0 0 0 0 1 0 0 0 0 0 0 0 0 0 0 0 0 0 0 0 0
0 0 0 0 0 0 0 0 0 0 0 0 1 1 0 0 0 0 11 0 0 0 0 0 0 0 0 0 0 0 0 0 0 0 0 0 0 0 0 0 0 0 0 0 0
0 0 0 0 0 7 0 0 0 0 0 1 2 2 0 5 4 0 0 0 0 0 0 0 0 0 0 0 0 0 0 0 0 0 0 0 0 0 0 0 0 0 0 0 0
0 7 0 0 7 10 11 0 0 0 0 0 2 6 10 8 0 1 0 0 0 0 0 0 0 0 0 0 0 0 0 0 0 0 0 0 0 0 0 0 0 0 0 0 0
0 0 0 0 2 6 0 1 0 0 0 0 0 0 0 0 1 0 0 0 0 0 0 0 0 0 0 0 0 0 0 0 0 0 0 0 0 0 0 0 0 0 0 0 0
0 0 0 6 2 15 3 0 0 0 0 0 0 0 0 0 0 0 0 0 0 0 0 0 0 0 0 0 0 0 0 0 0 0 0 0 0 0 0 0 0 0 0 0 0
0 0 0 5 14 7 6 1 0 0 0 0 0 0 0 0 0 0 0 0 0 0 0 0 0 0 0 0 0 0 0 0 0 0 0 0 0 0 0 0 0 0 0 0 0
0 0 0 0 0 0 6 9 1 0 0 0 0 0 0 0 0 0 0 0 0 0 0 0 0 0 0 0 0 0 0 0 0 0 0 0 0 0 0 0 0 0 0 0 0
0 0 0 0 0 0 0 15 14 0 0 0 0 0 0 0 0 0 0 0 0 0 0 0 0 0 0 0 0 0 0 0 0 0 0 0 0 0 0 0 0 0 0 0 0

GFSSW_con_mucape_060.txt.gz
CAPE
60 57 63 67 65 55 58 59 66 70 72 68 68 69 68 26 0 1 2 9 36 77 16 0 82 147 240 102 2 1 1 0 0 0 0 5 4 0 0 0 0 0 40 82 1013
54 51 60 63 70 68 61 62 61 63 72 74 82 78 74 81 2 0 0 7 182 195 8 0 0 106 267 24 2 0 0 0 0 0 0 8 0 0 0 0 0 0 0 39 594
43 51 65 76 82 80 85 76 66 58 64 91 132 125 102 53 19 0 0 5 86 234 0 22 0 224 222 17 0 0 0 0 0 11 22 6 0 0 0 0 0 0 0 74 289
77 78 81 80 88 98 103 113 111 92 102 153 180 174 134 68 0 40 25 4 170 258 40 57 0 55 150 11 0 0 0 0 1 26 0 0 0 0 0 0 0 0 0 0 107
86 88 104 121 192 182 171 174 201 175 178 215 250 211 131 60 2 15 175 27 158 373 24 60 0 44 37 5 0 0 0 0 0 0 0 0 0 0 0 0 0 0 0 0 0
71 113 121 164 229 228 228 184 218 229 219 211 172 164 74 2 1 9 20 67 99 211 82 34 0 17 14 64 2 0 0 0 0 0 0 0 0 0 0 0 0 0 0 0 0
77 105 146 152 191 242 227 149 202 244 235 206 212 69 22 1 26 286 115 12 78 164 130 9 5 12 38 46 48 4 6 0 0 0 0 0 0 0 0 0 0 0 0 0 0
79 73 111 151 183 191 103 90 100 226 236 319 249 140 8 0 0 1 29 29 41 67 112 8 18 13 84 82 60 43 8 0 0 0 0 3 0 0 0 0 0 0 0 0 0
63 47 83 149 146 82 16 1 140 239 341 352 228 119 7 111 0 0 0 28 33 38 189 202 160 88 56 38 31 37 0 0 0 0 0 3 0 0 0 0 0 0 0 0 0
43 41 66 87 49 1 2 75 215 234 313 209 174 73 10 19 60 17 0 40 17 99 207 170 147 62 48 47 0 0 0 0 0 0 0 0 0 0 0 0 0 0 0 0 0
24 34 18 26 23 0 137 260 161 226 152 107 35 14 14 0 176 57 51 14 68 187 50 23 44 0 0 0 0 0 0 0 0 0 0 0 0 0 0 0 0 0 0 0 0
16 30 12 8 12 39 67 8 24 10 4 6 0 0 10 0 1 30 74 0 24 92 48 55 4 0 0 0 2 5 0 0 0 0 0 0 0 0 0 0 0 0 0 0 0
0 0 15 0 4 36 10 5 1 16 10 17 33 15 2 0 15 0 1 0 0 2 1 7 9 11 23 10 0 0 0 0 0 0 0 0 0 0 0 0 0 0 0 0 0
0 0 9 0 3 8 0 0 10 0 0 0 0 20 1 1 1 63 73 56 20 15 62 32 8 0 19 13 0 0 0 3 2 0 0 0 0 0 0 0 0 0 0 0 0
0 0 0 2 20 0 0 0 0 0 0 0 0 0 0 0 1 14 16 0 12 21 1 17 1 8 0 4 33 2 10 4 0 0 0 0 0 0 0 0 0 0 0 0 0
0 0 0 8 18 0 0 0 0 0 7 0 2 10 3 0 0 0 3 0 4 4 5 0 0 7 0 0 10 29 28 0 0 0 0 0 0 0 0 0 0 0 0 0 0
0 0 0 0 0 0 0 0 0 0 0 0 9 14 6 11 0 0 0 0 4 0 0 5 0 7 7 0 17 9 0 0 0 0 0 0 0 0 0 0 0 0 0 0 0
0 0 0 0 0 0 0 0 0 0 0 0 0 1 0 2 0 22 21 0 12 0 0 0 0 0 0 0 0 0 0 0 0 0 0 0 0 0 0 0 0 0 0 0 0
0 0 0 0 0 0 0 0 0 0 0 0 16 0 0 0 1 0 17 0 8 0 0 0 0 0 0 0 0 0 0 0 0 0 0 0 0 0 0 0 0 0 0 0 0
0 0 0 0 0 0 0 0 0 0 0 0 2 3 0 1 0 0 0 0 0 0 0 0 0 0 0 0 0 0 3 0 0 0 0 0 0 0 0 0 0 0 0 0 0
0 0 0 0 0 0 0 0 0 0 0 0 0 0 0 0 8 0 0 0 0 0 0 0 0 0 0 0 0 0 0 0 0 0 0 0 0 0 0 0 0 0 0 0 0
0 2 0 0 0 17 0 0 0 0 0 0 0 2 0 0 0 0 0 0 0 0 0 0 0 0 0 0 0 0 0 0 0 0 0 0 0 0 0 0 0 0 0 0 0
0 0 0 0 3 5 0 0 0 0 0 0 0 0 0 0 0 0 0 0 0 0 0 0 0 0 0 0 0 0 0 0 0 0 0 0 0 0 0 0 0 0 0 0 0
0 0 0 10 1 2 4 1 3 0 0 0 0 0 0 0 0 0 0 0 0 0 0 0 0 0 0 0 0 0 0 0 0 0 0 0 0 0 0 0 0 0 0 0 0
0 0 0 0 1 0 3 4 3 0 0 0 0 0 0 0 0 0 0 0 0 0 0 0 0 0 0 0 0 0 0 0 0 0 0 0 0 0 0 0 0 0 0 0 0
0 0 0 0 0 0 0 6 1 7 0 0 0 0 0 0 0 0 0 0 0 0 0 0 0 0 0 0 0 0 0 0 0 0 0 0 0 0 0 0 0 0 0 0 0
0 0 0 0 0 0 0 0 8 4 0 0 0 0 0 0 0 0 0 0 0 0 0 0 0 0 0 0 0 0 0 0 0 0 0 0 0 0 0 0 0 0 0 0 0

GFSSW_con_mucape_063.txt.gz
CAPE
26 51 40 56 83 94 96 91 79 74 58 40 55 63 65 71 30 0 0 1 39 138 2 0 0 175 249 164 33 46 0 0 0 0 0 7 6 1 0 0 0 40 353 990 943
55 62 72 79 88 100 109 90 89 64 54 66 66 68 71 58 34 0 0 0 32 200 37 0 0 222 214 175 57 39 0 0 0 9 5 3 7 0 0 0 0 68 1021 956 880
61 70 87 108 148 182 179 144 129 85 61 52 76 91 76 60 28 0 13 0 8 136 63 6 0 244 215 139 49 3 0 0 8 25 24 0 1 0 0 0 0 5 509 604 773
57 64 108 126 147 233 218 215 194 165 89 90 100 123 102 59 0 12 27 59 2 7 101 33 0 123 140 60 40 0 0 0 19 0 0 0 0 0 0 0 0 0 104 358 411
41 78 79 117 118 158 196 215 192 181 158 129 110 114 62 26 0 45 27 34 0 103 63 32 1 92 77 49 21 0 0 0 23 29 0 0 0 1 0 0 0 1 43 45 170
48 43 63 100 142 151 200 226 132 148 174 164 141 95 62 9 1 3 22 20 40 131 81 61 1 2 89 92 28 0 0 0 14 1 2 1 0 0 1 0 0 0 0 0 0
46 23 37 51 139 140 166 103 107 132 191 205 179 45 55 18 13 74 69 73 63 78 113 71 28 11 30 82 34 6 28 25 0 0 0 0 0 0 1 0 0 0 0 0 0
35 24 33 51 50 44 40 27 34 106 177 218 232 142 19 0 0 13 26 11 66 50 73 123 68 25 27 36 74 64 10 26 0 0 0 0 0 0 1 0 0 0 0 0 0
31 37 26 31 1 7 5 0 36 152 239 317 209 101 0 85 11 6 9 0 26 46 61 126 68 20 28 32 77 75 1 1 0 0 0 0 0 0 0 0 0 0 0 0 0
23 21 10 13 2 0 0 54 112 120 179 180 172 34 8 9 5 8 0 88 63 43 64 120 58 19 30 12 3 0 0 0 0 0 0 0 0 0 0 0 0 0 0 0 0
0 14 22 0 0 0 0 0 0 0 39 31 18 0 6 0 52 106 43 1 1 1 165 64 39 0 0 0 0 0 0 0 0 0 0 0 0 0 0 0 0 0 0 0 0
0 0 12 3 8 14 1 0 1 0 0 0 28 0 2 0 0 51 25 0 0 20 0 46 0 0 0 0 0 0 5 0 0 0 0 0 0 0 0 0 0 0 0 0 0
0 0 3 3 7 2 0 0 0 0 1 0 7 30 1 0 2 34 0 0 1 0 1 2 0 0 0 0 0 0 0 0 0 0 0 0 0 0 0 0 0 0 0 0 0
0 0 0 4 0 0 0 0 0 0 0 1 8 24 18 15 16 16 0 0 0 3 2 2 4 3 15 0 0 0 0 0 0 0 0 0 0 0 0 0 0 0 0 0 0
0 0 0 0 0 0 0 0 0 0 13 4 2 3 7 14 0 0 3 0 0 7 0 3 7 12 25 16 8 4 0 1 0 0 0 0 0 0 0 0 0 0 0 0 0
0 0 0 0 0 0 0 0 0 0 21 1 3 2 0 0 2 9 30 0 4 6 3 5 6 24 3 7 10 15 9 0 2 0 0 0 0 0 0 0 0 0 0 0 0
0 0 0 0 0 0 0 0 0 0 0 5 10 0 0 0 0 2 0 0 0 0 19 24 4 10 7 1 20 7 0 0 0 0 0 0 0 0 0 0 0 0 0 0 0
0 0 0 0 0 0 0 0 0 0 0 0 12 0 0 15 0 4 4 1 0 0 0 0 0 7 0 0 0 0 0 0 0 0 0 0 0 0 0 0 0 0 0 0 0
0 0 0 0 0 0 0 0 0 0 0 0 0 0 0 3 2 0 1 0 0 0 0 0 0 0 0 0 0 0 0 0 0 0 0 0 0 0 0 0 0 0 0 0 0
0 0 0 0 0 0 0 0 0 0 0 0 0 0 0 0 0 0 0 2 0 0 0 0 0 0 0 0 1 0 0 0 0 0 0 0 0 0 0 0 0 0 0 0 0
0 0 0 0 0 0 0 0 0 0 0 0 0 0 2 3 0 2 0 0 0 0 0 0 0 0 0 0 0 0 0 0 0 0 0 0 0 0 0 0 0 0 0 0 0
0 0 0 0 0 0 0 0 0 0 0 0 1 1 2 0 0 0 0 0 0 0 0 0 0 0 0 0 0 0 0 0 0 0 0 0 0 0 0 0 0 0 0 0 0
0 0 0 0 0 0 0 0 0 0 0 0 0 0 1 0 0 0 0 0 0 0 0 0 0 0 1 0 0 0 0 0 0 0 0 0 0 0 0 0 0 0 0 0 0
0 0 0 2 2 3 0 1 7 0 0 0 0 0 0 0 0 0 0 0 0 0 0 0 0 0 0 0 0 0 0 0 0 0 0 0 0 0 0 0 0 0 0 0 0
0 0 0 0 0 0 0 1 0 0 0 0 0 0 0 0 0 0 0 0 0 0 0 0 0 0 0 0 0 0 0 0 0 0 0 0 0 0 0 0 0 0 0 0 0
0 0 0 0 0 0 0 0 0 12 0 0 0 0 0 0 0 0 0 0 0 0 0 0 0 0 0 0 0 0 0 0 0 0 0 0 0 0 0 0 0 0 0 0 0
0 0 0 0 0 0 0 0 2 12 5 0 0 0 0 0 0 0 0 0 0 0 0 0 0 0 0 0 0 0 0 0 0 0 0 0 0 0 0 0 0 0 0 0 0

GFSSW_con_mucape_066.txt.gz
CAPE
30 52 56 61 85 116 149 161 153 122 81 39 11 27 57 59 56 9 0 0 17 34 221 0 0 118 198 61 49 44 18 0 0 0 3 4 3 2 0 0 0 29 429 871 942
36 38 56 83 99 150 218 171 181 156 107 47 24 21 45 54 28 1 0 0 8 73 80 0 0 50 218 177 56 41 0 0 0 0 0 0 0 0 0 16 156 868 954 1047 1048
42 40 69 85 107 124 200 231 184 181 125 79 69 50 49 50 16 0 8 53 23 23 56 2 0 58 246 213 18 11 0 0 0 0 0 3 2 0 1 2 73 652 933 706 958
35 32 42 51 71 121 146 187 212 185 157 103 114 117 92 21 0 34 1 73 69 13 46 41 0 52 205 85 8 0 0 0 0 0 0 0 0 5 0 0 0 250 642 528 360
31 42 34 35 59 116 112 184 149 153 156 120 89 78 22 0 0 26 22 16 0 8 12 45 1 8 57 34 42 1 0 0 11 2 0 0 0 1 0 0 1 89 506 563 376
29 43 30 31 31 78 115 115 72 82 115 70 109 124 15 0 0 0 4 10 0 0 3 42 15 1 49 61 77 17 29 7 0 0 0 1 0 0 0 0 52 149 145 97 198
24 34 24 16 12 43 57 62 80 104 142 202 234 35 32 0 1 3 0 16 33 3 61 38 36 21 10 83 81 36 69 42 0 0 0 0 0 0 0 0 0 5 0 0 0
21 35 31 13 12 3 2 1 1 54 119 181 244 155 0 3 2 8 0 34 50 87 82 84 78 23 29 47 83 50 59 0 0 0 1 0 0 0 1 0 0 0 0 0 0
2 29 25 13 14 0 3 0 0 34 107 220 134 42 0 16 50 3 0 18 65 47 83 104 60 1 44 41 60 54 0 0 0 0 0 0 0 0 20 0 0 0 0 0 0
0 0 21 17 4 16 64 36 17 20 75 124 121 10 0 0 0 7 0 61 12 40 100 67 70 18 24 15 0 0 0 0 0 0 0 0 0 0 2 0 0 0 0 0 0
0 0 0 11 8 15 2 0 0 1 0 0 0 0 0 0 0 115 62 0 0 16 4 59 11 0 0 0 0 0 0 0 0 0 0 0 0 0 0 0 0 0 0 0 0
0 0 0 0 8 11 0 0 0 0 0 0 0 5 0 0 0 72 2 0 2 9 3 38 0 0 0 2 2 0 0 0 0 2 1 0 0 0 1 0 0 0 0 0 0
0 0 0 0 1 0 0 0 0 0 0 0 1 17 5 1 4 51 6 0 2 5 0 7 0 0 0 4 1 0 0 0 0 0 0 0 0 0 0 0 0 0 0 0 0
0 0 0 0 0 0 0 0 0 0 0 0 7 6 10 2 9 33 3 0 1 9 0 22 0 0 0 0 1 0 0 0 1 0 0 0 0 0 0 0 0 0 0 0 0
0 0 0 0 0 0 0 0 0 0 0 0 4 16 13 4 17 1 0 0 6 0 0 10 0 0 0 0 12 1 0 0 0 0 0 0 0 0 0 0 0 0 0 0 0
0 0 0 0 0 0 0 0 0 0 0 0 2 0 0 3 28 27 53 0 0 0 0 3 14 10 21 5 19 9 3 0 0 2 0 0 0 0 0 0 0 0 0 0 0
0 1 0 0 0 0 0 0 0 0 0 0 3 0 0 2 0 3 0 0 0 1 0 12 6 10 22 33 39 19 3 0 0 0 0 0 0 0 0 0 0 0 0 0 0
0 0 0 0 0 0 0 0 0 0 0 0 0 0 0 0 0 0 0 0 0 0 0 0 0 0 0 1 13 22 2 0 0 0 0 0 0 0 0 0 0 0 0 0 0
0 0 0 0 0 0 0 0 0 0 0 0 0 7 0 0 0 0 0 0 0 0 0 0 0 2 0 0 5 11 0 0 0 0 0 0 0 0 0 0 0 0 0 0 0
0 0 0 0 0 0 0 0 0 0 0 0 0 0 0 0 0 0 0 0 0 0 0 0 0 0 0 0 0 0 0 0 0 0 0 0 0 0 0 0 0 0 0 0 0
0 0 0 0 0 0 0 0 0 0 0 0 0 0 0 0 0 0 0 0 0 0 0 0 0 0 0 0 0 0 0 0 0 0 0 0 0 0 0 0 0 0 0 0 0
0 0 0 0 0 0 0 0 0 0 0 0 0 0 0 0 0 0 0 0 0 0 0 0 0 0 0 0 0 0 0 0 0 0 0 0 0 0 0 0 0 0 0 0 0
0 0 0 0 0 0 0 0 0 0 0 0 0 0 0 0 0 0 0 0 0 0 0 0 0 0 0 0 0 0 0 0 0 0 0 0 0 0 0 0 0 0 0 0 0
0 0 0 0 0 0 0 0 0 0 0 0 0 0 0 0 0 0 0 0 0 0 0 0 0 0 1 0 0 0 0 0 0 0 0 0 0 0 0 0 0 0 0 0 0
0 0 0 0 0 0 0 3 2 0 0 0 0 0 0 0 0 0 0 0 0 0 0 0 0 0 0 0 0 0 0 0 0 0 0 0 0 0 0 0 0 0 0 0 0
0 0 0 0 0 0 0 0 0 5 0 0 0 0 0 0 0 0 0 0 0 0 0 0 0 0 0 0 0 0 0 0 0 0 0 0 0 0 0 0 0 0 0 0 0
0 0 0 0 0 0 0 0 4 14 8 1 0 0 0 0 0 0 0 0 0 0 0 0 0 0 0 0 0 0 0 0 0 0 0 0 0 0 0 0 0 0 0 0 0

GFSSW_con_mucape_069.txt.gz
CAPE
45 50 53 60 71 64 88 153 191 172 161 98 24 28 32 51 68 29 0 0 1 52 77 12 9 11 176 35 114 43 10 0 0 0 0 0 0 0 0 0 9 99 567 750 812
41 43 49 26 39 58 43 80 160 155 181 163 41 17 37 51 26 15 2 26 22 32 62 21 0 35 176 92 103 21 30 0 0 0 0 3 3 0 0 0 375 777 789 953 909
54 55 31 36 48 53 39 47 90 118 161 147 79 49 33 27 0 0 20 84 72 48 45 48 7 0 211 139 43 19 0 0 0 0 0 12 9 4 0 0 133 924 1011 1068 981
56 59 21 24 36 40 25 28 54 57 102 98 86 88 44 10 0 13 14 73 167 70 18 50 12 9 63 38 47 6 1 0 1 5 0 9 32 12 0 0 5 733 1032 1040 1014
49 41 20 14 26 42 35 48 44 62 88 38 48 57 6 1 0 27 9 44 14 2 1 43 8 2 16 112 74 10 4 1 17 0 0 0 24 16 0 0 0 119 695 846 1061
41 38 42 21 19 21 38 39 53 106 136 54 61 59 0 0 0 1 15 21 6 10 0 15 10 0 14 77 102 23 0 2 6 0 0 0 12 2 0 0 0 396 456 291 391
37 28 32 16 14 8 5 13 50 94 154 209 187 12 0 0 0 0 5 11 13 27 15 55 39 8 20 41 90 23 11 4 0 0 0 0 0 0 0 0 51 214 333 301 231
0 23 23 34 7 11 8 0 0 13 92 220 265 130 0 0 1 0 0 20 37 33 46 77 74 19 22 19 101 65 27 0 0 0 0 0 0 0 0 0 35 86 21 0 0
0 0 7 20 28 3 20 54 0 13 56 178 91 23 0 1 20 0 3 6 31 44 83 108 132 2 32 46 20 40 0 0 0 0 0 0 0 0 0 0 0 0 0 0 0
0 0 0 3 20 16 27 18 0 4 45 113 96 2 0 0 0 2 1 0 10 10 118 117 138 0 13 34 0 0 0 0 0 0 0 0 0 0 0 0 0 0 0 0 0
11 0 0 0 15 19 0 0 0 0 0 0 0 0 0 1 0 59 49 0 11 0 44 80 23 0 0 1 0 0 0 0 0 0 0 0 0 0 1 15 0 0 0 0 0
9 0 0 0 1 17 0 0 0 0 0 0 0 0 0 2 0 37 38 6 20 3 23 124 0 0 0 18 1 0 0 0 0 10 1 0 0 3 0 0 0 0 0 0 0
0 6 0 0 0 0 0 0 0 0 0 0 0 1 0 0 3 14 20 1 24 11 0 0 0 0 0 11 10 0 0 0 0 3 11 4 0 0 0 0 0 0 0 0 0
0 7 0 0 0 0 0 0 0 0 0 0 0 1 5 3 9 31 7 26 11 1 2 0 0 0 5 15 0 2 4 2 1 4 0 0 0 0 0 0 0 0 0 0 0
0 0 0 0 0 0 0 0 0 0 0 0 2 2 0 14 23 6 1 15 1 19 2 0 0 0 0 11 5 0 6 4 0 0 0 0 0 0 0 0 0 0 0 0 0
0 0 0 0 0 0 0 0 0 0 0 0 0 3 0 12 6 1 9 6 3 0 0 0 0 0 0 6 20 0 7 1 0 0 0 0 0 0 0 0 0 0 0 0 0
0 0 0 0 0 0 0 0 0 0 0 0 2 10 3 16 49 42 1 0 0 5 0 0 0 4 10 20 10 2 5 0 0 0 0 0 0 0 0 0 0 0 0 0 0
0 0 0 0 0 0 0 0 0 0 0 0 0 0 1 0 0 0 0 0 9 4 0 0 0 2 9 0 0 9 8 0 0 0 0 0 0 0 0 0 0 0 0 0 0
0 0 0 0 0 0 0 0 0 0 0 0 0 0 0 0 1 0 0 1 0 0 0 0 0 0 4 0 4 4 0 0 0 0 0 0 0 0 0 0 0 0 0 0 0
0 0 0 0 0 0 0 0 0 0 0 0 0 0 0 0 0 1 0 0 0 0 0 0 0 0 0 0 0 8 0 0 0 0 0 0 0 0 0 0 0 0 0 0 0
0 0 0 0 0 0 0 0 0 0 0 0 0 0 0 0 0 0 0 0 1 0 0 0 0 0 0 0 0 0 2 0 0 0 0 0 0 0 0 0 0 0 0 0 0
0 0 0 0 0 0 0 0 0 0 0 0 0 0 0 0 0 0 0 0 0 0 0 0 0 0 0 0 0 11 0 0 0 0 0 0 0 0 0 0 0 0 0 0 0
0 0 0 0 0 0 0 0 0 0 0 0 0 0 0 0 0 0 0 0 0 0 0 0 0 0 0 0 0 0 0 0 0 0 0 0 0 0 0 0 0 0 0 0 0
0 0 0 0 0 0 0 0 0 0 0 0 0 0 0 0 0 0 0 0 0 0 0 0 0 0 0 0 0 0 0 0 0 0 0 0 0 0 0 0 0 0 0 0 0
0 0 0 0 0 0 0 0 0 0 0 0 0 0 0 0 0 0 0 0 0 0 0 0 0 0 0 0 0 0 0 0 0 0 0 0 0 0 0 0 0 0 0 0 0
0 0 0 0 0 0 0 0 0 2 0 0 0 0 0 0 0 0 0 0 0 0 0 0 0 0 0 0 0 0 0 0 0 0 0 0 0 0 0 0 0 0 0 0 0
0 0 0 0 0 0 0 0 0 1 10 0 0 0 0 0 0 0 0 0 0 0 0 0 0 0 0 0 0 0 0 0 0 0 0 0 0 0 0 0 0 0 0 0 0

GFSSW_con_mucape_072.txt.gz
CAPE
54 58 50 36 38 54 43 59 60 100 128 132 93 59 82 83 84 53 0 0 0 63 65 21 17 50 164 41 89 48 19 0 0 0 0 0 0 0 0 0 58 366 388 517 1081
37 39 44 42 37 37 48 49 48 85 139 164 90 67 51 71 21 13 22 81 125 28 31 33 0 3 84 35 117 99 0 0 0 0 4 7 0 0 0 0 132 481 729 728 1183
30 48 40 34 31 33 32 26 38 51 54 145 108 48 66 32 0 0 27 62 116 87 43 38 21 8 51 84 44 57 0 0 0 7 9 13 12 0 0 0 8 0 675 820 1255
29 31 46 13 17 31 22 30 22 3 24 75 85 93 91 1 0 16 90 102 96 95 22 55 26 4 24 35 33 38 3 5 7 52 3 3 3 5 0 0 0 0 448 634 937
25 32 46 39 18 14 28 21 17 3 41 22 7 32 4 0 0 11 21 67 39 53 5 45 26 0 26 39 81 15 0 20 28 7 1 0 0 4 16 0 0 0 118 615 842
21 31 34 47 19 13 7 15 12 10 17 28 58 35 0 0 0 11 23 24 33 1 20 41 29 0 42 54 84 14 5 4 20 11 3 0 0 7 5 0 0 0 101 551 679
17 0 0 34 36 25 21 0 11 15 52 80 57 2 0 0 0 0 18 3 19 0 23 16 37 10 26 71 91 55 58 47 17 0 0 0 0 0 4 2 0 0 127 271 387
16 0 0 20 32 27 33 42 0 0 21 86 166 41 0 0 4 0 1 9 24 30 5 68 101 25 37 25 78 80 47 16 0 0 0 0 0 11 1 6 25 16 30 146 229
1 21 0 0 23 37 33 23 0 0 13 75 2 2 0 6 17 0 0 0 8 53 155 132 60 17 52 61 35 37 8 0 0 0 0 0 0 0 0 2 45 42 17 19 16
0 4 0 0 0 30 37 20 0 0 19 29 0 0 0 0 0 1 2 13 22 33 93 126 28 10 32 31 0 0 5 0 0 0 0 0 0 0 0 0 10 3 3 0 0
0 0 1 0 0 20 5 0 0 0 0 0 0 0 0 0 0 35 32 1 14 33 0 20 0 0 0 2 0 0 0 0 0 0 0 1 0 0 0 0 0 0 0 0 0
0 0 3 0 0 8 0 0 0 0 0 0 0 0 0 0 0 30 40 2 18 1 12 31 0 0 0 9 0 0 0 0 0 0 0 0 0 0 0 0 0 0 0 0 0
0 0 0 0 0 0 0 0 0 0 0 0 0 3 0 0 0 19 2 0 5 0 14 0 0 1 0 21 5 0 0 0 0 0 14 0 0 0 0 0 0 0 0 0 0
0 0 6 0 0 0 0 0 0 0 0 0 0 1 7 7 2 27 32 0 0 6 0 0 6 0 0 21 18 0 0 0 0 0 0 9 0 0 0 0 0 0 0 0 0
0 0 11 0 0 0 0 0 0 0 0 0 0 16 2 30 11 3 9 3 1 3 0 0 0 0 0 3 45 1 0 0 16 2 0 0 0 0 0 0 0 0 0 0 0
0 0 0 0 0 0 0 0 0 0 0 1 0 0 1 17 12 0 8 21 0 0 0 0 0 0 0 42 18 0 24 20 17 8 0 0 0 0 0 0 0 0 0 0 0
0 0 0 0 0 0 0 0 0 0 0 0 8 1 5 7 5 11 2 0 0 0 0 3 0 0 12 30 20 5 14 0 0 0 0 0 0 0 0 0 0 0 0 0 0
0 0 0 0 0 0 0 0 0 0 0 0 6 5 5 8 1 1 0 5 0 0 1 3 0 0 0 3 7 23 12 0 0 0 0 0 0 0 0 0 0 0 0 0 0
0 0 0 0 0 0 0 0 0 0 0 0 2 0 34 2 6 13 4 0 4 0 0 0 0 0 0 1 1 12 0 0 0 0 0 0 0 0 0 0 0 0 0 0 0
0 0 0 0 0 0 0 0 0 0 0 0 0 0 0 0 0 3 2 0 1 0 0 0 0 0 0 0 0 6 0 0 0 0 0 0 0 0 0 0 0 0 0 0 0
0 0 0 0 0 0 0 0 0 0 0 0 0 0 0 0 0 0 0 0 0 0 0 0 0 0 0 0 0 0 0 0 0 0 0 0 0 0 0 0 0 0 0 0 0
0 0 0 0 0 0 0 0 0 0 0 0 0 0 0 0 0 0 0 0 0 0 0 0 0 0 0 0 0 2 0 0 0 0 0 0 0 0 0 0 0 0 0 0 0
0 0 0 0 0 0 0 0 0 0 0 0 0 0 0 0 0 0 0 0 0 0 0 0 0 0 0 0 0 0 0 0 1 0 0 0 0 0 0 0 0 0 0 0 0
0 0 0 0 0 0 0 0 0 0 0 0 0 0 0 0 0 0 0 0 0 0 0 0 0 0 0 0 0 0 0 0 0 0 0 0 0 0 0 0 0 0 0 0 0
0 0 0 0 0 0 0 0 0 0 0 0 0 0 0 0 0 0 0 0 0 0 0 0 0 0 0 0 0 0 0 0 0 0 0 0 0 0 0 0 0 0 0 0 0
0 0 0 0 0 0 0 0 0 0 0 0 0 0 0 0 0 0 0 0 0 0 0 0 0 0 0 0 0 0 0 0 0 0 0 0 0 0 0 0 0 0 0 0 0
0 0 0 0 0 0 0 0 0 0 0 0 0 0 0 0 0 0 0 0 0 0 0 0 0 0 0 0 0 1 0 0 0 0 0 0 0 0 0 0 0 0 0 0 0

GFSSW_con_mucape_075.txt.gz
CAPE
34 32 39 24 23 36 35 45 37 32 54 94 69 137 56 92 91 38 8 2 28 43 68 6 41 43 147 111 82 44 69 4 0 0 0 0 0 0 0 0 125 326 282 301 1091
24 28 40 29 16 20 27 19 12 29 52 41 81 101 55 104 1 0 14 100 103 129 22 20 29 26 111 69 139 106 68 0 0 0 5 5 0 0 0 0 43 43 318 521 1464
14 25 34 47 14 17 28 23 14 9 12 28 93 88 120 21 0 0 39 119 174 133 47 44 36 20 43 68 63 52 10 0 13 5 18 21 3 0 0 0 0 0 109 1232 1571
10 26 27 33 14 14 21 31 9 7 17 51 92 107 113 0 0 24 61 198 146 86 96 31 52 14 28 42 50 67 1 6 65 53 25 19 11 0 0 0 0 0 16 858 1749
17 22 30 27 27 12 7 26 20 14 6 10 36 89 3 0 0 7 4 40 77 56 74 52 41 6 20 37 25 28 29 67 81 32 16 7 8 0 2 0 9 2 57 564 1032
0 7 27 26 34 15 21 1 16 4 1 24 86 43 0 0 0 0 18 33 26 33 36 27 41 1 27 47 48 12 20 60 98 16 24 12 0 0 0 0 1 32 88 163 359
38 0 20 32 0 36 23 32 0 0 12 59 35 0 0 0 0 0 13 1 14 5 2 25 46 6 31 62 71 33 28 80 71 41 29 6 0 0 0 0 0 41 67 103 170
0 0 8 0 0 22 39 21 6 0 0 48 97 3 0 12 5 0 0 0 4 8 0 51 76 6 42 49 55 48 63 36 0 1 8 4 0 0 1 0 0 1 65 118 122
0 0 0 17 0 7 36 17 1 0 0 30 0 0 0 6 0 0 1 0 0 16 52 76 57 13 45 80 33 21 0 6 12 2 1 0 0 0 0 7 6 0 38 37 72
0 0 0 11 0 0 32 8 0 0 0 0 0 0 0 0 0 0 11 7 0 17 71 82 34 6 20 35 0 0 0 8 1 7 9 0 0 0 0 0 6 0 3 3 22
0 0 0 13 0 0 0 0 0 0 0 0 0 0 0 0 0 12 17 0 1 17 0 0 0 0 0 40 0 0 1 0 7 0 1 0 0 0 0 0 0 0 7 11 0
0 0 0 0 0 0 0 0 0 0 0 0 0 0 0 0 1 57 40 1 0 0 0 0 0 0 1 40 4 8 0 1 2 0 0 0 0 0 0 0 0 29 38 16 0
0 0 0 21 0 0 0 0 0 0 0 0 0 0 0 0 3 3 9 1 1 1 0 0 0 0 0 49 12 0 0 0 0 0 3 0 0 0 0 0 0 2 0 0 0
0 0 0 0 0 0 0 0 0 0 0 0 0 2 0 0 0 26 0 0 0 0 0 0 1 1 0 36 16 9 0 0 0 0 0 0 0 0 0 0 0 0 0 0 0
0 0 0 0 0 0 0 0 0 0 0 0 0 9 1 8 1 0 0 0 0 0 0 2 0 0 0 34 46 9 0 0 0 0 1 0 0 0 0 0 0 0 0 0 0
0 0 0 0 0 0 0 0 0 0 0 0 0 0 2 0 8 0 9 15 0 0 17 0 0 0 0 34 51 8 0 7 12 3 0 0 0 0 0 0 0 0 0 0 0
0 0 0 0 0 0 0 0 0 0 0 0 0 1 1 1 0 1 9 0 3 7 0 0 0 4 1 6 22 29 3 1 0 0 0 0 0 0 0 0 0 0 0 0 0
0 0 0 0 0 0 0 0 0 0 0 0 0 0 0 0 33 7 0 0 0 0 0 0 0 0 0 0 0 16 2 0 0 0 0 0 0 0 0 0 0 0 0 0 0
0 0 0 1 0 0 0 0 0 0 0 0 0 2 0 0 4 1 3 0 0 0 0 0 0 0 0 0 6 0 0 0 0 0 0 0 0 0 0 0 0 0 0 0 0
0 0 0 6 0 0 0 0 0 0 0 0 0 1 13 0 5 0 0 0 0 0 0 0 0 0 0 0 3 1 0 0 0 0 0 0 0 0 0 0 0 0 0 0 0
0 0 0 4 0 0 0 0 0 0 0 0 0 0 0 0 0 0 0 0 0 0 0 0 0 0 0 0 0 0 0 0 0 0 0 0 0 0 0 0 0 0 0 0 0
0 0 0 0 0 0 0 0 0 0 0 0 0 0 0 0 0 0 0 0 0 0 0 0 0 0 0 0 0 0 0 0 0 0 0 0 0 0 0 0 0 0 0 0 0
0 0 0 0 0 0 0 0 0 0 0 0 0 0 0 0 0 0 0 0 0 0 0 0 0 0 0 0 0 0 0 0 0 0 0 0 0 0 0 0 0 0 0 0 0
0 0 0 0 0 0 0 0 0 0 0 0 0 0 0 0 0 0 0 0 0 0 0 0 0 0 0 0 0 0 0 0 0 0 0 0 0 0 0 0 0 0 0 0 0
0 0 0 0 0 0 0 0 0 0 0 0 0 0 0 0 0 0 0 0 0 1 0 0 0 0 0 0 0 0 0 0 0 0 0 0 0 0 0 0 0 0 0 0 0
0 0 0 0 0 0 0 0 0 0 0 0 0 0 0 0 0 0 0 0 0 0 0 0 0 0 0 0 0 0 0 0 0 0 0 0 0 0 0 0 0 0 0 0 0
0 0 0 0 0 0 0 0 0 0 0 0 0 0 0 0 0 0 0 0 0 0 0 0 0 0 0 0 0 0 0 0 0 0 0 0 0 0 0 0 0 0 0 0 0

GFSSW_con_mucape_078.txt.gz
CAPE
38 45 37 42 14 16 25 20 16 15 17 21 19 51 105 92 116 67 7 1 64 57 64 38 58 32 251 297 404 292 216 115 57 8 0 0 1 0 0 0 249 166 192 530 1173
27 42 35 36 22 14 20 17 15 7 4 0 6 51 103 132 32 3 0 93 75 119 78 44 48 48 230 233 295 275 212 65 22 28 3 0 13 0 0 0 21 61 101 1051 1189
0 30 42 30 36 15 6 28 12 6 0 0 4 31 106 37 0 0 91 108 106 99 54 52 77 80 95 179 189 167 129 59 83 91 28 35 26 0 0 0 0 9 82 926 1687
24 0 30 25 42 12 3 22 23 10 0 0 0 26 91 0 0 8 75 148 205 118 42 46 102 81 49 84 153 146 140 117 142 142 100 67 29 20 0 0 0 0 54 992 1864
51 7 0 22 29 29 16 0 15 7 0 0 0 43 1 0 0 0 1 78 158 68 55 52 81 55 33 78 119 138 127 143 128 153 72 4 24 34 7 0 0 0 10 630 1286
48 26 0 15 32 36 13 20 6 4 2 0 29 11 0 0 0 0 0 20 34 80 26 43 72 27 33 24 72 66 57 148 138 44 16 76 16 20 12 0 0 3 44 259 439
47 23 0 1 24 1 24 28 5 0 1 33 0 0 0 0 0 0 0 0 17 6 3 8 63 72 25 21 43 70 20 112 117 136 91 26 32 11 18 0 0 26 93 134 188
47 24 0 0 19 0 7 46 23 0 0 40 26 3 0 15 22 6 2 17 0 1 3 23 0 50 63 78 115 90 88 92 100 142 33 46 3 5 9 2 4 24 73 103 74
47 0 0 0 12 0 9 27 15 0 0 11 0 0 0 5 6 5 37 36 12 8 10 16 30 32 77 104 84 95 13 11 42 75 15 5 2 23 17 0 0 6 75 101 46
39 0 0 0 14 0 16 13 8 0 3 0 0 0 0 6 0 1 60 61 33 7 53 9 2 41 84 62 0 11 24 32 43 46 28 17 15 2 0 0 5 9 32 73 61
32 0 0 0 0 0 0 0 0 0 0 0 0 0 0 0 0 54 41 28 26 4 0 0 0 0 6 8 18 28 16 0 27 12 23 10 9 0 0 0 0 6 1 31 53
0 0 0 0 19 0 0 0 0 0 0 0 0 0 0 0 0 70 15 12 0 0 0 0 0 16 30 20 2 23 34 43 17 31 40 9 2 0 0 0 0 7 6 0 16
0 0 0 0 0 0 0 0 0 0 0 0 0 1 0 0 7 2 19 0 0 0 0 0 3 0 40 33 17 22 17 33 5 40 20 11 1 0 0 0 0 0 0 0 0
0 0 0 0 0 0 0 0 0 0 0 0 3 7 4 9 1 0 0 1 0 0 0 0 0 0 29 0 21 19 5 3 0 16 2 1 0 0 0 0 0 0 0 0 1
0 0 0 0 0 0 0 0 0 0 0 0 2 20 5 18 1 2 8 3 0 0 0 0 0 0 0 2 17 2 0 0 0 3 5 1 2 0 0 0 0 0 0 0 23
0 0 0 0 0 0 0 0 0 0 0 0 0 4 1 1 4 0 10 3 11 0 0 0 0 0 5 30 16 0 0 0 5 20 0 6 7 0 0 0 0 0 0 0 3
0 0 0 0 0 0 0 0 0 0 0 0 0 0 0 0 6 1 2 11 0 0 0 0 0 0 0 38 29 9 24 0 0 0 0 0 0 0 0 0 0 0 0 0 0
0 0 0 0 0 0 0 0 0 0 0 2 0 0 0 2 12 5 2 0 5 0 0 0 0 0 1 17 0 35 14 0 0 0 0 0 0 1 0 0 0 0 0 0 0
0 0 0 0 0 0 0 0 0 0 0 0 4 0 0 0 9 24 13 0 2 1 0 0 0 0 0 5 0 5 0 0 0 0 0 0 0 0 0 0 0 0 0 0 0
0 0 0 0 0 0 0 0 0 0 0 0 0 0 0 0 0 0 10 0 1 0 0 0 0 0 0 1 0 13 0 0 0 0 0 0 0 0 0 0 0 0 0 0 0
0 0 0 0 0 0 0 0 0 0 0 0 0 0 0 0 0 0 0 0 0 0 0 0 0 0 0 0 0 0 0 0 0 0 0 0 0 0 0 0 0 0 0 0 0
0 0 0 0 0 0 0 0 0 0 0 0 0 0 0 0 0 0 0 0 0 0 0 0 0 0 0 0 0 0 0 0 0 0 0 0 0 0 0 0 0 0 0 0 0
0 0 0 0 0 0 0 0 0 0 0 0 0 0 0 0 0 0 0 0 0 0 0 0 0 0 0 0 0 0 0 0 0 0 0 0 0 0 0 0 0 0 0 0 0
0 0 0 0 0 0 0 0 0 0 0 0 0 0 0 0 0 0 0 0 0 0 0 0 0 0 0 0 0 0 0 0 0 0 0 0 0 0 0 0 0 0 0 0 0
0 0 0 0 0 0 0 0 0 0 0 0 0 0 0 0 0 0 0 0 0 0 0 0 0 0 0 0 0 0 0 0 0 0 0 0 0 0 0 0 0 0 0 0 0
0 0 0 0 0 0 0 0 0 0 0 0 0 0 0 0 0 0 0 0 0 0 0 0 0 0 0 0 0 0 0 0 0 0 0 0 0 0 0 0 0 0 0 0 0
0 0 0 0 0 0 0 0 0 0 0 0 0 0 0 0 0 0 0 0 0 0 0 0 0 0 0 0 0 0 0 0 0 0 0 0 0 0 0 0 0 0 0 0 0

GFSSW_con_mucape_081.txt.gz
CAPE
1 25 42 38 46 19 9 31 17 11 2 5 0 0 12 22 41 77 42 12 108 108 74 12 69 65 107 174 183 243 130 115 74 33 32 2 0 0 0 0 198 26 370 879 1289
14 0 15 42 41 20 5 35 19 6 0 0 0 0 2 6 1 16 17 23 109 162 108 44 97 84 119 134 214 267 220 241 108 48 34 0 0 0 0 11 12 2 106 808 1385
53 12 0 33 34 30 8 14 23 7 2 0 0 0 0 0 2 0 151 166 209 128 101 98 90 104 76 75 164 210 118 109 53 21 98 4 0 0 0 17 0 0 0 720 1690
41 40 8 0 32 43 28 0 16 4 0 0 0 0 32 56 43 28 94 134 268 140 93 112 140 154 78 69 98 93 60 110 190 159 45 35 4 0 5 3 0 0 40 1016 1408
33 40 37 0 19 37 38 29 19 1 0 0 0 0 8 12 8 0 0 45 196 124 20 97 133 113 58 22 54 123 132 177 148 259 114 32 0 5 1 0 0 0 72 416 930
40 38 31 0 3 29 24 43 1 0 2 0 0 2 17 51 0 2 0 55 142 75 20 1 53 61 29 35 45 46 143 168 206 109 138 146 27 1 1 0 0 0 0 133 708
38 43 37 0 0 20 31 45 24 0 0 1 13 3 11 14 19 8 2 31 28 92 52 0 11 77 7 46 75 117 100 250 162 185 143 193 112 3 0 0 0 0 10 65 87
36 43 0 0 0 9 34 32 36 2 0 1 9 10 15 4 73 25 28 37 1 2 12 1 0 7 83 34 106 107 133 164 122 163 116 113 91 3 0 24 5 4 10 32 89
31 38 12 0 0 20 0 31 23 0 0 0 31 17 21 31 45 11 96 32 17 0 0 0 0 20 91 87 103 85 0 59 92 171 120 69 25 127 31 41 21 8 34 38 61
27 27 0 0 0 11 0 27 14 0 4 0 0 15 2 58 14 2 71 14 38 0 0 0 0 14 76 107 0 0 58 74 69 93 68 79 121 52 15 0 0 0 12 63 52
22 23 0 0 0 13 0 0 0 0 0 0 2 0 0 3 5 88 33 8 10 0 0 0 0 0 25 30 0 4 40 33 46 41 34 44 52 57 8 2 7 15 2 10 45
15 21 0 0 21 0 0 0 0 0 0 0 0 0 0 0 1 73 10 11 0 0 0 0 0 0 27 50 62 79 67 11 14 9 13 26 2 28 20 3 0 0 0 1 22
14 11 0 0 0 0 0 0 0 0 0 0 1 16 12 1 26 7 14 2 0 0 0 0 0 0 25 27 78 31 18 36 14 9 24 33 9 3 1 0 0 0 0 2 13
3 0 0 0 0 0 0 0 0 0 0 0 8 5 14 3 10 0 0 7 0 0 0 6 0 22 38 27 20 37 30 21 24 33 8 3 0 0 0 0 0 0 0 0 6
0 0 0 0 0 0 0 0 0 0 0 0 11 5 8 0 0 11 17 23 0 0 0 0 0 2 31 24 7 33 12 4 30 60 20 29 7 0 0 0 0 0 0 0 0
0 0 0 0 0 0 0 0 0 0 0 0 11 7 14 2 11 9 19 16 0 15 47 0 0 0 28 48 19 3 11 8 13 17 0 7 13 0 17 0 0 0 0 0 0
0 0 0 0 0 0 0 0 0 0 0 0 0 4 1 3 9 6 19 43 0 0 0 0 0 0 14 32 37 15 10 0 0 0 0 0 6 0 0 0 0 0 0 0 0
0 0 0 0 0 0 0 0 0 0 0 0 0 0 9 7 0 3 1 0 8 0 0 0 0 0 28 34 30 17 0 0 0 0 0 0 0 0 0 0 0 0 0 0 0
0 0 0 0 0 0 0 0 0 0 0 0 0 0 10 1 6 3 0 0 0 44 0 0 0 0 0 31 35 41 63 5 0 0 0 3 0 0 0 0 0 0 0 0 0
0 0 0 0 0 0 0 0 0 0 0 0 0 7 0 13 1 1 0 0 0 0 4 9 0 0 17 15 5 15 17 0 9 0 0 0 0 0 0 0 0 0 0 0 0
0 0 0 0 0 0 0 0 0 0 0 0 0 0 0 0 3 0 5 0 1 0 0 2 27 0 10 0 49 13 0 10 4 0 0 0 0 0 0 0 0 0 0 0 0
0 0 0 0 0 0 0 0 0 0 0 0 0 6 19 16 28 8 2 0 0 0 0 0 8 0 0 3 0 15 28 28 0 0 0 0 0 0 0 0 0 0 0 0 0
0 0 0 0 0 0 0 0 0 0 0 0 0 0 0 2 15 3 0 0 0 0 0 0 0 0 0 0 0 0 0 0 10 0 33 0 0 0 0 0 0 0 0 0 0
0 0 0 0 0 0 0 0 0 0 0 0 0 0 0 0 0 4 1 0 3 0 0 0 0 0 0 3 0 0 0 3 4 0 0 0 0 0 0 0 0 0 0 0 0
0 0 0 0 0 0 0 0 0 0 0 0 0 0 1 0 0 0 1 0 0 0 0 0 15 0 0 0 0 0 0 0 0 0 0 0 0 0 0 0 0 0 0 0 0
0 0 0 0 0 0 0 0 0 0 0 0 1 0 0 0 0 4 2 10 12 0 0 0 0 0 0 0 0 0 0 0 0 0 0 0 0 0 0 0 0 0 0 0 0
0 0 0 0 0 0 0 0 0 0 0 0 0 0 0 0 0 0 0 0 0 0 3 5 9 0 0 0 0 0 0 0 0 0 0 0 0 0 0 0 0 0 0 0 0

GFSSW_con_mucape_084.txt.gz
CAPE
37 17 9 17 45 44 9 2 32 12 3 1 0 0 0 0 0 0 0 56 87 158 114 17 12 17 29 54 213 254 94 21 12 17 92 1 0 0 0 30 215 143 609 1231 1352
26 41 28 15 34 42 15 0 26 7 3 0 0 0 0 0 0 10 121 201 120 181 73 17 36 74 38 27 189 138 27 0 28 123 39 2 0 0 0 36 28 164 715 1250 1477
21 43 43 19 1 33 34 13 20 9 1 1 0 0 0 0 6 41 251 299 302 201 123 32 55 89 80 58 137 112 15 1 14 50 80 9 3 0 0 7 11 0 473 1240 1384
17 41 40 36 0 6 39 32 6 6 0 0 0 0 1 34 28 58 73 135 219 197 106 13 63 83 82 54 55 90 3 32 20 54 46 40 1 0 11 0 0 0 282 792 1387
12 42 39 43 0 0 32 42 20 1 2 0 0 0 0 35 30 0 12 25 159 148 62 4 68 92 59 0 19 23 35 24 2 52 27 3 4 2 1 0 0 6 429 795 1189
12 40 29 44 0 0 24 28 35 0 0 2 0 0 13 47 4 20 0 44 164 149 58 58 67 86 76 11 26 47 65 85 81 0 4 47 17 2 0 0 0 0 235 620 1083
19 25 37 43 39 0 13 31 28 12 0 0 47 23 7 47 12 34 29 156 40 118 37 39 26 66 36 48 25 80 90 75 85 30 12 59 53 0 0 0 0 0 0 244 559
11 20 37 28 22 0 6 17 20 25 0 0 24 13 10 6 27 9 54 103 13 6 2 24 6 27 24 24 35 101 90 57 102 47 21 65 10 0 8 1 0 1 0 8 31
1 24 25 17 0 0 10 12 17 1 0 0 0 40 10 29 52 1 27 31 6 0 0 0 3 0 21 28 26 59 0 18 65 101 74 90 27 55 14 7 2 0 0 1 19
2 17 22 0 0 7 10 4 4 0 0 0 0 1 8 26 13 3 23 7 31 1 0 0 0 2 0 21 0 0 1 0 0 45 65 58 32 34 21 5 1 0 0 1 3
11 14 23 0 0 24 0 0 0 0 0 1 0 0 20 2 0 41 8 2 15 0 0 0 0 0 0 0 0 3 0 0 10 55 50 38 39 18 21 0 0 0 0 0 0
12 18 7 0 0 7 0 0 0 0 0 0 0 1 0 0 0 47 24 22 9 0 0 0 0 0 31 29 2 28 0 0 60 57 42 41 18 3 0 0 0 0 0 0 3
11 17 0 0 0 0 0 0 0 0 0 0 2 2 2 0 0 9 0 13 0 0 0 3 4 0 0 0 0 0 0 0 13 9 2 0 0 0 0 0 0 0 0 0 0
0 0 0 0 0 0 0 0 0 0 0 0 5 8 5 0 15 0 10 0 0 0 0 0 0 0 2 12 36 16 46 25 21 0 0 14 0 0 0 0 0 0 0 0 0
0 0 0 0 0 0 0 0 0 0 0 0 9 0 2 16 0 11 5 0 0 0 0 0 0 2 18 14 29 5 32 62 35 45 31 0 0 0 0 0 0 0 0 0 0
0 0 0 0 0 0 0 0 0 0 0 0 4 0 5 8 6 13 1 0 0 0 0 0 0 0 0 18 3 1 24 15 13 18 0 1 0 0 0 0 0 0 0 0 0
0 0 0 3 0 0 0 0 0 0 0 0 0 0 2 5 6 5 0 0 0 0 0 0 0 0 0 15 11 18 5 0 0 0 0 0 0 0 0 0 0 0 0 0 0
0 0 0 0 0 0 0 0 0 0 0 0 0 0 4 1 0 0 1 0 0 2 0 0 0 0 8 33 12 9 11 0 0 0 0 0 0 0 0 0 0 0 0 0 0
0 1 0 0 0 0 0 0 0 0 0 0 0 0 2 0 0 0 0 0 0 1 0 0 0 0 3 29 29 10 0 0 0 0 0 0 0 0 0 0 0 0 0 0 0
0 0 0 0 0 0 0 0 0 0 0 0 0 3 0 0 0 0 0 0 0 0 0 0 0 0 32 24 12 27 16 0 0 0 0 0 0 0 0 0 0 0 0 0 0
0 0 0 0 0 0 0 0 0 0 0 0 0 0 0 0 0 0 0 0 0 0 0 0 0 0 0 0 0 5 0 0 0 0 0 0 0 0 0 0 0 0 0 0 0
0 0 0 0 0 0 0 0 0 0 0 0 0 5 0 0 0 0 0 0 0 0 0 0 0 0 0 0 1 1 6 4 0 0 0 0 0 0 0 0 0 0 0 0 0
0 0 0 0 0 0 0 0 1 0 0 0 0 0 0 4 2 0 0 0 0 0 0 0 0 0 0 0 0 0 0 8 4 0 0 0 0 0 0 0 0 0 0 0 0
0 0 0 0 0 0 0 0 0 0 0 0 0 0 0 0 0 1 0 0 0 0 0 0 0 0 0 0 0 0 0 0 0 0 0 0 0 0 0 0 0 0 0 0 0
0 0 0 0 0 0 0 0 0 0 0 0 0 0 0 0 0 0 0 0 0 0 0 0 0 0 0 0 0 0 0 0 0 0 0 0 0 0 0 0 0 0 0 0 0
0 0 0 0 0 0 0 0 0 0 0 0 0 0 0 0 0 0 0 0 0 0 0 0 0 0 0 0 0 0 0 0 0 0 0 0 0 0 0 0 0 0 0 0 0
0 0 0 0 0 0 0 0 0 0 0 0 0 0 0 0 0 0 0 0 1 1 0 0 0 0 0 0 0 0 0 0 0 0 0 0 0 0 0 0 0 0 0 0 0

GFSSW_con_mucape_087.txt.gz
CAPE
21 21 35 19 11 17 43 20 9 18 10 10 4 2 1 0 0 2 0 2 42 95 102 36 27 0 27 1 138 235 132 3 0 3 35 1 0 0 0 45 216 333 885 1179 1295
15 19 39 36 11 11 38 32 2 14 5 7 2 0 0 0 0 0 0 154 201 106 93 63 24 32 34 24 139 103 132 0 7 59 15 0 0 0 9 65 351 810 1241 1351 1255
14 12 42 39 26 0 13 61 23 13 2 2 0 0 0 0 0 0 198 216 179 352 214 129 52 42 37 35 48 33 68 1 52 66 32 0 5 0 1 6 4 420 1352 1357 1184
12 19 38 37 34 1 0 49 40 6 2 1 1 0 0 0 0 34 87 181 3 275 191 139 26 59 41 31 13 89 8 0 20 83 57 35 1 12 0 0 2 406 1190 1237 1288
5 15 42 21 31 15 0 37 33 24 1 3 0 0 0 7 13 16 87 34 126 217 158 135 26 10 26 5 32 107 9 0 32 101 100 55 3 0 0 0 143 650 902 1446 1353
12 24 32 39 33 35 0 12 36 39 0 0 1 5 0 12 0 1 43 155 144 212 151 50 1 41 40 50 26 0 39 10 26 49 38 111 54 5 0 0 238 730 1023 1291 1342
12 17 30 33 34 36 0 7 25 28 10 0 4 4 7 4 6 3 109 198 97 76 75 55 0 35 48 51 0 3 9 27 64 4 33 45 26 7 0 1 1 571 775 953 1193
9 18 33 27 23 11 0 2 13 20 12 0 0 0 1 0 0 1 12 90 15 6 2 9 23 0 22 26 1 13 65 0 56 1 22 1 7 17 7 4 0 16 416 598 688
10 17 31 22 18 0 0 8 5 3 0 0 0 5 0 18 15 0 2 25 9 12 1 7 9 0 15 39 42 65 0 0 49 43 5 0 0 2 13 18 4 0 0 0 236
11 15 25 18 0 0 5 7 0 0 0 0 0 0 6 8 0 13 5 10 28 32 0 2 0 0 4 26 0 0 0 0 0 0 0 0 0 0 19 32 17 0 0 0 0
0 18 18 1 0 11 1 0 0 0 0 0 0 0 2 0 0 36 1 0 2 5 1 0 0 0 0 1 0 7 0 0 0 40 0 0 0 39 34 15 4 0 0 0 0
0 19 18 0 0 0 0 0 0 0 0 0 0 0 0 0 2 23 0 0 19 0 0 0 5 0 22 44 14 37 32 0 25 52 0 0 0 0 33 26 0 0 0 0 0
0 13 0 0 0 0 0 0 0 0 0 0 0 0 0 0 0 0 0 3 1 6 1 13 0 0 8 12 1 0 0 0 0 21 51 0 0 0 7 1 0 0 0 0 0
0 0 0 0 0 0 0 0 0 0 0 0 11 10 3 1 0 0 0 0 10 3 8 0 11 21 2 0 0 0 0 0 27 0 0 0 0 0 0 0 0 0 0 0 0
0 0 0 0 0 0 0 0 0 0 0 8 1 0 9 9 0 0 0 6 0 0 0 9 1 4 16 0 0 14 0 0 1 0 0 0 0 0 0 0 0 0 0 0 0
0 0 0 0 0 0 0 0 0 0 0 0 0 0 0 2 1 0 0 0 1 0 0 1 0 0 8 3 8 2 2 0 6 0 0 0 0 0 0 0 0 0 0 0 0
0 0 0 0 0 0 0 0 0 0 0 0 0 0 0 0 0 0 0 0 0 15 0 5 0 0 1 0 3 5 2 1 6 0 0 0 0 0 0 0 0 0 0 0 0
0 0 0 0 0 0 0 0 0 0 0 0 0 0 0 0 0 0 0 0 0 0 19 0 0 0 1 0 0 3 0 0 0 0 0 0 0 0 0 0 0 0 0 0 0
0 0 0 0 0 0 0 0 0 0 0 0 0 0 0 0 0 0 0 0 0 0 0 0 0 0 0 0 0 0 0 0 0 0 0 0 0 0 0 0 0 0 0 0 0
0 0 0 0 0 0 0 0 0 0 0 0 0 0 0 0 0 0 0 0 0 0 0 0 0 0 0 0 0 0 0 0 0 0 0 0 0 0 0 0 0 0 0 0 0
0 0 0 0 0 0 0 0 0 0 0 0 0 0 0 0 0 0 0 0 0 0 0 0 0 0 0 0 0 0 0 0 0 0 0 0 0 0 0 0 0 0 0 0 0
0 0 0 0 0 0 0 0 0 0 0 0 0 0 0 0 0 0 0 0 0 0 0 0 0 0 0 0 0 0 0 0 0 0 0 0 0 0 0 0 0 0 0 0 0
0 0 0 0 0 0 0 0 0 0 0 0 0 0 3 1 0 1 0 0 0 0 0 0 0 0 0 0 0 0 0 6 8 0 0 0 0 0 0 0 0 0 0 0 0
0 0 0 0 0 0 0 0 0 0 0 0 0 0 0 0 0 0 0 0 0 0 0 0 0 0 0 0 0 0 0 0 4 0 0 0 0 0 0 0 0 0 0 0 0
0 0 0 0 0 0 0 0 0 0 0 0 0 0 0 0 0 2 0 0 0 0 0 0 0 0 0 0 0 0 0 0 0 0 0 0 0 0 0 0 0 0 0 0 0
0 0 0 0 0 0 0 0 0 0 0 0 0 0 0 0 0 0 0 0 0 0 0 0 0 0 0 0 0 0 0 0 0 0 0 0 0 0 0 0 0 0 0 0 0
0 0 0 0 0 0 0 0 0 0 0 0 0 0 0 0 0 0 0 0 0 0 1 4 0 0 0 0 0 0 0 0 0 0 0 0 0 0 0 0 0 0 0 0 0

GFSSW_con_mucape_090.txt.gz
CAPE
9 14 11 43 29 7 17 57 19 7 13 11 14 8 7 0 0 0 0 0 1 49 73 1 15 24 12 9 73 220 204 3 0 0 0 1 0 0 42 150 281 534 687 819 565
9 9 13 42 30 27 17 21 45 11 15 4 4 1 0 0 0 0 0 21 102 103 34 18 15 36 13 25 30 170 136 0 0 0 3 7 13 28 159 184 621 904 1239 1173 825
6 9 14 43 34 36 15 0 49 24 10 6 5 0 0 0 0 0 46 40 20 125 122 54 44 47 35 34 43 2 91 51 33 58 68 32 26 40 152 56 361 940 1147 1146 956
1 8 10 42 27 36 17 0 43 49 14 7 1 0 0 0 0 0 84 70 233 189 0 48 38 52 32 51 30 59 0 98 37 70 98 63 13 5 35 6 94 1094 1279 1067 870
0 7 18 19 43 33 27 0 24 37 22 0 3 0 0 0 0 0 31 43 241 209 64 20 43 38 28 20 20 43 0 9 17 101 61 42 5 0 0 6 148 981 1130 1065 966
2 7 9 16 35 41 37 0 4 39 44 0 6 20 0 0 0 0 5 122 148 126 63 75 75 35 9 20 27 2 32 11 7 39 90 50 19 0 0 188 601 784 1035 1071 938
3 6 8 14 22 23 30 0 7 25 40 16 0 1 0 0 0 0 285 188 126 79 45 31 55 11 53 40 14 43 50 6 14 17 69 71 29 15 0 53 611 772 886 1148 1081
2 1 5 14 20 13 0 0 15 9 27 33 0 0 0 0 0 2 22 116 48 53 3 24 4 10 21 59 23 44 58 0 63 0 36 33 28 27 8 0 270 480 772 882 1041
5 0 1 4 13 0 0 0 9 5 1 0 0 0 0 0 12 0 0 29 28 33 33 2 0 0 10 76 30 57 0 0 83 16 21 0 15 27 9 0 0 147 246 633 700
10 0 5 2 12 0 0 2 0 0 0 0 0 0 0 0 2 0 4 2 39 20 28 0 0 4 1 57 0 0 0 0 0 0 0 1 4 5 1 0 0 9 5 118 501
9 0 5 0 0 0 0 0 0 0 0 0 0 0 0 0 0 3 0 3 8 12 0 0 0 8 0 57 3 21 24 50 46 0 0 0 0 0 43 4 0 2 0 0 0
9 0 0 0 0 0 0 0 0 0 0 0 0 0 0 0 5 17 5 21 13 0 0 0 0 0 15 45 53 49 21 37 62 2 0 0 0 4 0 0 0 0 0 0 0
6 0 0 0 0 0 0 0 0 0 0 0 0 0 8 0 0 0 0 0 24 1 0 1 0 0 43 51 40 43 23 4 0 1 0 0 0 0 0 0 0 2 0 0 0
11 0 0 0 0 0 0 0 0 0 0 0 0 0 3 5 0 0 0 0 22 4 1 0 5 0 14 16 2 0 0 0 0 0 4 0 0 0 0 0 0 0 0 0 0
9 0 0 0 0 0 0 0 0 0 0 0 0 0 0 0 0 0 0 0 3 0 0 17 37 9 12 3 1 0 5 11 24 0 0 0 1 0 0 0 0 0 0 0 0
6 0 0 0 0 0 0 0 0 0 0 0 0 0 0 0 0 0 0 0 0 1 8 11 2 13 5 3 0 13 18 0 0 0 0 0 0 0 0 0 0 0 0 0 0
0 0 0 0 0 0 0 0 0 0 0 0 0 0 0 0 0 0 0 0 0 0 0 6 5 8 4 19 21 28 0 0 0 0 0 0 0 0 0 0 0 0 0 0 0
0 0 0 0 0 0 0 0 0 0 0 0 0 0 0 0 0 0 0 0 0 0 0 8 0 3 6 5 9 14 10 0 0 0 0 0 0 0 0 0 0 0 0 0 0
0 0 0 0 0 0 0 0 0 0 0 0 0 0 0 0 0 0 0 0 0 0 0 0 0 0 2 0 0 3 0 0 0 0 0 0 0 0 0 0 0 0 0 0 0
0 0 0 0 0 0 0 0 0 0 0 0 0 0 0 0 0 0 0 0 0 0 0 0 0 0 0 3 0 0 0 0 0 0 0 0 0 0 0 0 0 0 0 0 0
0 0 0 0 0 0 0 0 0 0 0 0 0 0 0 0 0 0 0 0 0 0 0 0 0 0 0 0 0 0 0 0 0 0 0 0 0 0 0 0 0 0 0 0 0
0 0 0 0 0 0 0 0 0 0 0 0 0 0 0 0 0 0 0 0 0 0 0 0 0 0 0 0 0 0 0 0 0 0 0 0 0 0 0 0 0 0 0 0 0
0 0 0 0 0 0 0 0 0 0 0 0 0 0 0 0 0 0 0 0 0 0 0 0 0 0 0 0 0 0 0 0 5 0 0 0 0 0 0 0 0 0 0 0 0
0 0 0 0 0 0 0 0 0 0 0 0 0 0 0 0 0 0 0 0 0 0 0 0 0 0 0 0 0 0 0 0 0 0 0 0 0 0 0 0 0 0 0 0 0
0 0 0 0 0 0 0 0 0 0 0 0 0 0 0 0 0 0 0 0 0 0 0 0 0 0 0 0 0 0 0 0 0 0 0 0 0 0 0 0 0 0 0 0 0
0 0 0 0 0 0 0 0 0 0 0 0 0 0 0 0 0 0 0 0 0 0 0 0 0 0 0 0 0 0 0 0 0 0 0 0 0 0 0 0 0 0 0 0 0
0 0 0 0 0 0 0 0 0 0 0 0 0 0 0 0 0 0 0 0 0 0 0 0 0 0 0 0 0 0 0 0 0 0 0 0 0 0 0 0 0 0 0 0 0

GFSSW_con_mucape_093.txt.gz
CAPE
1 0 4 7 26 15 16 11 23 18 21 5 7 10 8 4 0 0 0 0 0 18 23 3 0 6 23 0 8 229 38 31 0 0 0 0 0 0 52 168 240 193 239 307 453
0 0 4 6 31 19 26 13 9 43 19 3 3 4 2 0 0 0 0 2 80 64 6 0 0 9 30 9 14 87 21 19 2 1 0 10 3 43 293 422 477 800 937 678 592
3 0 0 7 28 17 31 18 7 48 23 0 4 4 1 0 0 0 21 10 16 58 36 22 0 16 29 29 20 36 22 35 29 47 33 71 33 82 240 421 609 982 842 776 545
6 1 0 9 16 25 28 21 2 43 37 0 3 0 0 0 0 0 36 13 53 97 5 0 16 10 0 13 4 46 13 0 217 99 89 56 34 142 191 214 537 1380 1118 751 555
8 2 0 2 12 22 16 28 12 16 51 3 1 3 0 0 0 0 10 3 147 156 61 26 47 11 0 19 6 46 26 0 28 60 86 55 31 213 105 135 848 1302 1226 1011 765
4 4 0 0 10 12 20 27 0 8 40 7 0 2 0 0 0 0 0 22 143 78 109 69 32 11 10 20 19 15 5 21 2 5 125 61 18 53 54 371 581 1000 1030 978 876
10 9 2 0 12 8 4 19 1 2 28 39 0 0 0 0 0 0 81 152 129 114 49 35 86 62 0 10 4 22 33 36 0 16 11 79 33 42 124 421 519 471 686 708 810
4 3 5 2 3 3 3 0 1 12 19 29 0 0 0 0 0 0 53 140 75 64 32 15 26 59 21 12 56 24 21 0 0 0 16 53 24 25 45 243 256 368 419 681 601
13 5 9 0 0 0 0 0 1 12 2 0 0 0 0 0 0 0 0 27 51 40 50 31 1 24 14 3 40 43 14 11 11 0 19 73 80 1 12 27 44 122 247 429 622
29 6 3 0 0 0 0 0 0 0 0 0 0 0 0 0 0 0 0 10 9 14 30 0 2 2 0 43 0 0 0 0 1 0 0 42 20 6 0 0 0 30 47 162 304
18 5 2 0 0 0 0 0 0 0 0 0 0 0 0 0 0 0 6 2 5 0 0 3 0 0 7 3 0 0 0 0 3 0 0 0 29 11 0 0 0 0 5 2 86
8 9 12 1 0 2 0 0 0 0 0 0 0 0 0 0 0 0 0 6 0 0 0 0 5 0 0 24 0 25 35 2 8 0 0 0 0 22 2 2 0 0 0 0 0
13 10 15 11 0 0 0 0 0 0 0 0 0 0 0 0 0 0 0 0 0 0 3 0 1 0 0 5 2 9 48 51 0 0 0 0 0 0 0 0 0 0 0 0 0
14 20 19 1 0 0 0 0 0 0 0 0 0 0 0 0 0 0 0 0 3 1 8 46 0 0 72 17 23 9 46 71 15 0 0 0 12 1 0 0 0 0 0 0 0
18 25 20 0 0 0 0 0 0 0 0 0 0 0 0 0 0 0 0 0 3 0 2 2 5 9 6 14 14 19 7 2 0 0 0 0 1 0 0 0 0 0 0 0 0
11 20 23 0 0 0 0 0 0 0 0 0 0 0 0 0 0 0 0 0 5 0 33 12 37 1 16 25 42 41 26 8 2 0 0 0 0 0 0 0 0 0 0 0 0
18 7 16 0 0 0 0 0 0 0 0 0 0 0 0 0 0 0 0 4 1 1 8 4 5 22 24 14 8 26 4 0 0 0 0 0 0 0 0 0 0 0 0 0 0
12 14 7 0 0 0 0 0 0 0 0 0 0 0 0 0 0 0 0 0 0 0 0 1 0 0 27 1 0 0 1 0 0 0 0 0 0 0 0 0 0 0 0 0 0
24 13 13 0 0 0 0 0 0 0 0 0 0 0 0 0 0 0 0 0 0 1 0 0 2 6 11 5 9 0 0 0 0 0 0 0 0 0 0 0 0 0 0 0 0
2 37 0 0 0 0 0 0 0 0 0 0 0 0 0 0 0 0 0 0 0 0 0 0 0 0 0 0 2 2 0 0 0 0 0 0 0 0 0 0 0 0 0 0 0
1 34 0 0 0 0 0 0 0 0 0 0 0 0 0 0 0 0 0 0 0 0 0 0 0 0 0 0 0 0 0 0 0 0 0 0 0 0 0 0 0 0 0 0 0
11 0 0 0 0 0 0 0 0 0 0 0 0 0 0 0 0 0 0 0 0 0 0 0 0 0 0 0 0 0 0 0 0 0 0 0 0 0 0 0 0 0 0 0 0
3 0 0 0 0 0 0 0 0 0 0 0 0 0 0 0 0 0 0 0 0 0 0 0 0 0 0 0 0 0 0 0 0 0 0 0 0 0 0 0 0 0 0 0 0
0 0 0 0 0 0 0 0 0 0 0 0 0 0 0 0 0 0 0 0 0 0 0 0 0 0 0 0 0 0 0 0 0 0 0 0 0 0 0 0 0 0 0 0 0
0 0 0 0 0 0 0 0 0 0 0 0 0 0 0 0 0 0 0 0 0 0 0 0 0 0 0 0 0 0 0 0 0 0 0 0 0 0 0 0 0 0 0 0 0
0 0 0 0 0 0 0 0 0 0 0 0 0 0 0 0 0 0 0 0 0 0 0 0 0 0 0 0 0 0 0 0 0 0 0 0 0 0 0 0 0 0 0 0 0
0 0 0 0 0 0 0 0 0 0 0 0 0 0 0 0 0 0 0 0 0 0 0 0 0 0 0 0 0 0 0 0 0 0 0 0 0 0 0 0 0 0 0 0 0

GFSSW_con_mucape_096.txt.gz
CAPE
4 10 7 0 0 24 7 3 7 8 21 11 0 9 10 3 0 0 0 0 0 22 44 0 1 0 31 11 6 77 129 79 24 8 0 10 0 0 77 106 56 4 0 66 155
3 9 13 3 0 27 13 11 9 0 36 3 1 11 7 0 0 0 0 0 39 47 0 0 0 0 8 22 10 76 18 7 12 11 13 34 1 0 376 400 312 347 576 53 62
15 6 17 5 0 2 17 12 6 0 39 8 2 3 1 0 0 0 8 25 1 38 0 0 0 0 0 28 16 24 12 0 38 9 65 99 30 6 245 277 363 136 344 92 21
23 3 20 4 0 0 18 12 8 0 21 30 9 2 0 0 0 0 21 2 28 18 12 0 0 0 11 1 22 27 2 10 2 56 74 79 32 4 109 138 375 351 610 339 307
40 26 17 12 4 2 22 9 8 0 6 44 6 29 0 0 0 0 19 1 11 12 13 0 12 31 21 1 4 20 0 18 2 108 31 106 58 0 74 159 612 1003 807 336 116
13 53 25 8 7 3 0 17 12 0 0 25 3 10 0 0 0 0 0 0 22 32 55 29 20 44 74 5 29 6 0 1 14 4 74 88 64 19 82 191 595 903 785 402 295
28 12 28 9 4 1 0 7 0 0 0 30 10 0 0 0 0 0 0 55 42 48 13 2 22 72 4 58 2 16 20 0 3 30 52 22 87 34 76 285 468 818 609 523 432
10 6 13 0 10 3 3 0 0 0 2 29 16 0 0 0 0 0 11 56 44 11 17 38 58 79 107 39 74 3 20 33 0 1 18 22 3 3 100 225 221 336 369 401 566
4 27 9 4 9 1 0 0 0 4 1 6 0 0 0 0 0 1 3 1 10 17 20 39 6 7 13 118 24 26 0 20 117 16 0 0 3 53 102 118 131 233 292 296 310
34 4 16 9 22 1 0 0 0 0 0 0 0 0 0 0 0 0 0 0 0 8 21 10 0 15 10 74 0 0 4 10 12 73 1 0 31 23 84 86 57 123 300 297 276
56 3 25 10 11 0 0 0 0 0 0 0 0 0 0 0 0 0 0 0 1 0 0 2 8 0 0 3 6 0 21 20 41 66 0 0 0 50 54 63 30 23 103 256 293
13 3 23 7 16 0 0 0 0 0 0 0 0 0 0 0 0 0 0 0 0 0 0 0 1 0 0 6 0 5 65 52 74 21 0 0 0 0 9 13 12 12 20 43 109
7 7 7 13 15 0 0 0 0 0 0 0 0 0 0 0 0 0 0 0 0 0 0 0 0 0 0 7 18 3 37 62 14 0 0 0 0 0 16 6 0 3 15 2 0
6 4 3 12 13 0 0 0 0 0 0 0 0 0 0 0 0 0 0 0 0 0 0 0 0 0 0 22 13 2 6 50 16 0 0 0 0 0 0 1 0 0 0 4 7
22 2 1 53 5 0 0 0 0 0 0 0 0 0 0 0 0 0 3 0 0 11 0 9 1 4 3 50 33 68 84 49 38 1 0 0 0 0 0 4 0 0 0 0 0
7 4 8 13 4 0 0 0 0 0 0 0 0 0 0 0 1 9 0 0 2 2 4 8 2 2 17 42 67 28 21 20 33 0 0 0 0 0 0 0 4 11 0 0 2
3 12 21 1 8 0 0 0 0 0 0 0 0 0 0 0 0 0 0 0 0 0 0 1 14 20 26 36 35 33 6 0 0 0 0 0 0 0 0 0 0 0 0 0 0
1 2 1 1 0 0 0 0 0 0 0 0 0 0 0 0 0 0 0 0 0 0 0 0 1 9 9 0 10 10 5 0 0 0 0 0 0 0 0 0 0 0 0 0 0
0 0 3 0 0 0 0 0 0 0 0 0 0 0 0 0 0 0 0 0 0 0 0 0 10 16 0 0 0 2 2 0 0 0 0 0 0 0 0 0 0 0 0 0 0
0 0 3 0 0 0 0 0 0 0 0 0 0 0 0 0 0 0 0 0 0 0 0 0 2 5 7 1 0 0 0 0 0 0 0 0 0 0 0 0 0 0 0 0 0
0 0 0 0 0 0 0 0 0 0 0 0 0 0 0 0 0 0 0 0 0 0 0 0 0 0 0 0 0 0 0 0 0 0 0 0 0 0 0 0 0 0 0 0 0
0 0 0 0 0 0 0 0 0 0 0 0 0 0 0 0 0 0 0 0 0 0 0 0 0 0 0 0 0 0 0 0 0 0 0 0 0 0 0 0 0 0 0 0 0
0 0 0 0 0 0 0 0 0 0 0 0 0 0 0 0 0 0 0 0 0 0 0 0 0 0 0 0 0 0 0 0 0 0 0 0 0 0 0 0 0 0 0 0 0
0 0 0 0 0 0 0 0 0 0 0 0 0 0 0 0 0 0 0 0 0 0 0 0 0 0 0 0 0 0 0 0 0 0 0 0 0 0 0 0 0 0 0 0 0
0 0 0 0 0 0 0 0 0 0 0 0 0 0 0 0 0 0 0 0 0 0 0 0 0 0 0 0 0 0 0 0 0 0 0 0 0 0 0 0 0 0 0 0 0
0 0 0 0 0 0 0 0 0 0 0 0 0 0 0 0 0 0 0 0 0 0 0 0 0 0 0 0 0 0 0 0 0 0 0 0 0 0 0 0 0 0 0 0 0
0 0 0 0 0 0 0 0 0 0 0 0 0 0 0 0 0 0 0 0 0 0 0 0 0 0 0 0 0 0 0 0 0 0 0 0 0 0 0 0 0 0 0 0 0

GFSSW_con_mucape_099.txt.gz
CAPE
15 8 11 5 16 7 0 0 14 4 20 29 0 0 2 3 0 0 0 0 0 10 31 0 0 0 2 15 18 71 83 27 42 54 2 0 8 2 71 211 104 1 0 3 83
33 26 15 11 10 23 1 0 23 15 14 36 0 0 2 1 0 0 0 0 16 63 2 0 0 0 3 24 38 48 29 4 1 54 2 0 8 19 189 306 228 10 323 237 24
114 29 15 40 10 19 12 0 22 17 2 45 0 0 0 0 0 0 16 51 2 11 0 0 0 0 0 22 38 49 4 0 0 2 104 192 147 25 6 189 229 26 330 109 71
63 16 4 9 1 6 5 0 10 23 2 45 1 13 1 0 0 0 22 0 68 2 0 0 0 0 0 1 24 39 0 0 0 3 103 118 140 77 16 29 46 195 430 178 107
39 117 4 22 10 18 6 1 11 24 9 39 0 29 0 0 0 0 10 1 0 0 0 0 0 1 0 2 11 42 1 6 13 6 47 145 123 85 2 0 36 336 297 129 52
34 85 11 5 25 10 9 6 9 26 3 38 2 2 0 0 0 0 0 0 0 0 0 0 0 1 8 3 44 0 0 0 15 27 116 104 81 38 29 20 30 242 300 144 81
9 59 13 13 3 4 4 0 0 17 3 37 7 0 0 0 0 0 0 0 0 1 0 0 0 0 12 16 44 17 31 21 0 24 99 28 10 10 22 12 92 149 477 365 178
27 28 25 3 10 6 7 0 0 14 25 30 8 0 0 0 0 0 0 0 0 0 0 1 29 1 0 22 74 64 27 44 0 4 54 3 0 55 6 0 71 122 444 323 280
12 13 35 3 8 8 9 0 0 32 18 21 0 0 0 0 0 0 0 0 0 0 3 26 27 0 3 86 19 84 0 86 41 2 11 0 0 0 11 2 61 104 211 379 272
24 52 26 20 5 2 2 0 12 14 9 0 0 0 0 0 0 0 0 0 0 0 31 30 0 0 3 123 0 60 8 36 88 96 8 0 3 0 10 6 48 58 73 294 277
14 66 10 13 7 6 1 0 0 0 0 0 0 0 0 0 0 0 0 0 0 7 0 0 0 0 0 0 0 45 2 2 50 118 13 0 0 0 27 37 66 67 52 99 210
21 36 26 19 20 1 1 0 0 0 0 0 0 0 0 0 0 0 0 0 0 0 0 0 0 0 0 0 0 16 0 98 146 107 30 0 0 0 0 26 36 49 48 91 118
22 31 12 26 23 3 0 0 0 0 0 0 0 0 0 0 0 0 0 0 0 0 0 5 0 0 2 5 4 0 0 58 31 55 29 0 0 0 0 41 37 45 41 49 78
12 16 29 19 12 0 0 0 0 0 0 0 0 0 0 0 0 0 0 0 0 0 0 1 0 0 0 6 13 3 3 90 66 106 0 26 0 0 0 0 45 17 21 63 93
28 10 6 9 2 0 0 0 0 0 0 0 0 0 0 0 0 0 1 0 0 0 0 0 1 0 7 1 13 0 11 61 29 48 0 0 0 0 0 1 9 22 35 18 31
30 6 7 3 0 0 0 0 0 0 0 0 0 0 0 0 1 0 0 0 4 0 1 0 0 9 40 33 37 42 25 35 10 0 1 1 1 0 0 0 4 2 34 33 5
24 38 9 6 0 0 0 0 0 0 0 0 0 0 0 0 0 0 0 0 0 0 0 5 24 33 34 22 34 52 3 0 0 0 0 0 0 0 0 0 0 3 3 4 0
4 43 2 0 0 0 0 0 0 0 0 0 0 0 0 0 0 0 0 0 0 0 0 0 25 5 22 6 8 6 1 0 0 0 0 0 0 0 0 0 0 0 0 0 0
0 6 4 0 1 0 0 0 0 0 0 0 0 0 0 0 0 0 0 0 0 0 0 0 1 0 1 11 1 0 0 0 0 0 0 0 0 0 0 0 0 0 0 0 0
0 1 2 0 0 0 0 0 0 0 0 0 0 0 0 0 0 0 0 0 0 0 0 0 1 1 0 0 0 0 0 0 0 0 0 0 0 0 0 0 0 0 0 0 0
0 0 0 0 0 0 0 0 0 0 0 0 0 0 0 0 0 0 0 0 0 0 0 0 0 0 0 0 0 2 0 0 0 0 0 0 0 0 0 0 0 0 0 0 0
0 0 0 0 0 0 0 0 0 0 0 0 0 0 0 0 0 0 0 0 0 0 0 0 0 0 0 0 0 0 0 0 0 0 0 0 0 0 0 0 0 0 0 0 0
0 0 0 0 0 0 0 0 0 0 0 0 0 0 0 0 0 0 0 0 0 0 0 0 0 0 0 0 0 0 0 0 0 0 0 0 0 0 0 0 0 0 0 0 0
0 0 0 0 0 0 0 0 0 0 0 0 0 0 0 0 0 0 0 0 0 0 0 0 0 0 0 0 0 0 0 0 0 0 0 0 0 0 0 0 0 0 0 0 0
0 0 0 0 0 0 0 0 0 0 0 0 0 0 0 0 0 0 0 0 0 0 0 0 0 0 0 0 0 0 0 0 0 0 0 0 0 0 0 0 0 0 0 0 0
0 0 0 0 0 0 0 0 0 0 0 0 0 0 0 0 0 0 0 0 0 0 0 0 0 0 0 0 0 0 0 0 0 0 0 0 0 0 0 0 0 0 0 0 0
0 0 0 0 0 0 0 0 0 0 0 0 0 0 0 0 0 0 0 0 0 0 0 0 0 0 0 0 0 0 0 0 0 0 0 0 0 0 0 0 0 0 0 0 0

GFSSW_con_mucape_102.txt.gz
CAPE
15 80 14 1 7 13 13 13 14 1 0 10 14 0 2 3 0 0 0 0 0 3 25 0 0 0 1 12 32 40 69 0 0 11 29 17 96 64 66 13 66 166 19 11 11
3 36 100 2 13 5 14 3 13 1 0 0 22 0 4 0 0 0 0 0 14 57 0 0 0 0 4 19 27 61 23 9 0 7 42 9 81 86 45 39 59 147 75 130 24
0 3 31 8 15 11 0 15 9 7 0 0 34 1 0 0 0 0 0 4 52 0 0 0 0 0 1 11 29 23 8 0 5 12 41 72 132 115 49 13 14 26 138 188 28
0 0 26 39 10 1 5 13 9 1 0 0 33 0 0 0 0 0 15 5 36 0 0 0 0 0 0 0 0 34 2 5 4 33 21 37 146 129 170 1 42 64 226 183 62
14 9 26 104 9 5 7 7 2 3 7 15 20 14 0 0 0 0 0 27 0 0 0 0 0 0 0 0 2 2 0 0 14 6 0 4 76 99 171 163 92 9 49 289 180
22 18 41 88 33 15 7 3 3 0 0 10 19 6 0 0 0 0 0 0 0 2 0 11 8 9 9 6 8 0 0 0 13 9 7 12 49 110 110 10 63 24 101 262 237
28 22 12 74 31 29 16 7 3 0 12 13 31 0 0 0 0 0 0 0 5 2 0 1 16 15 21 16 16 0 17 18 8 0 10 17 58 102 53 15 15 6 6 75 217
27 18 48 61 31 22 5 5 1 0 20 34 36 0 0 0 0 0 0 3 7 8 16 23 31 35 15 13 5 85 85 46 9 29 15 156 0 6 42 22 45 0 3 77 185
15 16 33 73 17 19 14 1 0 1 31 39 7 0 0 0 0 0 0 0 10 29 31 29 43 12 0 7 189 67 40 28 22 52 33 159 12 52 28 20 35 12 4 48 254
10 10 12 41 19 16 23 1 0 4 9 0 0 0 0 0 0 0 0 0 3 20 44 42 6 0 0 0 114 27 77 40 37 51 110 114 56 10 0 1 13 0 4 23 100
10 2 36 44 9 23 22 10 0 0 0 0 0 0 0 0 0 0 0 0 0 0 0 0 0 0 0 55 55 67 59 73 93 4 94 44 11 0 0 31 25 0 10 25 35
14 10 3 50 28 20 21 0 1 0 0 0 0 0 0 0 0 0 0 0 0 0 0 0 0 0 5 17 41 47 111 82 144 145 99 104 40 0 0 4 0 1 1 18 72
9 1 16 36 29 5 5 1 0 0 0 0 0 0 0 0 0 0 0 0 0 0 0 0 0 0 32 8 0 2 15 60 135 170 202 144 77 19 5 0 1 0 33 29 78
14 13 87 14 23 10 1 0 0 0 0 0 0 0 0 0 0 0 0 0 0 0 0 1 0 0 26 0 3 0 0 96 194 292 258 109 13 2 0 0 0 13 46 52 44
15 23 90 20 23 3 0 0 0 0 0 0 0 0 0 0 0 0 0 0 0 0 0 20 0 17 0 0 3 9 2 107 153 131 166 40 0 0 0 0 0 4 49 39 14
26 26 22 5 15 0 0 0 0 0 0 0 0 0 0 0 0 0 0 0 0 0 0 0 2 3 75 3 6 68 14 38 56 46 0 0 0 0 0 0 13 40 52 23 23
27 9 8 3 1 0 0 0 0 0 0 0 0 0 0 0 0 0 0 0 3 38 5 2 28 35 36 49 64 44 5 59 0 2 1 0 17 0 0 0 10 20 11 2 3
1 14 9 12 4 0 0 0 0 0 0 0 0 0 0 0 0 0 0 0 0 0 0 76 96 8 43 55 44 34 0 5 2 2 1 0 5 0 0 0 1 1 1 2 0
20 12 4 6 0 1 0 0 0 0 0 0 0 0 0 0 0 0 0 0 0 0 0 22 17 1 5 1 23 7 0 0 0 0 0 0 0 0 0 0 0 0 0 1 4
7 12 1 0 0 0 0 0 0 0 0 0 0 0 0 0 0 0 0 0 0 0 0 0 69 0 6 2 0 0 0 0 0 0 0 0 0 0 0 0 0 0 0 0 0
4 2 2 5 0 0 0 0 0 0 0 0 0 0 0 0 0 0 0 0 0 0 0 0 0 0 1 0 0 0 0 0 0 0 0 0 0 0 0 0 0 0 0 0 0
0 0 0 0 0 0 0 0 0 0 0 0 0 0 0 0 0 0 0 0 0 0 0 0 0 0 0 0 0 0 0 0 0 0 0 0 0 0 0 0 0 0 0 0 0
0 0 0 0 0 0 0 0 0 0 0 0 0 0 0 0 0 0 0 0 0 0 0 0 0 0 0 0 0 0 0 0 0 0 0 0 0 0 0 0 0 0 0 0 0
0 0 0 0 0 0 0 0 0 0 0 0 0 0 0 0 0 0 0 0 0 0 0 0 0 0 0 0 0 0 0 0 0 0 0 0 0 0 0 0 0 0 0 0 0
0 0 0 0 0 0 0 0 0 0 0 0 0 0 0 0 0 0 0 0 0 0 0 0 0 0 0 0 0 0 0 0 0 0 0 0 0 0 0 0 0 0 0 0 0
0 0 0 0 0 0 0 0 0 0 0 0 0 0 0 0 0 0 0 0 0 0 0 0 0 0 0 0 0 0 0 0 0 0 0 0 0 0 0 0 0 0 0 0 0
0 0 0 0 0 0 0 0 0 0 0 0 0 0 0 0 0 0 0 0 0 0 0 0 0 0 0 0 0 0 0 0 0 0 0 0 0 0 0 0 0 0 0 0 0

GFSSW_con_mucape_105.txt.gz
CAPE
1 7 14 103 21 18 13 1 1 4 3 6 0 4 0 0 0 0 0 0 0 0 10 11 0 0 0 1 19 43 0 0 0 0 0 0 19 34 57 88 58 40 96 95 137
0 0 4 18 50 26 17 2 0 0 8 7 0 0 0 0 0 0 0 0 0 3 15 3 0 0 0 0 13 30 0 0 4 12 11 1 7 23 37 72 71 43 115 159 134
25 2 0 25 77 50 19 17 10 5 0 6 0 0 0 0 0 0 0 0 30 24 1 0 0 0 0 6 24 28 0 16 12 16 14 11 24 60 36 68 43 106 71 241 143
24 28 12 28 57 54 39 10 9 4 1 8 0 0 0 0 0 1 30 24 44 0 0 0 0 0 0 0 19 4 22 30 18 9 16 26 31 51 70 52 78 50 157 145 136
20 24 15 27 10 78 31 22 14 16 4 2 18 3 0 0 0 0 0 23 13 0 0 0 0 0 0 0 0 0 1 9 19 18 22 11 11 8 43 61 119 125 122 182 224
23 22 24 13 26 43 37 29 15 8 1 0 9 1 0 0 0 0 0 0 0 0 2 1 1 1 0 0 1 0 1 0 1 9 45 30 11 25 43 136 200 160 101 179 150
23 18 3 6 34 49 36 35 31 1 0 0 11 5 0 0 0 0 0 0 6 2 9 15 11 10 10 11 9 11 18 1 0 9 22 34 21 24 25 132 151 132 140 75 13
18 9 0 12 22 28 35 19 47 3 0 0 22 8 0 0 0 0 0 0 12 24 26 33 34 31 24 19 20 25 32 48 0 0 6 22 10 0 3 214 140 115 161 2 0
5 4 1 0 33 14 15 16 6 0 7 13 19 1 0 0 0 0 0 10 18 36 40 39 42 23 18 0 0 14 46 49 53 10 89 58 9 0 144 142 108 84 20 0 1
2 0 0 2 42 4 23 0 13 13 6 0 0 0 0 0 0 0 0 2 7 22 32 38 48 0 0 0 4 62 69 62 45 20 118 80 91 194 217 150 93 25 18 7 35
0 0 72 40 11 16 29 27 10 0 0 0 0 0 0 0 0 0 0 0 0 0 0 0 0 0 0 0 21 49 82 34 45 28 121 102 100 61 123 113 60 21 1 4 1
1 0 32 11 19 22 14 12 7 0 0 0 0 0 0 0 0 0 0 0 0 0 0 0 0 0 43 37 109 128 0 13 39 23 131 133 140 48 94 35 15 13 26 0 1
0 0 0 9 10 0 13 3 0 0 0 0 0 0 0 0 0 0 0 0 0 0 0 0 0 0 3 21 11 14 3 0 9 100 145 135 216 234 151 39 6 4 11 0 13
0 0 52 74 5 4 2 0 0 0 0 0 0 0 0 0 0 0 0 0 0 0 0 0 2 0 3 17 1 0 0 0 10 130 246 244 174 95 41 22 15 8 1 0 21
0 9 68 25 2 3 0 1 0 0 0 0 0 0 0 0 0 0 0 0 0 0 0 36 0 0 0 0 0 1 34 0 74 108 241 137 79 0 2 6 0 0 0 21 76
0 2 18 16 14 0 0 0 0 13 0 0 0 0 0 0 0 0 0 0 0 0 0 6 3 1 22 31 0 5 8 0 0 49 48 0 0 0 0 0 0 2 31 58 55
0 2 4 12 4 0 0 0 19 0 0 0 0 0 0 0 0 0 0 0 0 31 113 11 16 9 24 13 0 0 5 102 42 14 3 0 2 0 0 0 1 7 55 57 17
1 14 13 0 0 0 0 0 0 0 0 0 0 0 0 0 0 0 10 15 0 0 75 101 1 0 33 47 5 0 0 8 1 0 0 0 0 1 3 7 20 48 123 40 23
9 3 9 4 0 0 0 0 0 0 0 0 0 0 0 0 0 0 0 7 0 0 52 86 29 9 28 41 28 21 5 0 0 0 9 3 1 0 0 4 17 3 11 0 4
0 5 2 0 0 0 0 0 0 0 0 0 0 0 0 0 0 0 6 0 0 0 0 1 4 0 3 12 22 0 0 0 6 19 0 3 16 6 0 0 8 5 6 5 6
5 0 0 0 0 0 0 0 0 0 0 0 0 0 0 0 0 0 0 0 0 0 0 0 16 4 22 1 0 0 0 0 0 0 3 6 1 3 0 0 0 0 0 0 0
0 0 0 0 0 0 0 0 0 0 0 0 0 0 0 0 0 0 0 0 0 0 0 0 10 4 0 0 0 0 0 0 0 0 0 0 0 0 0 0 0 0 0 0 0
0 0 0 0 0 0 0 0 0 0 0 0 0 0 0 0 0 0 0 0 0 0 0 0 0 0 0 0 0 0 0 0 0 0 0 0 0 0 0 0 0 0 0 0 0
0 0 0 0 0 0 0 0 0 0 0 0 0 0 0 0 0 0 0 0 0 0 0 0 0 0 0 0 0 0 0 0 0 8 0 0 0 0 0 0 0 0 0 0 0
0 0 0 0 0 0 0 0 0 0 0 0 0 0 0 0 0 0 0 0 0 0 0 0 0 0 0 0 0 0 0 0 0 0 0 0 0 0 0 0 0 0 0 0 0
0 0 0 0 0 0 0 0 0 0 0 0 0 0 0 0 0 0 0 0 0 0 0 0 0 0 0 0 0 0 0 0 0 0 0 0 0 0 0 0 0 0 0 0 0
0 0 0 0 0 0 0 0 0 0 0 0 0 0 0 0 0 0 0 0 0 0 0 0 0 0 0 0 0 0 0 0 0 0 0 0 0 0 0 0 0 0 0 0 0

GFSSW_con_mucape_108.txt.gz
CAPE
1 1 0 0 16 117 44 18 15 1 0 0 0 0 0 0 0 0 0 0 0 0 0 0 0 0 0 0 0 18 0 0 0 0 0 0 0 0 4 1 0 0 20 154 87
30 13 0 0 15 77 62 34 40 35 9 3 0 0 0 0 0 0 0 0 0 0 0 2 0 0 0 0 0 0 0 0 0 0 0 0 0 0 0 0 11 2 34 228 111
23 12 38 17 0 49 78 46 33 34 5 3 3 0 0 0 0 0 0 0 0 7 3 0 0 0 0 0 0 0 0 0 0 1 0 0 1 0 0 0 39 27 11 203 185
30 23 18 37 37 42 101 44 20 9 14 11 0 0 0 0 0 1 0 5 44 0 0 0 0 0 0 0 0 0 0 12 8 3 0 0 0 0 2 0 24 22 41 76 189
40 31 29 16 12 27 62 20 23 11 14 13 0 0 0 0 0 0 6 18 17 0 0 0 0 0 0 0 0 0 0 0 0 2 0 2 0 1 0 4 11 63 76 34 116
8 21 22 13 7 27 37 60 34 4 17 0 0 0 0 0 0 0 0 0 1 0 0 0 0 0 0 0 0 0 0 0 0 0 0 0 0 2 0 0 3 31 59 49 120
24 6 2 4 3 30 33 34 34 16 3 0 0 0 0 0 0 0 0 0 0 0 0 0 0 0 1 0 1 0 0 0 0 0 0 0 0 0 0 0 0 75 52 67 100
27 2 0 0 8 42 54 43 45 16 5 0 13 5 0 0 0 0 0 0 0 0 0 0 6 4 2 6 0 0 0 0 0 0 0 0 0 0 0 0 0 7 46 121 101
47 0 0 0 5 6 6 9 22 3 0 7 18 5 0 0 0 0 0 0 2 0 6 10 28 15 11 0 0 0 0 0 0 1 0 0 0 0 0 0 0 82 25 28 41
33 0 0 0 4 46 10 14 19 11 9 10 1 0 0 0 0 0 0 0 0 0 5 4 0 0 0 0 0 0 2 6 0 0 23 0 11 0 15 48 0 59 64 40 16
36 0 7 29 112 10 40 12 5 11 0 0 0 0 0 0 0 0 0 0 0 0 0 0 0 0 0 0 0 0 27 7 3 50 18 1 1 0 6 195 167 169 88 33 15
5 0 31 1 19 6 15 14 1 0 0 0 0 0 0 0 0 0 0 0 0 0 0 0 0 0 0 0 4 23 7 0 2 33 14 0 4 18 17 62 200 182 89 7 0
0 3 8 3 15 4 27 0 3 0 0 0 0 0 0 0 0 0 0 0 0 0 0 0 0 0 0 0 0 20 0 0 0 19 21 0 0 41 64 81 70 78 24 1 0
0 0 0 67 4 1 1 1 0 0 0 0 0 0 0 0 0 0 0 0 0 0 0 0 0 0 0 0 0 0 0 0 0 0 0 0 0 24 136 281 228 19 1 7 91
0 100 40 29 6 0 0 0 0 0 0 0 0 0 0 0 0 0 0 0 1 0 0 6 12 0 0 0 0 0 0 23 0 24 10 0 6 15 96 82 73 49 27 123 98
7 9 25 15 2 2 0 0 0 0 0 0 0 0 0 0 0 0 4 0 0 0 0 3 1 0 0 5 18 0 0 0 0 0 0 0 0 0 39 27 43 33 68 50 120
0 9 2 1 0 0 0 0 0 5 0 0 0 0 0 0 0 0 0 0 0 1 0 1 0 0 4 5 0 0 0 0 0 0 0 0 0 7 0 14 7 21 67 121 100
14 4 8 2 0 0 0 0 0 0 0 0 0 0 0 0 0 0 4 0 2 0 0 0 0 0 23 0 0 0 0 0 4 12 4 0 2 0 0 9 7 6 107 182 44
11 1 0 0 0 0 0 0 0 0 0 0 0 0 0 0 0 0 0 0 0 0 0 70 0 0 1 0 6 0 0 12 0 0 0 0 2 0 1 15 16 39 48 1 3
0 0 0 0 0 0 0 0 0 0 0 0 0 0 0 0 0 0 1 0 0 0 0 0 0 0 1 8 0 0 0 0 0 0 8 0 1 0 1 38 25 11 3 1 0
0 0 0 0 0 0 0 0 0 0 0 0 0 0 0 0 0 0 0 0 0 0 0 0 0 0 0 0 0 0 0 0 0 0 4 0 0 0 0 0 2 17 3 9 3
0 0 0 0 0 0 0 0 0 0 0 0 0 0 0 0 0 0 0 0 0 0 0 0 0 0 0 0 0 0 0 0 0 0 0 0 0 0 0 0 0 1 3 5 0
0 0 0 0 0 0 0 0 0 0 0 0 0 0 0 0 0 0 0 0 0 0 0 0 0 0 0 4 0 0 0 0 0 0 0 0 0 0 0 0 0 0 0 0 0
0 0 0 0 0 0 0 0 0 0 0 0 0 0 0 0 0 0 0 0 0 0 0 0 0 0 0 0 0 0 0 0 0 0 0 0 0 0 0 0 0 0 0 0 0
0 0 0 0 0 0 0 0 0 0 0 0 0 0 0 0 0 0 0 0 0 0 0 0 0 0 0 0 0 0 0 0 0 0 0 0 0 0 0 0 0 0 0 0 0
0 0 0 0 0 0 0 0 0 0 0 0 0 0 0 0 0 0 0 0 0 0 0 0 0 0 0 0 0 0 0 0 0 0 0 0 0 0 0 0 0 0 0 0 0
0 0 0 0 0 0 0 0 0 0 0 0 0 0 0 0 0 0 0 0 0 0 0 0 0 0 0 0 0 0 0 0 0 0 0 0 0 0 0 0 0 0 0 0 0

GFSSW_con_mucape_111.txt.gz
CAPE
36 31 2 3 0 28 99 74 53 33 12 0 0 0 0 0 0 0 0 0 0 0 0 0 0 0 0 0 0 1 0 0 0 0 0 0 0 0 0 0 0 0 42 106 149
53 31 39 23 1 3 64 96 48 46 29 18 0 0 0 0 0 0 0 0 0 0 0 0 0 0 0 0 0 0 0 0 0 0 0 0 0 0 0 0 0 0 142 140 120
21 40 31 22 23 11 50 68 49 37 31 14 19 0 0 0 0 0 0 0 0 0 0 0 0 0 0 0 0 0 0 0 0 0 0 0 0 0 0 0 0 0 6 122 87
51 49 41 26 17 2 14 91 39 26 34 10 15 0 0 0 0 0 0 0 11 0 0 0 0 0 0 0 0 0 0 0 0 0 0 0 0 0 0 0 0 0 9 16 48
94 49 36 26 19 6 28 48 44 51 21 10 14 0 0 0 0 12 23 43 0 0 0 0 0 0 0 0 0 0 0 0 0 0 0 0 0 0 0 0 0 0 0 0 25
102 72 27 21 10 2 11 96 68 27 21 7 0 0 0 0 0 2 0 0 0 0 0 0 0 0 0 0 0 0 0 0 0 0 0 0 0 0 0 0 0 0 2 1 2
89 76 27 7 17 20 69 54 23 32 24 2 0 0 0 0 0 0 0 0 0 0 0 0 0 0 0 0 0 0 0 0 0 0 0 0 0 0 0 0 0 0 2 10 0
117 96 11 1 32 16 153 74 20 16 5 12 0 0 0 0 0 0 0 0 0 0 0 0 0 0 0 0 0 0 0 0 0 0 0 0 0 0 0 0 0 3 12 0 0
89 81 9 0 114 74 29 28 10 22 7 0 0 0 0 0 0 0 0 0 0 0 0 0 0 0 0 0 0 0 0 0 0 0 0 0 0 0 0 0 0 0 0 5 11
50 25 4 0 79 26 6 18 28 2 0 12 1 0 0 0 0 0 0 0 0 0 0 0 0 0 0 0 0 0 0 0 0 0 0 0 0 0 0 0 0 0 0 0 30
9 2 43 284 161 6 11 17 1 1 0 0 0 0 0 0 0 0 0 0 0 0 0 0 0 0 0 0 0 0 0 0 0 0 0 0 0 0 0 0 0 0 0 28 50
3 0 36 99 22 23 14 0 0 0 0 0 0 0 0 0 0 0 0 0 0 0 0 0 0 0 0 0 0 0 0 0 0 0 0 10 0 0 0 0 1 25 53 89 84
0 0 15 75 28 42 5 0 6 0 0 0 0 0 0 0 0 0 0 0 0 0 0 0 0 0 0 0 0 0 0 0 0 0 0 0 0 0 0 0 1 30 136 150 79
13 0 0 34 1 0 1 9 0 0 0 0 0 0 0 0 0 0 0 0 0 0 0 0 0 0 0 0 0 0 0 1 0 0 0 0 0 0 0 0 0 3 111 82 43
38 89 51 5 0 0 0 0 0 0 0 0 0 0 0 0 0 7 11 0 0 0 0 0 0 0 0 0 0 0 0 0 0 0 0 0 0 0 17 6 14 128 41 5 183
20 18 3 0 0 0 0 0 0 0 0 0 0 0 0 0 0 0 0 0 0 0 0 0 0 0 0 0 0 0 0 0 0 0 0 0 0 0 0 3 8 77 66 135 187
5 1 2 1 0 0 0 0 0 0 0 0 0 0 0 0 0 0 1 1 1 0 0 0 0 0 0 0 0 0 0 0 0 0 0 0 0 0 0 0 23 46 41 85 177
0 0 0 0 0 0 0 0 0 0 0 0 0 0 0 0 0 0 8 0 1 1 0 0 0 0 0 0 0 1 0 0 0 0 0 0 16 4 0 0 24 18 12 8 0
0 0 0 0 0 0 0 0 0 0 0 0 0 0 0 0 0 0 0 0 0 0 0 0 0 0 0 0 0 2 0 0 0 0 0 0 0 0 0 0 0 9 0 25 36
0 0 0 0 0 0 0 0 0 0 0 0 0 0 0 0 0 0 0 0 0 0 0 0 0 0 0 0 0 0 0 0 0 0 0 0 0 0 0 0 0 4 4 0 2
0 0 0 0 0 0 0 0 0 0 0 0 0 0 0 0 0 0 0 0 0 0 0 0 0 0 0 0 0 0 0 0 0 0 1 0 0 0 0 23 0 0 7 0 2
0 0 0 0 0 0 0 0 0 0 0 0 0 0 0 0 0 0 0 0 0 0 0 0 0 0 0 0 0 0 0 0 0 0 0 0 0 0 0 0 0 0 5 0 0
0 0 0 0 0 0 0 0 0 0 0 0 0 0 0 0 0 0 0 0 0 0 0 0 0 0 0 0 0 0 0 0 0 0 0 0 0 0 0 0 0 0 0 0 0
0 0 0 0 0 0 0 0 0 0 0 0 0 0 0 0 0 0 0 0 0 0 0 0 0 0 0 0 0 0 0 0 0 0 0 0 0 0 0 0 0 0 0 0 0
0 0 0 0 0 0 0 0 0 0 0 0 0 0 0 0 0 0 0 0 0 0 0 0 0 0 0 0 0 0 0 0 0 0 0 0 0 0 0 0 0 0 0 0 0
0 0 0 0 0 0 0 0 0 0 0 0 0 0 0 0 0 0 0 0 0 0 0 0 0 0 0 0 0 0 0 0 0 0 0 0 0 0 0 0 0 0 0 0 0
0 0 0 0 0 0 0 0 0 0 0 0 0 0 0 0 0 0 0 0 0 0 0 0 0 0 0 0 0 0 0 0 0 0 0 0 0 0 0 0 0 0 0 0 0

GFSSW_con_mucape_114.txt.gz
CAPE
15 31 27 3 0 1 13 72 100 46 41 11 1 0 0 0 0 0 0 0 0 0 0 0 0 0 0 0 0 0 0 0 0 0 0 0 0 0 0 0 0 0 64 78 140
13 12 36 34 16 0 21 21 115 57 44 2 7 0 0 0 0 0 0 0 0 0 0 0 0 0 0 0 0 0 0 0 0 0 0 0 0 0 0 0 0 0 8 103 153
58 20 33 39 18 16 0 45 126 43 32 19 2 0 0 0 0 0 0 0 0 0 0 0 0 0 0 0 0 0 0 0 0 0 0 0 0 0 0 0 0 0 0 5 89
30 51 18 22 19 13 6 8 97 89 19 4 2 0 0 0 0 0 0 0 0 0 0 0 0 0 0 0 0 0 0 0 0 0 0 0 0 0 0 0 0 0 0 0 31
53 59 22 14 19 13 1 20 145 40 34 26 3 1 0 0 0 0 25 0 0 0 0 0 0 0 0 0 0 0 0 0 0 0 0 0 0 0 0 0 0 0 0 0 0
75 53 51 14 9 8 1 50 157 59 54 24 1 0 0 0 1 10 5 0 0 0 0 0 0 0 0 0 0 0 0 0 0 0 0 0 0 0 0 0 0 0 0 0 0
88 53 56 15 35 32 122 176 87 63 16 13 2 0 0 0 0 0 0 0 0 0 0 0 0 0 0 0 0 0 0 0 0 0 0 0 0 0 0 0 0 0 0 0 0
75 34 16 37 38 48 195 107 37 4 14 17 0 0 0 0 0 0 0 0 0 0 0 0 0 0 0 0 0 0 0 0 0 0 0 0 0 0 0 0 0 0 0 0 0
63 22 9 56 63 53 84 56 24 7 8 7 0 0 0 0 0 0 0 0 0 0 0 0 0 0 0 0 0 0 0 0 0 0 0 0 0 0 0 0 0 0 0 0 2
16 4 19 62 54 49 25 57 18 1 13 0 0 0 0 0 0 0 0 0 0 0 0 0 0 0 0 0 0 0 0 0 0 0 0 0 0 0 0 0 0 0 0 0 0
0 41 287 366 43 25 13 16 0 2 0 0 0 0 0 0 0 0 0 0 0 0 0 0 0 0 0 0 0 0 0 0 0 0 0 0 0 0 0 0 0 0 0 0 0
0 136 248 142 47 1 3 0 0 0 0 0 0 0 0 0 0 0 0 0 0 0 0 0 0 0 0 0 0 0 0 0 0 0 0 0 0 0 0 0 0 0 0 0 0
0 34 86 31 7 14 5 0 0 0 0 0 0 0 0 0 0 0 0 0 0 0 0 0 0 0 0 0 0 0 0 0 0 0 1 0 0 0 0 0 0 0 0 20 1
0 2 15 3 0 1 0 0 0 0 0 0 0 0 0 0 0 0 0 0 0 0 0 0 0 0 0 0 0 0 0 0 0 0 0 0 0 0 1 3 0 0 8 17 22
0 0 0 2 0 0 0 0 0 0 0 0 0 0 0 0 0 0 0 0 0 0 0 0 0 0 0 0 0 0 0 0 0 0 0 0 0 0 0 20 14 55 81 2 8
11 2 0 0 0 0 0 0 0 0 0 0 0 0 0 0 0 3 3 1 0 0 0 0 0 0 0 0 0 0 0 0 0 0 0 0 0 0 0 0 3 50 64 95 5
0 0 0 0 0 0 0 0 0 0 0 0 0 0 0 0 0 1 1 0 0 0 0 0 0 0 0 0 0 0 0 0 0 0 0 0 0 0 0 0 0 0 25 91 73
0 0 0 0 0 0 0 0 0 0 0 0 0 0 0 0 0 3 0 0 0 0 0 0 0 0 0 0 0 0 0 0 0 0 0 0 0 0 0 0 6 5 18 24 0
0 0 0 0 0 0 0 0 0 0 0 0 0 0 0 0 0 0 0 0 0 0 0 0 0 0 0 0 0 0 0 0 0 0 0 0 0 0 0 0 0 0 1 0 0
0 0 0 0 0 0 0 0 0 0 0 0 0 0 0 0 0 0 0 0 0 0 0 0 0 0 0 0 0 0 0 0 0 0 0 0 0 0 0 0 0 0 1 0 0
0 0 0 0 0 0 0 0 0 0 0 0 0 0 0 0 0 0 0 0 0 0 0 0 0 0 0 0 0 0 0 0 0 0 0 0 0 0 0 0 0 0 0 0 0
0 0 0 0 0 0 0 0 0 0 0 0 0 0 0 0 0 0 0 0 0 0 0 0 0 0 0 0 0 0 0 0 0 0 0 0 0 0 0 1 1 0 0 0 0
0 0 0 0 0 0 0 0 0 0 0 0 0 0 0 0 0 0 0 0 0 0 0 0 0 0 0 0 0 0 0 0 0 0 0 5 0 0 0 0 0 0 0 0 0
0 0 0 0 0 0 0 0 0 0 0 0 0 0 0 0 0 0 0 0 0 0 0 0 0 0 0 0 0 0 0 0 0 0 0 0 0 0 0 0 0 0 0 0 0
0 0 0 0 0 0 0 0 0 0 0 0 0 0 0 0 0 0 0 0 0 0 0 0 0 0 0 0 0 0 0 0 0 0 0 0 0 0 0 0 0 0 0 0 0
0 0 0 0 0 0 0 0 0 0 0 0 0 0 0 0 0 0 0 0 0 0 0 0 0 0 0 0 0 0 0 0 0 0 0 0 0 0 0 0 0 0 0 0 0
0 0 0 0 0 0 0 0 0 0 0 0 0 0 0 0 0 0 0 0 0 0 0 0 0 0 0 0 0 0 0 0 0 0 0 0 0 0 0 0 0 0 0 0 0

GFSSW_con_mucape_117.txt.gz
CAPE
49 27 39 16 5 0 3 21 57 24 6 18 0 0 0 0 0 0 0 0 0 0 0 0 0 0 0 0 0 0 0 0 0 0 0 0 0 0 0 0 0 0 0 0 19
55 0 5 22 29 6 0 5 46 36 34 17 8 0 0 0 0 0 0 0 0 0 0 0 0 0 0 0 0 0 0 0 0 0 0 0 0 0 0 0 0 0 0 0 29
53 59 17 5 29 20 11 0 64 110 33 0 0 8 0 0 0 0 0 0 0 0 0 0 0 0 0 0 0 0 0 0 0 0 0 0 0 0 0 0 0 0 0 0 10
64 63 47 0 9 16 7 17 6 148 26 8 0 2 0 0 0 0 0 0 0 0 0 0 0 0 0 0 0 0 0 0 0 0 0 0 0 0 0 0 0 0 0 0 0
120 69 56 0 0 10 14 16 27 198 32 10 0 0 0 0 0 0 8 0 0 0 0 0 0 0 0 0 0 0 0 0 0 0 0 0 0 0 0 0 0 0 0 0 0
0 49 37 18 6 7 2 51 93 94 37 19 5 1 0 0 0 12 0 0 0 0 0 0 0 0 0 0 0 0 0 0 0 0 0 0 0 0 0 0 0 0 0 0 0
57 39 27 3 5 13 63 108 140 49 60 13 9 0 0 0 9 0 0 0 0 0 0 0 0 0 0 0 0 0 0 0 0 0 0 0 0 0 0 0 0 0 0 0 0
33 7 7 6 32 56 226 139 89 73 20 14 1 0 0 0 0 0 0 0 0 0 0 0 0 0 0 0 0 0 0 0 0 0 0 0 0 0 0 0 0 0 0 0 0
24 6 0 10 88 127 93 84 58 12 8 3 0 0 0 0 0 0 0 0 0 0 0 0 0 0 0 0 0 0 0 0 0 0 0 0 0 0 0 0 0 0 0 0 0
8 0 5 198 262 113 149 38 24 9 6 0 0 0 0 0 0 0 0 0 0 0 0 0 0 0 0 0 0 0 0 0 0 0 0 0 0 0 0 0 0 0 0 0 0
80 136 59 180 63 37 16 13 6 3 1 0 0 0 0 0 0 0 0 0 0 0 0 0 0 0 0 0 0 0 0 0 0 0 0 0 0 0 0 0 0 0 0 0 0
236 517 173 91 100 10 29 32 1 0 0 0 0 0 0 0 0 0 0 0 0 0 0 0 0 0 0 0 0 0 0 0 0 0 0 0 0 0 0 0 0 0 0 0 0
179 176 85 50 2 5 3 0 0 0 0 0 0 0 0 0 0 0 0 0 0 0 0 0 0 0 0 0 0 0 0 0 0 0 0 0 0 0 0 5 0 0 0 0 0
58 51 16 3 1 0 0 0 0 0 0 0 0 0 0 0 0 0 0 0 0 0 0 0 0 0 0 0 0 0 0 0 0 0 0 0 0 0 0 0 0 7 27 19 42
0 2 1 0 0 0 0 0 0 0 0 0 0 0 0 0 0 0 0 0 0 0 0 0 0 0 0 0 0 0 0 0 0 0 0 0 0 2 0 0 0 44 60 78 74
3 0 0 0 0 0 0 0 0 0 0 0 0 0 0 0 1 0 0 0 0 0 0 0 0 0 0 0 0 0 0 0 0 0 0 0 3 8 0 0 0 8 72 173 218
0 0 0 0 0 0 0 0 0 0 0 0 0 0 0 0 0 0 0 0 0 0 0 0 0 0 0 0 0 0 0 0 0 0 0 0 0 0 0 4 0 15 143 92 125
0 0 0 0 0 0 0 0 0 0 0 0 0 0 0 0 0 0 0 0 0 0 0 0 0 0 0 0 0 0 0 0 0 0 0 0 0 0 0 0 13 63 8 35 21
0 0 0 0 0 0 0 0 0 0 0 0 0 0 0 0 0 0 0 0 0 0 0 0 0 0 0 0 0 0 0 0 0 0 0 0 0 0 0 0 0 0 0 0 0
0 0 0 0 0 0 0 0 0 0 0 0 0 0 0 0 0 0 0 0 0 0 0 0 0 0 0 0 0 0 0 0 0 0 0 0 0 0 0 0 0 0 0 0 0
0 0 0 0 0 0 0 0 0 0 0 0 0 0 0 0 0 0 0 0 0 0 0 0 0 0 0 0 0 0 0 0 0 0 0 2 0 0 0 0 0 0 0 0 0
0 0 0 0 0 0 0 0 0 0 0 0 0 0 0 0 0 0 0 0 0 0 0 0 0 0 0 0 0 0 0 0 0 0 0 0 0 0 0 0 0 0 0 0 0
0 0 0 0 0 0 0 0 0 0 0 0 0 0 0 0 0 0 0 0 0 0 0 0 0 0 0 0 0 0 0 0 0 0 0 0 0 0 0 0 0 0 0 0 0
0 0 0 0 0 0 0 0 0 0 0 0 0 0 0 0 0 0 0 0 0 0 0 0 0 0 0 0 0 0 0 0 0 0 0 0 0 0 0 0 0 0 0 0 0
0 0 0 0 0 0 0 0 0 0 0 0 0 0 0 0 0 0 0 0 0 0 0 0 0 0 0 0 0 0 0 0 0 0 0 0 0 0 0 0 0 0 0 0 0
0 0 0 0 0 0 0 0 0 0 0 0 0 0 0 0 0 0 0 0 0 0 0 0 0 0 0 0 0 0 0 0 0 0 0 0 0 0 0 0 0 0 0 0 0
0 0 0 0 0 0 0 0 0 0 0 0 0 0 0 0 0 0 0 0 0 0 0 0 0 0 0 0 0 0 0 0 0 0 0 0 0 0 0 0 0 0 0 0 0